GFSSGP_sfc_30mbdewp_000.txt.gz
Dewpoint
62 56 51 38 26 31 28 27 30 28 30 31 33 32 32 34 33 34 55 61 66 70 71 71 70 69 69 68 65 64 63 60 58 58 57 58 58 60 60 60 58 58 58 57 58 57 57 58 59
63 53 43 36 28 21 23 27 27 27 28 31 34 33 32 42 51 53 57 66 68 70 71 71 71 70 70 68 65 64 63 61 59 58 57 57 59 59 58 59 58 58 59 58 58 58 56 57 59
52 52 39 33 32 26 21 26 26 26 29 33 32 36 39 43 54 54 57 66 68 69 70 71 71 71 70 68 66 64 63 61 59 59 60 62 62 63 60 59 56 59 60 59 58 59 59 59 58
48 43 36 32 29 30 29 29 26 26 27 32 33 36 44 47 49 55 58 65 67 68 69 72 72 71 71 68 66 65 64 62 60 59 61 62 65 65 64 61 61 61 61 60 59 59 60 60 61
45 41 36 32 31 31 31 30 25 26 27 30 33 33 41 49 55 56 57 65 65 66 69 72 71 72 70 68 67 65 64 63 61 61 61 63 64 65 66 63 63 62 61 60 60 60 59 59 60
44 40 35 31 31 32 33 32 26 26 28 32 32 35 41 50 55 55 56 60 67 67 70 71 72 71 70 69 68 67 65 63 62 62 62 63 63 64 65 64 63 62 61 60 61 61 61 61 60
44 40 35 35 33 34 34 32 23 24 30 32 34 34 40 46 53 55 55 60 69 70 71 71 72 71 71 70 69 68 67 65 63 62 62 63 63 62 64 66 64 63 62 62 62 62 61 61 62
45 42 38 37 35 34 35 33 27 26 27 34 34 33 37 41 53 56 56 63 68 70 70 70 70 70 70 70 69 68 68 67 66 65 64 64 63 62 63 65 64 63 63 63 62 61 62 62 62
48 42 39 38 36 35 35 34 33 33 33 35 35 33 35 40 53 56 57 58 65 68 68 69 69 69 69 68 69 67 67 67 66 65 64 63 62 60 61 63 63 64 63 63 63 63 63 64 64
47 44 41 41 39 36 37 35 33 33 35 35 36 37 38 48 55 55 56 56 59 63 65 67 68 67 68 67 67 67 66 66 65 64 63 63 61 60 59 61 62 62 62 63 64 64 65 64 63
47 44 43 41 40 39 37 37 35 33 33 35 34 36 37 46 50 52 54 56 57 60 62 65 66 66 67 65 65 65 65 65 64 63 63 63 60 58 59 59 60 60 60 61 62 61 61 61 61
43 45 45 45 44 43 41 38 37 35 34 36 36 38 39 38 38 42 42 50 55 59 60 62 65 65 66 65 65 64 63 63 63 63 62 61 59 60 60 60 60 60 61 61 61 58 54 51 51
44 43 45 46 45 44 43 41 39 37 37 38 38 38 38 38 39 39 38 36 42 56 60 61 63 64 64 64 63 62 62 62 60 60 59 60 60 61 61 61 60 58 57 53 46 45 45 44 44
42 43 44 44 43 43 42 41 39 38 38 38 38 38 38 38 38 38 40 45 49 54 60 61 63 64 63 63 63 62 61 60 60 60 60 61 61 61 55 44 45 47 45 43 41 40 39 38 40
42 40 41 41 43 42 41 40 40 38 37 37 38 38 38 38 36 36 41 46 49 54 59 61 63 64 64 63 63 61 60 60 59 58 55 55 53 45 42 40 41 43 41 38 36 33 32 35 35
40 40 38 40 41 44 42 38 40 39 37 37 37 37 38 37 38 42 46 48 50 52 56 59 63 64 64 63 62 59 57 53 43 40 41 40 41 41 38 37 37 39 35 33 32 30 29 32 31
39 35 35 37 41 42 41 38 39 38 37 36 37 37 37 37 39 43 45 47 50 51 52 55 62 63 62 59 52 45 41 40 39 38 37 36 37 36 34 33 35 34 31 29 29 26 29 30 28
31 33 33 33 40 41 40 40 40 38 37 37 37 36 35 37 39 42 43 46 51 52 52 55 62 58 48 44 42 40 38 36 35 34 33 32 31 31 30 29 31 30 27 28 28 25 27 30 30
36 35 32 35 36 37 38 39 40 41 38 37 36 35 33 38 40 40 43 49 52 54 53 58 55 45 44 42 39 37 35 33 31 29 28 27 27 27 27 27 28 29 26 27 28 27 26 28 30
35 33 33 34 35 35 38 39 41 39 39 37 36 34 35 39 39 41 46 51 53 55 56 55 49 45 45 43 41 37 35 34 30 26 23 23 25 26 26 26 27 27 25 23 25 26 24 28 30
33 31 31 32 34 33 32 32 37 40 38 38 37 34 37 39 39 42 48 51 53 54 54 53 48 46 45 42 39 38 36 35 29 25 22 22 23 24 25 25 24 25 24 21 23 22 22 20 25
30 33 33 32 33 30 37 31 34 36 37 37 36 34 38 39 40 44 49 50 51 51 51 50 47 46 43 40 37 34 33 32 33 29 24 21 22 22 23 23 22 22 22 19 20 21 20 20 17
30 31 30 31 31 31 31 31 34 35 34 36 35 34 38 39 40 44 48 48 48 48 48 47 45 43 42 40 38 36 36 36 34 26 21 20 20 20 20 20 19 19 20 18 17 17 15 19 18
33 31 30 30 30 26 28 31 30 33 33 34 34 34 38 39 41 45 45 46 45 44 44 44 43 42 41 39 37 36 35 31 28 24 22 21 20 19 17 17 17 16 16 16 16 16 14 14 16
30 28 25 23 23 21 27 30 28 33 34 33 32 34 38 39 42 44 44 43 41 41 41 41 40 40 39 37 36 34 31 26 22 22 21 18 15 15 15 15 13 14 13 14 14 13 13 14 14
30 28 23 17 20 18 28 26 31 35 33 34 35 34 38 39 42 43 43 41 39 39 38 37 37 35 34 33 30 26 23 21 19 17 16 15 13 14 14 13 12 11 11 11 11 13 13 13 14
29 27 28 26 26 25 30 35 37 37 35 30 33 36 37 40 42 43 42 40 39 38 37 35 33 30 28 26 22 20 18 17 15 14 14 13 13 12 11 11 10 10 10 11 11 13 12 13 14
29 30 25 26 20 19 26 30 28 34 29 32 34 36 37 40 42 43 42 41 40 38 36 33 30 27 23 21 18 16 14 14 12 12 10 10 10 9 9 9 10 10 11 12 12 13 14 13 13
31 29 27 24 26 26 25 28 32 30 29 33 34 36 38 40 42 43 42 41 39 37 35 31 28 24 20 17 14 12 11 11 10 8 8 8 9 9 9 10 11 11 12 12 13 13 14 13 13
31 29 28 22 19 27 30 25 29 33 30 33 35 36 38 40 41 43 43 41 39 36 33 30 26 22 17 14 12 11 10 9 8 8 9 9 9 10 10 11 12 12 13 14 14 14 14 14 14

GFSSGP_sfc_30mbdewp_003.txt.gz
Dewpoint
64 57 46 37 30 29 28 27 27 27 30 31 31 32 31 35 32 33 56 62 65 67 71 72 71 70 68 67 65 64 62 60 59 57 57 58 57 60 60 60 59 59 58 57 57 57 56 58 59
60 53 42 36 29 23 22 26 26 27 27 30 33 32 33 40 51 53 57 63 67 70 71 71 71 70 69 68 65 64 63 60 58 58 58 59 59 61 59 59 57 57 59 58 57 58 57 56 57
53 47 38 33 31 28 22 25 28 26 26 32 32 38 39 46 53 53 56 66 69 70 71 70 71 70 70 68 66 65 63 61 59 59 60 61 60 61 61 55 57 58 59 59 58 59 60 60 60
48 43 37 31 28 30 28 31 30 26 25 32 32 35 44 47 51 55 62 67 69 69 70 71 71 71 70 68 66 65 63 62 59 59 60 61 64 64 62 60 61 61 61 60 59 60 60 60 61
45 41 35 33 32 32 31 32 29 29 26 29 32 33 41 48 55 57 64 67 66 68 70 72 72 72 70 69 66 65 63 62 60 58 60 62 63 63 64 63 63 62 62 60 60 60 60 60 60
45 40 35 30 31 32 33 33 32 28 27 31 32 35 40 49 55 56 64 65 66 67 70 72 72 72 71 69 67 66 64 63 59 61 61 63 63 63 65 64 64 63 62 61 61 62 62 62 61
44 39 35 34 32 32 33 34 28 25 29 32 34 32 40 46 54 56 60 65 67 68 70 71 71 71 70 69 68 67 65 64 62 62 62 62 63 62 64 66 64 64 63 62 63 63 61 61 62
46 42 38 37 34 32 35 34 30 24 27 34 33 32 36 40 48 56 56 64 68 69 70 71 71 71 70 70 69 68 67 66 65 63 63 64 64 63 63 66 65 64 64 64 63 62 63 63 63
46 42 38 37 36 34 35 34 34 33 30 35 34 34 35 38 53 56 56 64 68 69 69 70 70 70 70 70 69 68 68 67 66 65 64 63 61 60 61 63 63 64 64 63 63 64 64 64 64
46 43 40 41 38 36 36 36 35 32 33 34 35 36 41 49 54 55 55 59 65 67 68 69 69 69 68 68 68 67 67 67 66 65 63 62 61 59 59 61 63 64 64 64 64 64 64 61 62
46 43 43 42 41 40 38 36 36 36 34 33 34 35 40 49 54 55 55 56 61 65 67 68 68 68 67 67 66 66 65 65 64 64 62 62 60 58 60 59 60 60 60 61 62 61 57 52 52
43 45 45 44 44 44 42 40 38 35 33 34 35 36 37 44 49 53 53 55 57 60 63 65 66 66 66 66 65 65 64 64 63 63 62 61 59 59 60 60 61 61 61 60 51 46 44 41 42
43 44 44 45 46 45 45 43 42 40 39 38 36 37 37 38 39 42 47 47 51 57 61 63 65 65 66 65 64 63 63 63 62 62 62 60 59 61 61 57 51 48 46 43 40 39 36 36 35
42 42 42 44 43 43 43 43 42 39 38 38 37 37 37 37 37 39 39 39 39 44 59 62 63 65 65 64 63 62 62 62 60 60 59 60 61 55 43 44 45 42 41 39 35 32 33 32 31
42 40 40 40 41 42 42 41 40 41 40 37 37 37 37 37 38 38 38 39 42 47 57 61 63 64 63 63 62 61 60 60 59 58 57 55 45 41 41 41 40 38 34 32 28 27 30 28 27
40 39 36 37 39 41 41 36 40 41 40 39 37 36 37 37 37 37 39 42 48 52 58 62 64 63 63 62 60 58 56 47 43 43 42 41 40 39 36 37 36 32 29 28 26 26 26 28 25
38 31 34 36 39 41 41 37 39 40 39 38 37 36 36 37 37 38 43 48 50 53 58 61 63 63 62 58 49 44 41 40 39 39 39 38 36 33 32 34 32 29 27 27 26 23 26 28 24
31 34 33 33 37 40 37 36 39 41 39 38 37 37 37 36 36 38 43 47 51 52 55 61 63 61 51 43 42 40 38 36 36 35 33 32 31 29 28 30 29 27 25 26 24 23 24 29 25
36 34 33 34 36 35 34 34 35 39 40 40 39 38 37 35 37 40 43 47 51 52 52 60 58 49 46 43 40 38 36 33 30 29 28 28 28 27 27 28 27 26 24 25 24 24 22 24 27
34 33 32 33 34 33 33 34 36 36 36 40 40 39 37 35 37 39 42 49 52 52 53 56 50 45 45 43 40 36 33 31 27 25 25 25 26 26 26 26 25 23 21 20 21 22 20 21 26
33 32 30 30 32 32 31 28 29 31 35 39 40 39 38 36 36 39 43 50 53 53 54 49 45 45 44 39 36 35 32 28 24 23 22 23 25 25 24 23 22 21 21 18 20 20 18 16 19
29 33 32 31 29 25 33 22 29 33 33 35 37 38 36 36 38 40 45 50 53 54 53 46 46 45 41 38 35 31 27 24 27 24 22 22 22 22 22 21 20 20 19 17 17 18 17 19 15
29 31 30 32 31 31 29 27 27 30 29 33 37 37 36 37 38 40 46 50 53 52 51 47 47 44 39 37 34 32 30 32 29 22 20 19 20 19 19 19 17 17 18 17 15 15 13 16 16
32 31 30 30 29 24 24 26 21 25 33 33 34 36 35 37 39 43 48 49 50 49 49 47 46 42 40 37 35 33 33 31 24 21 19 18 19 18 17 16 15 15 14 14 14 14 13 14 14
29 27 23 22 22 19 24 23 23 28 32 33 32 33 35 38 40 44 47 48 48 48 47 46 44 42 39 37 36 35 34 29 24 22 21 18 15 15 14 14 12 12 12 12 13 13 13 14 13
29 26 21 15 18 16 19 18 23 31 29 29 33 34 36 38 41 44 47 46 45 45 44 44 43 40 38 37 36 34 30 28 25 23 20 16 14 14 14 12 11 10 11 12 12 14 13 14 14
31 28 28 20 22 24 24 29 35 33 34 34 34 34 36 38 41 44 44 43 42 42 41 41 40 37 36 34 31 28 24 22 19 17 15 14 14 12 11 10 10 10 11 12 12 13 13 14 14
28 29 26 26 17 17 19 25 25 30 28 29 33 34 35 38 42 43 41 40 39 39 37 36 35 34 30 27 24 20 18 16 15 14 12 11 10 9 9 9 10 11 12 13 13 14 14 14 14
29 28 27 24 22 17 16 16 32 31 31 32 31 34 37 39 42 42 40 39 38 36 34 31 29 27 23 20 17 15 14 12 11 9 9 9 9 9 9 11 12 12 13 13 14 14 14 14 15
30 27 27 24 19 19 24 23 32 34 29 31 33 37 39 41 42 41 40 38 37 35 32 29 25 22 18 15 14 12 11 10 9 9 9 9 9 10 11 12 12 13 14 15 14 14 15 15 15

GFSSGP_sfc_30mbdewp_006.txt.gz
Dewpoint
61 55 43 36 28 28 27 25 28 27 29 31 30 32 32 34 35 32 56 61 63 64 68 72 71 70 68 66 65 64 62 62 59 59 60 58 58 60 60 60 59 59 58 57 56 57 56 58 60
59 51 40 35 28 25 25 26 26 27 27 28 33 34 33 39 50 52 57 61 66 67 70 72 71 69 68 67 66 64 62 61 59 58 58 59 58 61 59 60 57 57 59 58 57 58 58 57 57
51 43 37 32 30 26 25 25 29 30 28 30 32 39 39 43 53 53 56 63 68 70 71 71 72 70 69 67 66 65 63 60 59 59 59 60 60 61 60 55 56 57 59 59 58 59 60 61 61
47 43 37 31 28 30 29 27 31 30 28 32 32 34 42 47 51 54 61 67 68 70 70 71 71 70 70 68 66 65 64 62 59 60 61 61 62 62 62 60 60 61 61 60 59 60 60 60 60
44 41 34 33 31 31 31 32 32 30 30 28 33 32 40 46 55 58 65 68 67 69 70 71 71 70 70 68 67 65 64 62 60 59 59 61 63 63 64 63 62 62 62 60 60 60 61 61 61
44 40 34 30 30 32 33 33 32 31 29 28 32 35 39 47 55 60 65 66 67 68 70 71 71 71 70 69 67 66 64 62 60 58 60 61 63 63 65 65 64 63 62 62 61 62 62 62 61
44 39 35 33 31 32 32 35 30 29 26 29 33 32 38 43 54 58 64 65 66 68 70 71 72 72 71 69 68 67 65 63 60 62 62 62 63 62 64 66 64 64 64 63 63 63 62 62 63
46 41 38 36 33 32 34 35 33 25 25 33 34 31 33 40 51 56 61 65 66 67 69 70 71 71 70 69 68 67 66 65 64 64 63 64 64 63 63 66 65 64 64 64 63 64 64 64 64
45 42 38 37 36 35 35 34 34 33 31 34 34 34 37 38 54 55 57 63 66 67 69 70 70 70 69 69 68 68 67 66 65 64 64 63 61 60 61 62 62 63 64 64 64 65 65 63 62
47 43 40 41 39 36 37 37 36 34 34 35 35 36 41 48 54 54 55 57 64 65 66 68 68 68 69 69 68 67 67 67 66 64 63 62 60 58 59 60 62 63 63 62 63 63 58 52 52
45 41 43 43 42 41 40 38 38 36 36 36 34 35 38 48 53 54 55 56 61 65 66 67 67 68 68 68 67 66 66 66 65 64 62 62 60 58 59 59 60 60 61 61 56 46 44 41 40
43 45 45 44 44 44 43 42 40 37 37 35 36 36 37 42 50 52 54 55 57 62 66 67 67 67 67 66 66 66 65 65 64 63 62 61 58 59 59 61 60 59 57 43 42 38 37 35 33
43 44 44 44 44 45 45 44 45 44 43 42 41 38 36 37 42 48 53 53 55 57 60 65 67 67 66 66 65 65 64 63 63 62 62 61 59 60 60 51 46 44 41 37 33 32 32 28 27
42 42 42 42 43 44 43 43 43 42 42 40 39 38 38 37 37 38 39 40 41 45 54 61 65 66 65 65 64 63 63 63 62 61 61 60 61 54 46 44 41 38 36 31 28 29 29 25 25
42 39 40 40 41 41 42 40 40 42 42 41 40 39 38 38 38 38 38 39 39 40 43 59 63 65 65 64 64 63 62 61 60 60 61 59 46 42 42 39 35 32 30 27 25 25 28 23 22
39 38 35 37 38 40 41 35 36 38 38 40 41 40 39 38 37 38 38 38 38 44 51 59 62 64 64 63 62 61 60 55 52 51 49 42 40 39 37 34 30 28 27 25 23 24 23 24 21
36 31 33 33 37 38 39 34 39 39 38 38 39 38 38 38 37 38 38 39 44 48 55 60 63 63 63 59 55 51 47 46 43 42 41 37 34 34 33 29 27 27 25 23 22 22 23 26 20
29 32 33 32 35 36 37 38 39 38 39 39 40 39 38 38 38 38 38 43 49 52 58 62 63 62 54 49 46 43 41 38 37 36 34 31 30 30 29 27 25 24 23 20 20 20 22 28 25
35 33 33 34 35 35 34 33 34 35 36 38 38 40 40 40 39 38 39 45 51 52 58 62 61 53 50 47 45 43 41 35 31 30 29 28 27 28 27 26 24 22 21 20 21 20 19 18 26
35 33 32 33 33 33 32 30 31 32 35 38 39 39 40 40 38 38 40 46 50 51 57 60 56 49 49 48 43 39 34 30 27 27 27 26 26 26 25 23 22 21 19 18 18 17 15 18 24
32 31 30 29 30 29 28 24 25 26 29 31 34 35 38 40 39 38 39 45 50 51 55 56 51 48 46 39 36 32 28 25 24 24 24 25 25 24 22 21 20 19 19 17 18 17 16 15 17
29 32 32 31 29 24 27 17 22 23 27 28 30 32 39 39 38 38 39 45 50 52 53 50 47 46 41 39 36 32 28 24 24 23 23 23 23 22 21 20 19 18 18 15 16 16 17 17 14
28 31 31 31 30 30 28 25 23 24 24 28 34 36 37 39 38 38 39 43 51 53 50 47 46 45 40 40 36 31 27 28 24 22 20 19 20 20 19 17 17 16 16 15 14 14 13 16 15
32 30 30 30 28 22 24 25 19 19 20 24 27 32 35 38 38 38 42 49 51 52 48 47 47 42 40 38 33 32 29 25 21 20 19 18 18 17 16 16 14 14 14 13 13 14 13 14 14
30 30 22 22 21 18 22 23 20 23 25 27 30 31 32 36 38 41 45 48 51 51 48 47 46 42 38 37 34 32 28 23 21 20 19 17 15 15 14 12 11 11 12 13 13 14 13 14 13
29 27 21 13 18 18 21 18 22 27 27 25 25 33 35 35 38 42 46 49 50 50 48 47 45 41 38 36 35 33 28 25 23 22 19 17 15 14 13 11 10 10 11 12 13 15 14 14 14
31 27 27 22 20 21 21 23 27 29 26 24 27 29 31 35 39 43 46 49 48 49 47 46 44 40 38 36 34 31 28 25 23 21 17 15 14 12 10 10 10 11 12 13 13 14 14 15 15
32 32 26 26 16 14 16 18 19 21 29 31 30 27 34 36 39 44 46 45 45 45 43 43 41 39 36 33 30 27 25 22 18 15 14 12 10 10 9 10 11 12 13 13 14 14 15 14 15
30 28 30 26 25 14 12 12 21 22 32 31 32 31 34 36 39 44 43 42 41 40 39 38 36 33 30 26 22 19 17 15 13 11 10 9 9 9 10 12 12 13 13 14 14 14 14 16 16
28 27 27 22 18 21 18 15 28 35 34 32 34 34 36 38 42 42 40 39 38 37 35 33 30 27 23 19 16 14 13 11 9 9 9 10 10 11 12 12 13 14 14 14 13 14 17 17 17

GFSSGP_sfc_30mbdewp_009.txt.gz
Dewpoint
59 54 42 37 30 29 27 25 30 27 29 31 29 32 33 34 37 36 58 61 62 64 68 70 70 70 68 66 65 64 63 61 59 61 60 58 59 59 60 60 59 59 58 58 56 57 57 58 60
56 49 40 36 28 25 25 27 26 29 30 29 32 34 34 37 49 52 56 61 64 66 68 70 71 70 68 66 66 64 62 62 59 59 59 58 58 61 58 59 58 57 59 58 57 58 59 57 57
49 42 37 32 30 25 25 26 28 31 30 28 32 38 37 41 52 53 57 62 66 66 68 70 71 70 69 67 66 64 63 61 59 59 59 59 59 61 59 58 57 58 60 59 58 59 60 61 61
47 43 38 31 28 30 29 26 30 31 32 31 32 33 42 46 51 54 61 66 67 67 70 71 71 70 69 68 66 65 63 61 59 59 61 61 62 62 62 59 60 61 61 59 59 60 60 60 61
45 42 34 33 30 31 32 32 32 31 31 30 32 32 39 46 56 59 64 67 66 68 70 70 71 70 70 68 67 66 64 62 60 60 60 61 63 64 64 63 62 62 61 60 60 62 62 62 62
43 40 34 31 31 33 33 33 33 32 31 30 31 33 38 46 55 63 66 66 68 69 70 70 71 71 70 69 68 66 64 63 60 59 59 61 63 63 65 64 63 63 62 63 62 63 63 62 62
42 39 34 33 32 32 32 34 32 31 29 28 34 32 36 41 55 63 65 66 67 69 69 70 69 70 70 69 68 67 65 63 61 60 61 62 64 62 65 65 64 64 64 63 64 64 63 64 64
45 41 37 36 32 32 34 34 34 30 29 31 35 32 32 40 55 61 64 65 66 68 69 70 70 70 69 68 68 67 65 65 62 63 63 63 63 63 64 66 65 64 64 64 64 65 65 65 64
46 42 38 36 35 34 36 35 36 35 32 34 35 34 37 45 56 57 60 64 65 66 68 68 69 70 70 68 67 67 66 65 64 64 63 63 61 60 61 62 63 63 64 64 64 64 60 58 54
46 43 40 41 38 36 37 37 37 37 36 36 36 37 38 48 54 55 56 59 64 65 66 69 68 69 69 68 67 67 66 65 65 64 64 62 60 58 59 60 62 63 62 63 59 52 47 44 42
45 40 42 42 41 41 41 41 40 37 37 37 37 36 37 43 51 54 55 57 60 64 65 66 67 67 68 68 68 67 67 66 65 64 63 61 60 60 60 60 60 61 61 52 45 41 38 36 34
42 44 45 43 44 44 43 44 43 40 40 40 36 39 38 39 40 51 54 55 58 63 65 66 67 67 68 68 67 66 66 66 65 64 62 62 59 60 60 61 59 55 45 42 37 35 31 28 26
43 43 44 44 44 44 45 44 44 45 44 43 45 44 42 40 38 42 52 54 56 58 64 66 67 67 67 67 67 66 65 65 64 63 62 61 59 61 58 47 44 41 38 33 31 31 26 23 23
41 42 42 42 42 43 42 42 43 41 44 45 43 42 40 39 39 39 39 42 49 54 57 63 67 66 67 67 65 65 64 64 63 62 62 61 61 56 46 42 39 37 31 28 27 27 26 21 21
42 39 39 39 40 40 42 41 41 42 43 41 42 42 42 41 40 39 39 39 39 41 43 56 63 67 67 66 65 64 64 63 62 62 61 61 52 45 42 36 32 30 29 25 24 24 27 20 18
39 38 34 36 39 40 39 31 37 39 40 41 41 41 41 41 41 41 40 39 40 40 42 48 59 65 66 65 64 64 63 61 60 59 56 46 43 41 36 32 29 28 26 25 24 22 23 22 20
36 29 33 34 37 37 39 36 37 39 40 39 39 40 40 40 40 40 39 39 39 40 45 54 61 63 64 63 62 60 57 55 52 49 44 40 38 35 31 29 28 26 23 22 21 20 23 21 20
27 32 32 31 34 36 35 35 37 39 39 38 38 39 40 40 40 40 40 39 40 44 50 58 62 63 61 58 51 48 45 42 42 40 36 34 34 31 28 27 25 23 22 19 19 18 21 22 22
34 33 32 34 34 33 32 32 32 34 35 34 35 36 37 39 40 41 40 40 43 50 54 61 62 59 56 53 49 46 43 38 35 32 30 30 30 29 28 25 23 22 20 19 17 20 18 18 23
34 32 31 31 33 32 31 29 30 31 31 32 33 35 37 40 41 40 40 41 45 50 57 60 60 55 55 53 51 47 39 33 31 30 28 28 29 27 26 24 22 21 19 18 18 19 17 18 23
30 30 29 28 30 31 28 23 20 19 21 28 31 32 34 34 36 38 39 41 47 51 56 59 55 54 53 47 41 33 29 28 27 27 27 27 26 25 23 22 21 21 21 19 19 19 18 15 19
28 31 32 31 29 24 27 18 18 21 22 23 26 28 31 34 36 37 39 40 45 51 56 55 52 52 46 44 41 40 38 32 26 25 26 25 24 23 22 21 20 19 19 18 16 17 18 18 15
29 30 29 31 30 29 26 24 22 24 23 23 25 28 31 33 36 37 39 40 44 51 53 52 50 48 44 44 42 38 33 28 25 24 23 22 22 21 20 19 19 18 17 17 16 17 17 17 16
32 31 30 30 30 22 22 24 19 19 20 21 24 26 31 35 37 39 39 42 48 52 50 50 48 46 43 42 39 35 30 25 23 22 21 19 19 19 18 17 17 16 16 16 17 18 17 17 16
31 30 22 21 21 18 21 24 20 21 22 23 22 26 30 33 36 38 41 45 49 51 49 49 48 44 42 40 36 33 28 24 23 22 20 18 17 17 16 15 13 14 16 17 18 17 17 17 16
29 28 22 15 15 16 23 21 22 25 25 25 26 26 26 32 34 38 42 46 49 51 49 48 46 42 40 37 35 31 26 24 23 22 20 18 17 16 14 13 13 13 14 15 16 17 17 17 17
31 27 28 25 25 21 21 21 23 24 24 30 32 32 32 30 34 37 43 47 50 50 49 48 46 42 39 38 34 28 26 24 24 22 20 18 16 13 13 13 13 14 15 15 15 16 15 16 17
32 33 25 26 17 15 16 18 18 18 20 31 32 33 34 33 34 37 44 48 50 50 48 47 44 41 39 36 32 28 26 24 22 19 16 15 13 11 12 12 13 14 15 15 15 15 16 16 17
30 28 29 29 26 18 13 11 18 17 27 31 32 33 36 37 36 39 45 47 48 47 46 44 41 38 35 31 28 25 23 20 17 15 13 11 11 11 12 13 13 14 14 15 14 14 16 18 18
29 27 27 23 20 23 19 17 19 25 35 31 32 35 38 40 38 43 44 43 44 44 42 41 36 34 29 25 23 21 17 15 13 11 11 11 11 13 13 14 14 14 14 14 12 15 18 18 18

GFSSGP_sfc_30mbdewp_012.txt.gz
Dewpoint
54 49 45 39 30 28 24 23 25 27 30 31 29 31 34 34 38 35 58 60 60 61 66 69 70 69 68 66 65 64 63 61 61 61 59 58 60 60 61 61 59 58 58 57 57 57 57 58 59
51 45 42 35 27 24 21 26 24 28 31 29 31 33 33 34 42 49 53 61 61 62 66 66 71 69 68 66 65 64 64 60 61 61 59 58 59 60 58 59 60 58 59 58 58 59 60 59 58
49 42 36 32 28 24 23 27 24 31 31 28 33 37 37 38 50 50 57 60 61 63 66 66 71 70 68 67 66 64 63 61 59 59 59 59 60 59 61 58 58 59 60 58 59 60 60 60 61
45 41 37 29 25 27 27 27 30 31 31 31 31 32 39 45 50 53 58 62 61 62 65 71 71 70 69 68 66 64 62 61 60 60 61 61 62 62 59 57 60 61 61 60 60 60 61 62 62
45 39 30 29 26 27 30 30 31 30 31 30 31 31 35 46 53 55 60 62 60 62 65 69 71 70 69 68 67 66 63 61 60 60 61 61 63 64 64 63 62 62 61 61 61 62 62 62 62
38 36 28 25 25 29 31 31 31 30 30 30 30 29 33 46 53 58 61 61 62 63 65 66 71 71 70 69 67 66 64 62 60 61 60 61 63 63 65 63 63 63 62 63 63 63 63 63 64
35 33 25 25 25 27 30 32 31 29 29 29 31 29 34 40 55 61 61 61 63 63 65 65 67 68 70 69 68 67 64 63 61 59 60 63 64 63 66 65 64 63 64 63 64 64 65 65 65
42 35 28 29 26 27 30 33 32 31 29 30 34 29 31 41 55 60 61 61 62 63 64 64 64 65 67 67 68 67 65 64 62 63 64 64 63 62 66 66 65 64 64 64 65 65 63 63 61
47 34 28 29 30 28 34 32 34 34 32 34 34 34 37 44 55 58 59 61 61 63 64 64 64 65 67 65 66 67 66 64 63 63 63 61 57 57 58 62 63 64 64 64 63 58 54 52 50
40 34 29 31 33 32 33 34 34 35 33 34 35 37 38 44 50 53 55 57 59 61 62 65 65 66 66 65 65 63 61 62 61 61 61 59 57 54 57 60 62 62 62 59 54 48 44 43 44
40 35 33 39 39 38 36 37 38 35 33 34 35 36 38 40 43 48 50 51 56 59 62 64 66 67 67 65 64 63 61 62 62 61 61 57 56 57 57 58 59 61 60 53 49 45 41 38 35
37 38 38 38 41 43 41 41 40 37 34 35 38 38 41 42 41 39 47 50 54 58 61 63 66 68 68 66 65 63 61 62 62 62 61 58 56 58 58 59 60 57 50 47 43 40 34 29 26
40 37 40 40 43 42 41 39 40 38 39 41 42 43 43 43 42 40 41 47 52 56 60 63 65 67 67 67 65 63 62 62 61 62 60 58 58 59 59 51 48 45 42 39 37 32 26 23 22
38 40 40 40 39 39 39 37 37 38 39 38 39 40 41 41 41 40 40 41 47 52 55 61 64 66 67 68 66 64 62 61 62 61 59 60 59 60 51 44 42 40 35 29 26 25 24 21 19
40 38 36 35 35 36 39 36 35 36 36 35 36 36 37 38 40 41 41 40 40 42 47 53 61 65 66 67 66 64 62 62 62 61 60 60 59 52 45 38 35 32 27 25 24 23 24 21 19
36 36 31 33 37 35 35 28 30 38 37 37 36 35 34 36 36 38 40 41 41 41 41 42 51 61 66 67 65 64 63 62 62 61 61 58 51 45 39 35 32 27 26 25 23 20 22 21 20
32 25 30 30 34 35 35 31 34 35 38 36 35 36 37 37 36 36 38 39 41 41 40 43 47 53 60 63 65 64 63 63 61 60 55 49 44 38 32 31 28 26 24 23 19 20 20 20 20
25 29 28 27 30 34 32 31 33 35 34 34 34 36 37 38 39 38 38 39 41 41 41 43 50 54 59 63 64 64 61 57 55 52 47 42 38 34 31 28 26 24 23 20 19 19 20 20 19
31 29 28 30 33 32 30 29 29 31 31 31 32 33 33 35 38 40 41 42 42 42 44 47 53 58 61 62 59 56 53 49 46 40 38 35 32 30 29 27 25 23 21 19 17 19 18 19 18
31 29 28 28 29 30 28 27 28 28 27 28 29 29 31 32 34 37 39 40 41 42 47 50 55 59 60 60 60 58 52 47 43 34 32 31 30 30 29 26 24 22 21 20 19 20 18 18 18
30 29 28 27 28 29 28 25 20 20 21 22 24 25 25 26 30 33 35 38 41 43 47 53 57 59 59 60 57 52 43 38 31 30 30 29 28 26 26 25 23 23 22 21 20 19 17 16 18
27 28 28 28 27 23 25 18 18 19 20 21 22 24 26 27 28 30 33 34 38 43 48 56 59 57 59 57 50 46 47 44 34 29 28 27 25 24 23 22 21 21 20 20 16 17 17 16 15
28 30 28 28 27 26 24 26 18 21 20 21 22 22 23 25 27 30 31 33 37 42 51 58 58 57 57 52 50 52 48 44 30 28 26 25 24 23 22 21 20 19 18 18 17 18 16 16 15
31 29 29 27 26 23 21 20 18 16 17 19 21 22 22 26 30 31 36 35 36 43 52 57 56 56 53 52 52 51 44 31 27 26 24 23 22 21 20 19 19 18 17 18 18 19 19 17 16
30 28 20 19 21 16 14 16 18 18 20 20 19 20 24 26 28 30 34 38 40 47 52 55 55 53 51 49 48 43 37 30 26 25 24 22 21 20 19 17 16 16 18 18 18 18 18 17 16
28 26 19 11 7 11 15 17 14 17 21 22 23 26 31 33 33 29 33 38 41 48 51 53 54 51 50 48 43 37 31 31 26 26 25 22 21 19 18 16 14 14 15 16 17 17 17 16 16
28 27 27 23 21 21 17 18 19 19 22 21 23 31 32 33 35 34 34 40 43 47 50 51 53 51 49 45 40 35 32 30 27 25 24 22 20 17 15 15 14 14 14 15 16 15 14 15 17
30 29 25 27 16 12 11 15 14 12 16 20 28 29 29 31 33 36 35 40 45 48 49 50 50 49 46 41 36 30 30 28 26 24 22 20 17 14 14 14 14 14 14 15 15 14 15 15 16
29 29 30 27 24 16 14 10 12 14 17 15 26 28 29 34 36 38 36 40 46 49 50 49 48 46 43 38 31 29 27 25 23 22 20 17 14 14 13 13 13 13 14 14 13 13 15 17 18
25 25 26 24 21 26 22 18 17 17 22 32 28 26 33 38 38 40 40 44 48 49 49 48 46 44 40 32 31 27 25 22 21 18 16 14 13 13 12 12 13 14 13 13 11 13 16 18 18

GFSSGP_sfc_30mbdewp_015.txt.gz
Dewpoint
57 46 42 39 31 29 24 23 23 24 24 27 30 29 32 34 35 36 55 58 57 63 67 69 70 68 67 66 65 64 63 61 63 61 61 63 62 62 61 60 59 59 58 57 58 59 58 58 58
50 43 40 35 29 23 23 24 23 19 27 30 29 30 31 33 39 51 54 58 57 62 66 66 70 69 67 66 65 64 61 62 62 60 58 59 60 59 59 59 59 60 58 58 58 60 60 60 61
50 42 35 32 28 24 22 25 25 26 29 29 30 33 34 37 46 49 55 57 57 61 64 67 70 70 68 67 65 65 62 60 62 59 59 59 61 59 60 58 59 61 59 59 60 61 61 61 61
43 39 34 30 26 25 24 25 25 28 27 31 32 30 37 43 48 51 56 57 57 61 63 69 70 69 68 67 65 64 63 60 60 60 61 62 62 61 60 59 60 62 60 60 61 62 62 62 62
43 35 31 27 25 24 25 27 28 27 27 28 30 30 34 45 51 54 57 56 56 60 66 68 70 70 69 67 66 64 62 61 61 61 61 63 63 65 63 62 62 62 61 61 62 63 63 63 63
35 33 27 23 23 25 25 28 27 27 27 27 28 30 33 46 50 55 57 56 56 59 63 68 70 70 69 68 67 65 63 61 61 61 60 63 63 65 64 63 63 62 63 63 63 64 64 64 65
36 31 25 24 23 22 23 29 28 27 26 26 27 29 34 40 54 57 57 57 57 59 61 67 68 69 69 69 68 66 64 63 61 61 60 64 63 65 65 64 64 64 64 64 64 66 66 65 64
39 33 28 27 22 22 24 27 30 28 27 30 31 28 29 46 54 56 56 57 58 58 61 62 65 67 67 67 68 67 65 64 62 62 65 64 62 64 66 65 65 64 64 64 65 63 63 60 57
43 36 29 28 24 24 26 27 31 30 28 29 30 31 38 44 52 54 55 57 57 59 60 60 61 62 65 66 66 67 66 64 63 63 63 61 57 58 59 61 63 64 64 64 60 55 51 52 49
39 32 28 26 26 26 28 31 30 32 30 27 32 33 37 42 46 51 53 54 56 58 59 60 60 61 65 65 65 63 62 61 58 59 60 57 55 54 57 61 63 63 63 59 54 48 44 46 45
37 33 29 29 35 36 33 31 32 32 32 30 29 32 35 38 41 45 47 49 53 56 58 60 62 62 63 62 65 61 60 61 59 59 59 55 53 54 57 59 59 61 61 55 52 48 44 40 35
34 33 33 33 35 38 36 34 32 33 33 32 32 34 37 38 38 39 42 45 48 54 57 60 63 64 64 64 63 62 59 59 60 59 59 55 54 56 55 55 58 58 54 51 47 44 38 31 26
36 35 31 34 37 37 38 37 36 36 38 36 36 37 39 39 38 39 39 42 46 51 55 59 62 66 66 64 64 61 59 59 59 59 59 56 54 56 56 56 53 50 46 44 41 36 29 26 24
36 36 36 37 37 37 37 35 34 34 35 36 36 37 38 39 39 39 40 39 42 48 53 57 61 64 66 65 65 63 60 59 59 61 60 56 56 57 55 51 48 45 40 34 29 27 27 25 23
39 37 36 35 35 35 36 34 34 35 34 33 33 34 34 35 37 38 39 39 40 41 48 53 58 62 64 66 66 63 62 59 60 62 59 57 58 57 52 45 42 39 32 28 28 26 25 24 22
35 34 31 31 33 32 33 28 28 32 33 34 33 32 32 32 33 35 37 39 40 40 40 46 53 59 62 65 66 65 62 60 62 61 59 59 58 54 48 42 38 32 30 29 26 23 23 23 23
31 27 28 29 31 32 33 31 30 34 32 32 33 33 34 34 33 33 34 37 39 40 41 41 44 52 60 65 66 65 63 61 62 61 61 59 52 45 39 37 34 30 28 26 21 23 23 23 22
25 28 27 25 26 31 30 29 29 30 31 33 33 32 33 33 34 35 34 34 37 39 40 41 43 45 53 61 64 65 63 63 62 61 57 52 45 37 37 35 30 29 27 24 23 23 23 22 21
29 27 25 25 27 29 27 27 26 26 27 28 29 30 31 31 32 36 38 37 35 38 40 41 42 47 50 57 63 64 62 61 59 54 50 45 39 38 36 32 29 27 26 24 22 23 23 23 21
29 27 26 26 26 27 26 25 26 25 25 25 26 27 28 28 30 32 35 39 39 40 42 42 44 48 53 60 63 63 60 57 52 46 40 35 33 34 33 31 29 27 26 25 25 25 23 22 21
28 28 27 26 26 27 26 24 22 22 24 23 24 25 26 26 27 28 31 34 40 40 41 42 46 51 56 61 61 59 54 46 43 40 36 32 32 32 32 30 28 28 28 27 25 24 21 22 21
27 27 26 26 26 23 25 18 16 14 15 19 21 22 22 22 24 25 26 30 35 40 43 44 48 53 57 60 59 56 50 46 44 38 32 29 29 30 29 28 28 27 26 25 21 21 21 20 20
27 29 28 27 26 24 21 22 18 13 11 13 16 21 23 24 24 24 26 29 32 37 44 47 50 55 57 59 59 55 50 51 42 32 28 27 27 27 27 26 26 25 24 22 22 22 19 19 18
30 28 27 26 26 22 20 18 16 12 8 12 13 18 21 22 23 27 28 28 31 36 44 50 53 55 57 58 56 51 53 44 35 29 27 26 26 26 25 24 25 23 23 23 22 22 21 19 18
29 27 21 22 22 17 13 13 15 13 14 14 16 18 19 21 25 26 28 30 34 36 42 51 55 55 57 57 53 53 52 40 35 30 27 25 25 24 24 23 22 22 22 22 21 21 20 19 18
27 26 19 11 7 10 14 11 12 16 14 17 17 19 21 24 31 34 35 28 34 40 44 50 54 55 56 54 54 54 44 40 35 30 26 25 25 24 23 21 20 20 19 19 19 20 20 18 19
27 26 27 23 20 18 15 14 15 15 15 16 18 19 19 26 31 33 36 35 32 39 43 50 53 55 54 53 52 45 40 34 31 28 26 26 25 23 21 20 18 17 17 17 17 17 16 17 18
28 28 25 26 17 11 10 10 11 12 13 14 16 18 20 28 29 32 36 37 35 40 45 49 52 53 53 50 42 38 35 31 30 28 27 25 23 20 19 18 18 17 16 16 16 17 16 16 17
28 27 30 25 25 19 16 13 14 14 16 18 16 18 26 27 32 35 37 38 37 42 46 49 51 51 51 44 37 35 33 32 28 26 24 22 19 19 17 17 16 15 15 15 14 14 15 16 18
25 26 25 25 20 25 23 21 20 18 18 19 20 27 24 24 32 36 38 40 40 45 48 49 51 50 47 40 34 32 30 27 26 23 21 19 18 17 16 15 15 15 14 13 12 12 14 16 17

GFSSGP_sfc_30mbdewp_018.txt.gz
Dewpoint
61 53 45 42 36 32 28 27 25 23 24 25 30 29 29 30 38 46 57 58 65 68 70 70 69 68 67 65 65 64 62 63 65 65 65 65 64 64 60 59 59 58 58 59 59 60 60 60 61
58 50 42 39 32 29 26 28 25 23 26 30 29 28 28 32 51 53 57 57 65 68 68 69 69 69 67 66 65 63 61 63 61 59 60 60 60 60 60 60 60 58 58 58 60 60 60 60 61
56 48 38 35 33 28 26 26 26 26 28 27 28 29 30 41 48 54 58 57 63 66 66 69 70 69 67 66 65 62 62 63 62 60 60 61 60 60 59 60 61 59 59 60 61 62 62 62 62
45 42 38 30 28 29 28 27 26 27 27 28 30 30 36 45 49 55 57 57 61 65 67 70 70 69 68 67 65 64 60 62 60 62 62 62 61 60 60 60 62 61 60 61 62 63 63 63 62
44 40 34 29 28 28 27 25 27 27 27 28 30 29 39 49 53 55 56 56 60 65 68 70 70 69 69 67 65 64 61 60 61 62 63 64 64 64 60 62 63 62 62 62 63 64 64 63 64
38 36 30 29 29 28 26 25 27 28 28 27 27 28 39 50 52 55 56 55 60 67 67 69 70 70 69 68 67 65 62 61 61 61 62 64 63 65 64 63 63 63 63 63 64 64 65 66 66
39 35 30 28 26 25 24 26 27 28 27 27 27 26 36 51 55 57 56 55 58 65 68 68 68 69 69 68 67 65 64 63 62 62 62 64 65 66 65 64 64 64 63 64 66 65 65 64 63
40 38 34 30 27 25 25 24 29 29 28 29 31 27 36 53 56 56 56 56 57 61 67 67 68 68 68 69 68 66 65 64 63 63 65 63 64 67 66 65 65 64 64 65 64 63 61 59 55
40 38 33 32 28 28 26 25 29 30 29 28 30 30 41 51 54 55 55 57 57 59 62 66 67 67 67 67 67 66 66 64 63 64 64 63 61 64 65 64 64 65 64 63 59 55 52 52 50
39 39 37 34 30 28 32 27 29 29 29 29 29 32 40 43 49 54 55 56 57 58 59 61 65 66 65 66 66 65 65 63 62 62 62 61 58 59 61 62 64 64 63 60 55 49 45 46 43
38 36 33 31 28 32 36 35 32 30 31 32 28 31 36 38 43 47 51 54 55 58 59 60 61 63 65 65 65 63 62 61 59 60 60 58 56 58 60 60 62 62 60 55 51 48 42 37 32
35 35 35 34 33 35 36 37 34 33 31 33 34 34 35 38 38 42 44 46 53 56 58 60 61 63 65 64 64 62 61 62 60 60 59 53 55 54 57 59 60 61 59 50 46 42 35 29 26
33 34 33 33 33 34 37 37 37 37 37 36 36 36 36 38 39 39 40 42 45 54 57 60 62 64 64 64 64 62 60 61 60 60 59 55 57 57 56 58 55 51 45 43 38 31 29 27 25
35 36 36 36 34 36 35 35 36 35 35 36 37 37 37 38 40 40 40 40 40 48 55 60 62 65 66 65 64 63 61 60 60 60 60 57 57 57 54 51 50 44 38 32 29 27 28 26 24
38 37 37 36 36 35 36 34 35 36 36 34 33 34 36 36 38 39 40 40 40 42 52 56 61 65 65 64 65 63 62 60 61 61 60 57 58 55 51 48 45 37 31 30 28 26 27 25 25
37 37 34 31 34 34 34 30 31 33 35 34 34 33 33 34 35 36 37 39 40 40 45 54 58 63 65 64 65 64 62 61 62 61 60 58 56 51 47 44 39 33 32 30 26 25 27 26 25
33 29 30 30 33 32 31 30 32 33 32 32 34 33 33 32 32 32 34 35 37 40 40 48 57 60 63 65 65 64 65 62 62 61 60 59 54 50 46 41 34 32 30 27 25 25 25 23 23
28 29 28 27 29 31 30 31 31 31 30 31 33 34 34 33 34 35 33 34 35 37 40 41 48 57 61 65 65 66 65 63 62 61 60 53 48 42 38 36 32 31 28 26 26 26 26 24 22
30 29 28 27 27 26 25 26 27 28 27 27 29 30 31 32 32 33 36 36 37 35 37 42 43 46 56 64 64 64 63 62 62 58 54 48 42 39 38 33 31 30 27 25 25 25 25 23 22
30 29 28 27 27 26 26 26 27 27 27 27 26 26 27 29 30 31 32 36 38 39 37 40 43 45 47 59 63 64 63 61 56 52 48 44 40 39 35 32 30 28 27 27 26 26 25 24 22
30 29 28 26 27 27 26 24 24 24 26 26 27 26 26 26 27 28 29 32 37 39 40 42 43 46 48 53 64 60 55 50 47 43 38 36 36 34 34 32 30 30 30 28 26 24 24 23 22
28 28 27 26 26 23 26 21 21 19 17 22 22 24 24 24 25 27 27 28 32 39 40 42 44 45 51 63 61 57 56 50 46 42 39 33 33 33 32 31 30 30 29 26 24 23 22 24 20
27 30 28 27 26 25 24 23 21 18 16 13 15 20 22 24 25 25 25 26 27 29 41 42 44 48 56 62 60 56 52 50 42 38 35 31 31 31 30 30 29 28 26 21 23 23 21 20 20
30 28 28 27 26 21 22 20 10 15 16 14 14 16 18 20 23 26 27 30 31 30 33 46 45 49 57 61 59 56 52 48 37 35 32 29 29 29 28 28 27 26 25 24 24 23 22 20 20
29 26 23 23 22 14 18 17 14 15 16 16 16 16 18 18 23 27 34 36 35 32 34 43 47 51 57 59 59 55 52 42 37 34 31 28 27 28 28 27 26 25 26 25 24 23 22 21 20
28 27 22 16 17 18 19 16 16 16 16 16 17 17 18 20 22 32 34 36 37 36 37 45 50 54 56 59 56 52 45 39 37 35 31 27 26 26 27 25 25 23 23 22 23 22 21 20 21
28 26 27 24 21 19 17 15 16 17 16 17 16 16 18 20 27 31 34 36 38 38 40 45 53 55 56 58 53 49 42 39 36 35 29 27 26 25 24 23 21 20 20 20 19 20 19 18 19
28 28 25 25 17 15 14 14 14 16 15 16 19 17 19 21 28 31 34 37 39 39 39 49 53 55 56 55 52 43 40 37 34 30 27 26 24 24 22 20 19 18 18 17 18 18 17 16 18
28 27 27 26 26 21 17 15 18 19 20 19 20 21 26 29 30 34 35 38 40 39 41 46 52 54 54 43 41 39 36 33 29 28 26 24 22 21 20 19 18 17 17 16 16 15 16 16 18
28 27 26 23 20 23 22 21 23 23 21 22 19 19 21 27 28 32 35 38 40 41 43 48 50 54 42 38 37 33 33 30 28 25 23 21 20 19 19 18 17 16 15 14 13 13 14 15 17

GFSSGP_sfc_30mbdewp_021.txt.gz
Dewpoint
61 58 53 44 35 35 30 29 32 24 24 29 29 28 28 32 34 42 58 64 69 70 70 69 69 68 66 66 64 63 62 63 63 65 67 66 64 61 60 59 58 58 59 60 61 61 62 62 61
60 54 45 39 34 31 30 30 29 24 28 27 27 27 27 46 52 56 61 68 69 69 69 69 69 68 66 65 64 62 65 62 64 65 64 63 63 61 60 60 58 58 59 60 60 60 60 61 61
58 54 41 36 34 29 29 29 28 27 28 27 27 29 29 47 54 56 59 67 69 69 69 69 69 68 67 65 63 63 64 61 61 62 61 61 60 60 61 62 59 59 60 61 62 62 62 62 62
50 44 40 32 30 32 30 28 27 27 27 27 29 29 42 50 53 57 60 68 68 68 68 70 69 69 68 66 64 63 63 61 61 61 62 61 60 60 61 62 61 61 62 62 63 63 63 63 63
48 42 35 32 28 30 30 30 28 27 27 27 29 29 44 54 56 57 59 66 66 67 69 70 70 69 68 67 66 62 63 61 63 64 63 62 62 61 61 63 62 62 62 63 64 64 64 64 65
40 39 33 32 32 31 29 29 27 28 28 28 28 27 41 54 55 55 56 63 67 68 69 69 70 70 68 67 67 64 63 63 62 63 64 64 64 63 64 63 63 64 62 64 65 65 66 66 65
38 35 30 30 29 29 29 29 27 28 27 27 28 26 47 52 56 56 55 66 67 68 68 69 69 69 69 67 66 65 64 63 63 63 65 64 67 65 65 64 64 64 63 65 66 65 65 64 61
40 39 35 33 30 28 29 27 27 28 28 29 30 27 51 54 56 56 55 65 67 67 68 68 69 69 68 68 67 65 64 64 64 64 65 63 67 66 66 65 65 64 65 65 64 64 62 59 54
41 37 35 35 34 32 31 31 29 30 29 29 30 33 50 55 56 56 56 57 66 67 67 68 68 68 68 68 67 66 65 64 64 65 64 62 66 66 66 65 65 65 65 63 61 58 55 52 50
38 37 37 37 35 32 32 35 35 29 29 29 29 42 48 52 54 55 56 56 59 65 66 67 68 67 67 67 67 66 65 64 64 64 63 62 61 64 64 64 64 65 64 61 57 51 47 44 41
38 37 38 39 35 34 36 35 37 34 29 30 29 32 42 47 51 54 56 56 56 60 66 67 67 67 67 66 66 65 64 63 62 62 62 61 59 61 61 63 63 64 61 59 54 48 40 34 29
36 37 37 36 36 35 34 38 37 37 34 37 35 35 35 37 46 50 54 55 57 58 59 63 66 66 66 66 64 64 63 61 60 60 61 57 58 59 59 60 61 61 60 55 50 41 30 26 25
34 35 36 36 35 35 35 35 36 37 37 38 38 38 37 36 39 41 45 46 54 57 59 60 64 64 65 65 63 63 62 61 59 59 60 55 55 55 58 59 60 58 50 42 32 29 28 26 23
35 35 36 37 37 37 35 35 35 36 36 36 35 35 36 37 38 39 40 40 42 56 58 60 62 64 65 65 64 62 61 62 61 60 59 54 56 56 56 55 51 42 34 30 28 27 27 26 24
39 36 37 37 38 37 36 35 35 36 37 37 37 35 34 35 37 37 40 40 41 46 58 60 61 65 64 64 64 62 62 61 61 60 58 56 57 56 51 47 41 34 30 29 26 27 26 26 25
36 37 34 35 35 37 36 31 34 36 36 36 36 36 35 35 35 36 37 38 39 40 52 60 62 64 65 64 64 63 63 61 61 60 60 57 56 52 49 44 36 33 31 27 25 26 26 25 23
35 31 32 33 33 34 35 32 33 34 33 32 34 35 35 35 34 34 36 37 37 38 40 57 62 64 64 65 65 64 63 62 62 61 59 56 53 49 47 40 34 31 28 26 25 25 25 23 22
29 30 29 28 30 31 31 32 32 33 31 30 31 33 34 34 34 34 34 34 36 37 39 46 60 64 65 64 64 64 64 63 62 61 59 54 51 47 44 35 32 30 26 26 26 25 25 23 21
33 30 29 30 29 27 26 27 27 27 28 28 28 29 30 31 34 34 34 35 33 34 35 39 54 62 64 64 64 63 62 63 62 61 56 50 46 43 38 33 30 28 26 25 25 26 23 21 22
32 30 29 29 28 27 27 26 27 28 28 28 28 28 28 30 31 32 32 33 34 36 36 36 45 59 63 64 64 63 64 62 60 55 50 46 43 39 35 32 30 28 26 26 26 26 25 23 21
30 29 29 28 28 27 25 22 23 25 26 27 27 27 28 27 27 28 29 30 31 33 37 39 40 48 62 64 64 60 56 53 51 50 47 44 42 37 33 32 29 28 28 26 24 25 25 23 21
28 29 28 27 26 23 26 19 23 20 20 21 26 27 27 27 27 27 27 28 28 30 36 39 41 44 49 63 63 61 60 57 52 48 44 42 39 35 32 30 30 30 29 26 24 24 23 24 20
28 29 28 27 26 25 24 21 21 22 19 18 18 23 25 27 27 26 26 28 28 28 30 35 41 44 47 62 61 61 59 53 46 43 39 37 35 33 31 31 30 29 27 24 22 21 20 21 21
29 28 27 27 25 19 21 19 14 15 16 16 15 15 18 21 23 25 27 31 32 32 31 34 40 43 53 61 60 60 56 47 44 42 38 34 33 32 31 30 29 27 23 24 23 22 20 20 20
28 25 20 19 20 14 21 21 17 16 16 16 16 16 16 20 19 25 33 34 36 37 37 36 40 42 57 61 59 56 52 46 45 42 39 33 32 32 30 29 27 25 26 25 24 23 21 21 20
29 25 19 13 18 19 21 18 18 19 19 18 17 17 17 17 19 26 33 36 37 37 38 39 40 44 57 60 58 54 50 46 44 42 38 35 32 30 30 28 26 26 25 25 24 23 22 20 21
28 26 27 24 22 19 18 17 17 17 17 17 18 19 21 19 19 29 35 36 36 36 36 39 41 47 56 60 58 53 45 43 41 39 35 33 30 31 27 26 25 24 23 23 22 21 17 18 20
27 28 23 24 14 14 17 16 14 15 17 21 20 20 27 27 23 32 35 37 38 38 39 40 42 50 56 57 55 47 43 42 39 34 32 31 29 26 26 24 22 21 20 20 20 18 18 17 19
28 27 27 25 25 19 18 17 18 19 21 21 21 22 24 27 29 34 35 38 38 38 39 41 45 52 56 52 46 44 41 38 35 33 31 31 27 25 24 24 23 20 18 17 18 18 17 16 17
29 27 26 21 18 23 22 20 22 22 23 24 26 27 28 29 32 30 33 37 38 38 38 41 46 54 49 45 43 41 38 36 34 31 29 26 25 24 23 21 19 17 17 15 15 14 15 15 17

GFSSGP_sfc_30mbdewp_024.txt.gz
Dewpoint
60 56 53 42 33 34 30 30 34 31 25 29 29 27 29 38 33 37 59 67 69 70 70 69 69 68 67 65 64 64 65 67 68 67 66 65 64 62 60 58 58 59 60 61 62 63 63 62 61
60 52 43 40 33 29 27 32 29 29 28 28 27 28 29 46 53 60 62 69 69 69 69 69 69 68 66 65 64 63 64 64 65 67 66 65 62 60 58 58 58 59 60 60 61 61 61 61 61
57 53 40 36 34 28 26 31 28 27 28 26 26 30 36 44 54 59 65 69 69 69 69 69 69 68 66 65 63 65 64 65 66 65 64 63 61 60 60 58 59 60 61 61 61 61 61 61 62
48 45 40 34 33 33 30 29 30 30 27 27 30 29 44 51 55 58 68 69 68 68 68 69 69 68 67 65 64 64 61 62 62 63 62 62 61 61 62 60 60 61 62 62 63 62 63 63 63
47 41 35 33 30 32 32 32 32 29 27 27 30 29 43 54 56 66 68 68 68 68 69 70 69 68 67 65 66 65 62 62 62 62 61 61 61 62 63 62 61 62 63 63 64 64 64 65 65
42 40 35 27 30 31 30 30 28 28 28 27 28 28 45 54 57 65 68 67 67 68 69 69 69 69 68 66 65 65 64 63 63 63 62 62 62 62 64 63 63 63 63 64 64 65 66 66 65
39 36 34 31 31 31 31 31 28 27 28 27 28 28 49 54 56 62 66 66 67 68 68 69 69 69 68 68 65 65 65 64 65 65 65 65 65 63 64 63 64 63 64 65 66 66 65 64 60
40 38 34 30 29 28 30 29 27 28 27 29 30 40 49 53 56 57 66 66 67 68 68 69 69 69 68 68 67 65 65 65 65 66 65 64 66 66 65 65 65 63 65 65 65 64 62 58 52
41 37 35 32 31 30 32 33 34 30 29 29 30 42 51 55 56 57 65 66 66 67 68 69 69 68 68 67 66 66 65 66 65 66 63 65 66 66 66 65 65 65 66 64 63 60 56 52 49
39 37 37 37 36 34 33 34 35 32 29 28 32 46 54 55 56 55 62 65 65 66 67 68 68 68 67 67 66 65 65 64 64 65 63 62 65 66 65 65 65 65 65 63 59 53 49 43 40
39 37 38 39 39 36 35 34 38 34 30 30 31 49 51 52 55 55 57 64 65 66 66 67 67 67 67 66 66 65 64 63 63 63 63 61 62 64 64 63 64 64 63 60 54 47 39 31 27
37 38 37 37 37 36 34 36 36 37 34 36 38 36 38 46 48 54 56 58 61 66 66 66 67 67 66 66 66 65 64 63 62 62 62 61 59 61 62 62 62 62 60 55 51 40 28 25 24
36 36 37 37 37 36 35 35 34 37 38 38 38 38 37 37 38 46 52 56 57 61 66 66 67 67 66 66 65 64 63 62 61 60 61 59 58 60 60 60 60 60 59 47 35 29 27 24 22
36 35 35 37 37 38 36 36 35 35 37 36 36 35 36 36 37 38 40 45 48 57 60 65 66 66 66 65 64 63 62 61 59 59 60 57 57 58 58 58 59 54 48 33 29 28 26 25 24
39 36 37 36 37 36 37 34 35 36 36 36 36 36 37 36 36 36 38 39 41 45 58 61 66 66 65 65 64 63 62 62 60 59 60 56 56 56 56 56 54 39 31 28 28 27 26 25 24
37 36 33 35 35 35 36 30 33 36 37 36 36 36 37 36 36 36 36 37 38 41 51 59 63 65 64 65 64 63 62 61 61 60 60 56 56 55 53 49 41 32 30 26 26 27 25 24 21
34 31 32 33 35 34 35 33 34 35 35 33 34 34 34 35 36 36 36 36 36 38 40 56 61 64 64 64 64 62 62 61 61 61 60 56 56 53 49 42 34 32 28 26 25 26 23 22 20
29 32 31 29 29 31 29 33 34 34 33 33 32 31 32 33 35 36 36 35 36 37 38 46 60 63 64 64 64 64 63 62 62 61 60 57 54 50 46 37 33 30 27 26 25 25 24 22 21
32 31 30 30 31 28 27 26 27 28 28 27 28 28 29 30 32 35 35 35 34 34 35 40 54 61 64 64 64 63 62 62 62 61 59 55 52 49 43 35 31 28 26 26 26 26 22 20 22
34 32 30 30 30 28 27 26 27 27 28 28 28 28 28 28 30 31 33 34 34 34 35 35 46 59 64 64 63 63 63 62 62 60 56 53 50 46 38 34 30 28 26 26 26 26 24 22 21
30 29 29 29 29 27 25 20 20 23 25 26 27 28 28 28 28 29 29 30 32 32 33 36 38 54 63 64 64 61 59 57 56 56 53 49 47 42 37 33 31 28 27 26 26 26 26 23 20
29 29 28 28 26 23 26 18 22 21 20 21 22 26 27 28 28 28 28 28 29 30 31 33 37 43 61 64 63 60 59 59 58 56 52 48 43 39 35 32 29 28 29 27 25 26 26 24 20
29 29 27 27 25 24 24 23 19 22 17 17 18 19 24 27 28 28 28 28 28 29 29 32 36 41 53 63 63 61 59 59 55 51 50 47 42 36 33 31 30 29 29 27 25 23 25 23 22
30 28 27 27 24 17 19 20 15 13 16 16 15 15 18 20 23 26 26 28 28 33 34 32 33 37 45 62 63 61 59 55 51 48 47 44 40 36 34 31 31 30 27 25 24 22 21 21 21
27 24 16 16 19 10 21 21 19 19 18 18 18 17 18 17 20 22 26 33 35 37 38 38 38 38 42 57 62 61 58 53 52 48 46 42 38 36 34 32 31 29 27 26 24 22 21 20 19
27 25 14 8 14 18 22 18 15 20 21 18 19 19 21 23 20 19 26 33 35 37 36 34 35 38 41 55 60 61 57 52 52 49 46 42 38 37 37 33 30 29 27 25 24 23 22 21 20
28 26 26 23 22 19 19 18 16 18 18 22 21 21 25 26 27 26 23 34 36 36 35 35 37 38 41 53 58 57 51 50 49 47 43 40 39 37 34 31 30 29 28 26 24 22 21 20 21
27 28 23 22 9 11 16 17 14 16 17 21 22 22 24 27 29 29 32 36 37 38 37 38 40 41 42 53 58 55 49 49 47 45 43 39 36 33 30 30 30 29 26 24 23 20 18 18 20
28 27 27 24 22 16 16 16 19 19 21 22 24 25 29 33 34 31 31 33 37 38 36 35 38 43 47 55 57 49 48 46 45 43 41 36 33 30 30 29 29 28 25 22 20 19 18 17 18
29 27 26 20 17 23 22 20 23 22 23 25 26 29 34 36 38 36 34 34 35 39 39 39 41 44 51 53 49 47 45 44 42 40 37 33 29 29 29 28 27 26 24 23 22 19 17 16 17

GFSSGP_sfc_30mbdewp_027.txt.gz
Dewpoint
60 56 51 41 33 34 29 29 34 30 28 29 29 28 32 34 34 35 60 66 68 69 69 68 67 67 67 67 68 69 69 69 68 67 66 65 64 62 60 59 59 60 60 62 63 64 63 62 61
60 52 43 39 32 27 24 31 30 30 29 28 28 28 37 43 53 60 63 68 69 69 69 69 68 67 67 66 66 66 68 69 68 67 66 65 63 60 58 58 59 60 61 62 63 63 62 62 62
55 50 39 36 34 26 23 31 28 29 30 28 27 30 35 41 54 60 63 69 69 69 69 69 69 68 66 65 64 64 64 65 68 67 66 63 62 59 58 59 59 60 60 60 61 61 61 61 62
48 45 39 34 32 32 30 30 30 31 30 28 30 36 44 52 54 60 68 69 68 68 68 69 69 67 66 64 65 66 66 66 67 67 65 63 61 61 59 60 61 61 62 62 62 62 62 63 63
45 41 36 34 31 33 33 33 31 30 29 28 29 30 40 54 58 67 68 68 68 68 68 69 69 67 66 65 66 64 63 65 64 63 63 63 62 62 61 61 62 63 63 63 63 63 64 65 65
40 39 33 30 27 31 31 31 29 28 29 29 29 34 44 54 64 67 68 68 68 68 69 69 68 68 67 66 66 65 64 63 63 63 62 62 62 63 63 62 62 63 63 65 64 65 65 65 64
40 38 34 29 26 28 29 33 31 29 27 27 28 31 48 54 62 68 68 67 68 68 68 69 69 68 67 66 67 65 64 64 64 64 64 63 63 64 64 63 63 63 64 64 65 66 65 63 56
40 37 32 32 28 24 30 30 29 28 29 29 33 39 44 54 62 66 66 67 67 68 68 68 69 68 68 67 66 66 65 65 66 66 66 65 65 65 65 64 65 63 65 66 66 65 62 56 50
41 37 34 29 29 28 33 32 34 33 30 29 30 44 48 55 61 65 65 66 67 67 68 69 69 68 68 67 66 65 66 65 66 66 65 64 65 66 65 65 65 64 66 65 64 62 57 52 50
39 36 36 37 35 33 34 35 36 34 32 29 32 46 55 56 60 64 64 64 65 65 67 67 68 68 67 67 66 65 65 65 65 65 63 65 66 65 65 65 65 65 66 64 60 55 51 40 33
39 37 38 39 39 38 36 36 37 35 32 31 31 42 50 55 56 61 64 64 65 66 66 66 67 68 67 66 66 65 64 64 64 64 63 62 65 65 64 64 64 65 65 61 54 45 36 28 26
37 39 38 38 38 36 35 35 35 36 35 36 38 38 38 46 54 55 61 64 65 65 66 67 67 67 67 66 66 64 64 63 62 63 63 60 62 64 63 63 63 63 61 56 49 38 27 25 22
37 37 37 38 37 37 36 35 35 36 37 39 38 38 37 37 39 43 56 59 64 65 66 66 67 67 67 66 66 65 64 63 62 62 62 61 59 62 62 62 61 61 59 52 45 29 26 23 22
37 37 36 36 36 37 36 36 36 35 37 37 37 36 36 36 36 38 42 54 57 63 66 66 67 67 66 66 65 64 64 63 61 61 61 61 59 59 61 60 60 60 57 41 31 28 26 24 24
38 35 37 37 37 36 37 34 35 36 36 36 36 36 36 36 36 36 37 40 48 55 61 66 66 66 66 66 65 64 63 62 61 60 60 60 58 58 59 59 58 56 47 31 28 27 26 25 24
37 36 33 35 36 36 36 30 33 36 36 35 36 36 37 37 37 37 36 37 39 41 49 61 66 66 66 65 65 64 63 62 60 58 59 59 57 57 57 57 56 42 32 28 28 26 25 23 21
35 32 33 33 35 34 35 32 34 35 34 34 34 34 34 34 35 36 37 37 37 39 40 54 62 66 66 65 65 64 63 62 61 59 59 58 57 56 55 54 49 33 29 28 27 26 23 21 20
31 31 31 30 30 32 30 30 32 35 35 34 34 34 34 33 33 34 36 37 37 37 38 47 60 63 65 65 65 64 63 62 62 61 60 58 57 54 51 46 40 32 29 27 26 24 23 21 21
31 31 30 30 31 30 28 28 28 28 28 28 29 30 30 30 31 32 33 35 36 36 36 39 55 61 64 64 64 63 62 62 61 61 60 57 56 53 48 41 34 31 29 27 25 24 20 20 24
35 33 31 31 30 29 28 27 27 27 27 28 28 28 28 29 29 30 31 32 34 35 35 35 43 59 63 64 64 63 63 62 61 61 60 58 55 52 46 39 34 30 29 26 26 25 24 21 21
33 31 29 29 29 27 25 23 23 23 24 25 27 28 29 28 28 28 29 29 31 32 33 34 36 46 62 64 63 60 60 58 59 60 58 56 54 51 46 39 35 31 29 27 26 27 26 22 19
29 29 29 27 26 24 26 20 23 21 22 23 22 22 25 27 28 29 29 29 29 29 31 32 34 37 52 64 63 61 59 59 60 59 58 54 52 49 45 39 35 30 30 28 27 28 28 24 20
30 29 27 27 25 23 23 21 18 19 14 16 17 17 19 22 26 27 28 29 29 29 29 29 31 36 41 61 63 62 59 58 59 57 55 53 51 48 44 40 34 31 30 29 27 27 27 25 23
30 27 26 27 24 16 19 21 11 12 15 16 19 19 19 20 19 21 23 27 27 28 30 30 30 32 39 53 63 62 61 58 56 54 54 51 47 44 40 39 36 32 32 30 28 26 26 24 24
27 24 15 10 14 9 22 21 15 18 20 21 19 18 25 26 27 27 27 27 29 36 37 37 37 37 39 43 60 62 61 57 56 54 54 50 45 42 39 38 37 35 34 32 28 25 24 23 21
27 25 14 1 9 16 22 18 14 21 21 21 21 23 25 27 29 30 31 31 31 32 38 37 36 35 39 45 51 61 61 58 55 53 53 51 48 45 41 39 37 36 34 30 27 25 23 22 21
28 25 25 21 21 19 18 18 17 18 21 21 22 24 25 27 30 33 33 33 35 37 37 37 36 37 38 42 53 58 60 56 54 53 51 50 48 42 41 39 35 34 32 30 28 26 22 22 21
27 28 22 22 10 7 14 17 12 16 17 21 22 25 26 27 33 35 36 35 34 35 37 38 38 38 40 42 50 56 57 55 53 50 48 45 42 41 38 35 34 33 32 30 28 24 21 21 22
28 26 25 23 20 14 13 12 20 18 21 23 25 27 29 35 39 39 37 36 35 35 36 39 39 41 42 45 49 55 53 52 49 48 45 42 41 40 37 35 34 31 29 26 25 25 23 23 22
29 27 26 18 17 23 21 18 24 23 23 25 26 29 36 41 40 40 39 39 39 41 42 44 46 47 47 48 53 53 49 48 47 46 43 40 39 37 35 33 31 29 28 28 27 24 22 21 21

GFSSGP_sfc_30mbdewp_030.txt.gz
Dewpoint
60 55 48 40 33 34 29 27 33 31 29 28 29 29 29 33 38 36 61 66 68 68 69 68 68 69 69 69 70 70 70 70 69 67 66 64 64 62 60 59 60 60 61 66 66 65 63 62 61
58 51 42 39 31 25 23 31 29 30 30 30 28 32 38 41 54 60 63 67 68 69 69 67 68 68 68 68 69 69 70 70 68 67 66 64 63 60 59 60 60 60 62 65 64 63 63 63 61
53 47 39 35 33 26 21 29 29 30 32 28 27 31 34 42 54 60 63 68 69 68 68 66 67 67 67 67 67 68 69 69 68 67 66 64 61 59 59 60 60 61 61 62 62 62 61 62 62
48 44 39 34 31 32 28 29 30 31 31 28 29 36 44 52 54 61 68 69 68 68 68 68 68 68 67 66 65 65 66 67 68 67 65 63 61 59 60 60 61 61 61 61 61 62 62 63 63
44 41 35 34 32 33 33 33 32 30 29 28 29 29 40 53 60 67 68 68 68 68 68 69 68 67 66 65 66 66 64 65 68 67 64 63 62 60 60 61 62 63 63 63 63 63 64 65 64
41 39 33 32 31 31 32 32 30 28 29 29 28 33 42 57 64 66 68 67 68 68 69 68 68 67 66 66 66 66 66 66 66 65 65 63 62 62 61 62 63 63 64 64 64 65 65 64 61
38 38 34 31 31 29 29 32 29 29 28 28 29 30 43 54 65 66 67 68 68 68 69 68 68 68 67 67 66 65 65 65 65 65 64 64 64 64 63 62 63 63 64 64 65 66 64 59 52
40 38 33 32 27 27 29 30 30 28 29 30 33 30 35 53 67 66 67 67 67 68 68 68 68 68 67 67 67 66 65 65 65 65 65 64 64 65 64 64 64 63 65 65 66 64 60 52 51
41 35 31 29 30 29 32 31 35 34 32 30 30 36 47 59 66 65 65 66 66 67 68 68 68 68 67 66 66 66 66 65 65 66 66 65 65 65 65 65 65 64 66 65 64 62 56 53 50
39 35 35 33 31 30 34 35 35 35 34 32 29 50 55 63 65 64 63 64 64 65 66 67 67 67 67 67 65 65 66 65 65 66 65 63 64 65 65 64 65 65 66 64 62 56 50 41 29
40 36 37 37 37 38 37 37 36 35 32 32 32 37 48 58 63 63 63 63 64 64 64 65 65 67 67 66 65 64 64 65 64 65 64 62 65 65 65 64 65 65 64 61 52 41 32 27 26
38 39 38 38 39 38 36 35 35 36 34 35 37 38 38 47 55 61 63 64 64 64 64 65 65 66 66 66 66 64 63 64 63 63 63 61 64 64 64 63 63 63 61 57 47 35 26 23 22
38 37 39 39 38 37 37 35 34 35 36 38 38 38 37 37 39 45 54 62 65 64 64 65 65 65 65 66 66 64 63 63 63 63 63 61 62 63 63 62 62 61 59 53 44 29 25 22 22
38 37 37 37 36 36 35 35 36 36 37 36 37 36 36 37 36 37 38 48 62 65 65 66 65 66 65 65 65 64 64 63 62 62 62 61 59 62 62 61 61 60 58 48 39 28 25 24 22
38 35 36 36 36 35 37 34 35 37 36 36 36 36 36 36 36 36 36 37 49 60 65 66 66 66 65 65 65 65 64 63 62 61 61 61 60 59 61 60 60 59 55 37 29 27 26 25 23
36 36 33 35 37 36 35 27 32 35 36 35 35 36 36 36 37 37 37 37 38 44 58 65 66 66 66 66 66 65 64 63 62 61 60 61 60 59 59 59 59 56 47 32 28 27 25 23 22
35 32 33 33 35 35 35 33 34 35 35 35 35 34 35 35 35 36 37 38 37 38 40 55 65 66 66 66 66 65 64 63 62 60 59 59 58 58 58 58 57 48 39 31 28 26 24 21 21
30 31 32 31 30 33 33 32 31 30 30 33 33 34 34 34 35 35 35 36 37 37 38 40 56 65 66 66 65 65 64 63 62 60 58 59 58 57 57 56 53 41 33 29 27 25 23 22 21
32 32 30 31 31 30 30 29 29 30 29 29 29 29 29 30 32 33 33 34 35 36 37 38 43 57 65 65 64 63 62 63 62 62 60 59 57 56 55 52 48 38 31 29 27 24 21 21 25
34 33 32 32 30 29 28 27 28 28 28 28 28 29 29 29 30 30 30 31 32 34 35 36 39 50 62 64 64 63 63 63 62 62 61 60 57 56 54 50 45 38 32 28 26 24 22 21 24
34 33 31 30 29 27 26 24 23 23 24 24 24 26 27 28 28 29 29 29 30 31 32 35 36 42 59 63 64 61 61 60 61 61 61 60 58 56 52 48 44 38 34 31 27 26 24 22 20
32 29 29 27 26 25 26 20 22 22 19 19 18 18 19 20 22 25 26 27 29 30 31 32 34 36 46 62 63 62 61 60 60 61 61 58 57 56 51 48 45 39 35 33 29 28 27 24 21
31 29 27 26 25 23 22 20 15 18 14 16 18 20 24 25 26 28 28 28 29 30 30 30 31 33 37 49 63 62 61 60 60 61 60 58 56 55 52 48 45 39 38 34 32 30 28 26 23
29 27 26 25 23 16 19 20 7 11 16 17 20 22 26 27 29 31 33 33 33 33 35 34 30 31 34 41 59 62 61 60 57 58 58 57 54 53 51 48 44 42 39 37 33 31 30 28 26
27 27 22 11 14 11 22 20 13 19 21 21 20 23 25 27 29 32 35 35 35 34 35 36 38 37 37 38 50 61 61 60 57 57 57 55 53 51 48 46 43 41 40 38 37 34 31 28 26
27 25 17 6 5 14 22 16 14 21 21 21 22 24 27 28 29 33 36 37 36 36 36 37 37 36 37 39 44 56 61 60 58 56 56 55 53 52 49 45 44 41 40 38 35 35 31 27 26
27 25 25 20 20 17 15 17 14 20 21 22 23 25 27 28 30 35 38 38 37 37 36 36 38 38 37 39 41 47 56 59 57 56 55 55 53 51 46 44 43 41 39 36 35 32 29 28 28
27 27 22 20 7 5 11 14 11 15 18 22 24 26 29 29 34 40 41 40 37 37 37 37 38 38 40 43 44 46 51 57 57 54 54 53 51 47 45 43 41 40 37 34 31 28 26 25 26
27 26 24 22 19 10 9 7 19 18 20 23 24 27 28 31 40 41 40 40 39 40 41 43 44 45 45 45 46 48 51 54 54 53 51 49 46 44 43 41 40 37 35 31 29 26 24 24 24
28 26 24 16 16 21 20 13 23 23 23 24 26 28 34 40 40 40 39 39 40 40 41 42 42 42 43 44 46 49 51 50 51 50 46 43 43 40 40 39 37 34 31 27 26 25 27 28 28

GFSSGP_sfc_30mbdewp_033.txt.gz
Dewpoint
60 51 47 41 32 33 28 26 33 31 30 28 30 30 32 33 41 37 63 66 66 66 69 67 68 67 68 69 70 71 71 70 69 68 67 65 64 62 60 60 61 62 67 67 67 65 63 62 60
56 49 43 39 31 25 24 30 29 31 31 32 29 34 37 41 54 60 63 67 67 68 68 66 68 67 69 70 70 70 70 69 69 67 65 65 63 60 60 60 60 61 66 65 64 63 63 62 61
51 45 39 36 32 26 22 26 29 30 32 29 27 31 33 42 55 60 63 68 67 68 67 65 68 67 67 70 70 70 70 69 69 67 66 64 61 59 60 61 61 61 64 64 63 63 62 63 62
47 42 39 34 31 33 26 29 31 31 31 29 29 31 43 53 55 61 67 68 67 68 66 66 68 69 68 68 69 69 69 70 69 67 65 63 60 60 60 61 61 61 62 62 61 61 62 63 63
44 41 35 34 33 33 34 33 32 31 30 28 29 28 38 53 64 67 67 68 67 67 66 66 68 68 67 67 67 67 67 69 69 67 65 63 60 60 61 62 62 62 62 62 62 63 65 65 64
40 38 34 33 33 33 33 33 32 29 29 30 28 31 40 60 65 65 67 67 67 67 67 66 68 67 67 67 67 66 65 66 68 67 65 63 61 61 61 62 63 63 64 63 64 65 65 62 58
39 37 34 33 33 32 31 32 29 29 28 28 29 28 37 55 65 65 66 66 67 68 68 67 67 67 67 68 67 67 67 68 68 67 66 64 64 62 61 63 63 64 65 65 65 65 61 54 55
40 37 34 32 31 30 29 30 30 30 27 30 30 28 31 54 65 66 66 66 68 68 67 67 67 67 65 66 66 65 66 66 66 65 65 64 64 64 63 63 64 64 65 65 65 63 55 52 52
40 35 33 33 30 29 31 29 34 34 32 32 30 37 49 59 65 65 64 65 66 67 67 68 67 67 66 66 66 65 65 65 65 65 64 64 63 64 64 64 64 64 66 65 64 60 55 52 50
38 34 33 33 32 29 33 34 34 34 34 32 32 39 58 62 63 62 62 63 64 65 65 67 67 67 66 65 66 65 64 64 64 64 65 64 65 65 64 64 65 64 65 64 61 57 51 36 33
40 32 35 36 33 36 35 37 36 34 31 33 33 38 51 60 62 61 61 62 63 64 64 66 65 67 67 65 65 65 65 65 65 65 64 64 64 65 65 64 65 64 64 59 52 43 34 32 30
38 39 37 37 39 39 37 36 35 36 34 35 38 38 38 55 59 61 61 62 63 63 64 64 64 65 66 66 65 64 65 65 64 65 64 63 64 65 65 64 65 64 63 57 48 37 30 27 27
38 38 39 39 38 38 37 36 35 35 36 37 38 38 38 38 43 54 60 63 63 63 64 64 64 64 65 66 66 64 63 64 64 64 64 62 63 65 65 64 64 63 61 57 46 34 28 25 25
39 38 37 37 37 36 36 36 36 35 37 36 37 37 37 37 37 37 40 50 62 64 64 65 64 65 66 65 65 65 64 63 63 63 63 62 62 64 64 63 63 62 61 55 44 33 28 27 25
37 36 36 36 36 35 36 32 35 36 36 35 35 36 36 37 37 37 37 37 46 61 65 65 65 65 65 65 65 65 65 63 62 62 63 62 61 63 64 63 62 61 59 50 38 30 28 28 25
36 35 33 35 36 35 33 25 32 36 36 36 36 36 36 37 37 38 38 38 38 41 58 64 66 66 65 65 65 65 65 64 63 62 61 62 62 60 62 62 62 60 56 44 36 31 29 28 26
35 30 31 32 37 35 34 32 34 36 34 34 34 35 35 35 36 36 37 38 38 38 39 53 64 66 66 65 65 65 65 65 64 63 61 61 61 61 59 60 61 59 53 42 34 30 29 27 26
32 30 33 29 31 34 34 34 34 32 31 31 31 31 32 33 34 36 36 36 37 38 38 39 52 63 66 66 65 65 64 64 64 63 62 61 60 60 60 59 59 56 50 42 33 30 27 26 25
32 31 31 32 32 30 30 30 30 30 30 30 30 30 30 30 31 33 34 34 35 36 37 38 40 50 64 65 64 64 63 63 63 63 62 60 60 59 59 59 57 52 49 43 34 29 26 25 28
32 31 30 32 30 29 28 28 29 29 29 29 29 29 29 29 29 29 30 31 32 33 35 36 38 41 55 63 63 63 62 63 63 63 62 60 60 58 58 57 55 50 47 39 32 28 25 26 29
34 31 31 30 29 27 26 24 23 24 24 22 20 20 22 23 24 28 29 29 30 31 32 33 36 38 46 59 64 63 62 61 62 62 62 61 60 58 57 56 55 51 47 40 33 29 28 26 27
33 32 30 27 27 25 26 21 21 22 17 18 23 26 26 27 29 31 32 34 33 33 33 32 34 36 40 57 62 61 59 59 60 61 62 62 60 58 58 56 54 51 48 44 37 32 30 29 26
32 29 27 26 25 23 23 20 16 17 15 18 22 25 27 28 29 32 35 36 35 36 36 36 32 33 36 45 61 62 61 60 61 61 62 61 60 59 58 55 53 51 48 45 41 33 31 29 28
29 26 25 24 23 21 18 19 10 12 16 19 21 23 27 28 30 33 37 38 39 38 39 38 38 35 33 35 44 61 61 60 61 60 60 60 59 59 58 55 53 52 49 45 43 38 35 33 30
28 28 23 14 17 17 22 20 15 18 20 21 21 23 27 28 30 34 39 40 40 39 39 38 38 38 37 39 38 44 59 61 60 59 59 59 57 56 56 55 52 52 48 47 44 41 39 36 32
27 27 21 13 4 11 22 16 15 21 22 21 22 24 28 30 30 35 39 40 40 39 38 38 37 38 39 39 39 43 47 58 60 59 58 58 57 56 56 54 53 51 48 46 44 42 40 37 34
27 26 22 20 19 16 14 16 15 20 21 22 23 26 28 30 32 38 41 41 40 38 38 39 38 38 38 40 42 42 44 50 56 57 58 58 57 56 55 53 51 49 47 45 43 41 38 35 33
27 27 23 20 9 4 8 12 9 16 17 22 24 26 28 31 37 41 40 40 40 39 40 43 43 43 44 45 46 46 47 48 53 56 56 56 56 54 51 49 48 47 45 43 42 39 35 32 32
26 25 23 21 18 9 6 5 17 18 20 22 24 26 28 35 40 40 38 39 40 40 41 42 43 42 43 43 44 46 49 51 53 52 53 53 52 49 48 47 45 44 42 41 40 38 35 31 28
28 26 22 16 16 20 19 10 22 22 23 23 25 27 32 40 40 36 36 39 41 41 41 42 41 42 43 43 44 46 49 50 50 50 50 48 48 45 45 43 42 41 39 39 37 33 29 28 27

GFSSGP_sfc_30mbdewp_036.txt.gz
Dewpoint
59 49 46 42 32 28 23 23 28 31 30 28 30 30 29 33 35 34 62 64 62 64 64 65 69 69 71 72 72 72 72 71 70 68 67 66 64 62 61 62 62 67 68 67 66 64 63 60 59
55 46 43 38 29 24 20 25 25 30 31 32 30 30 39 36 49 57 61 65 63 64 64 64 67 66 68 70 71 71 70 70 69 68 66 65 63 61 60 60 62 67 66 65 65 64 62 61 61
49 44 38 34 30 25 21 25 23 30 30 29 28 32 32 42 53 56 62 65 63 65 64 64 66 66 69 69 70 70 70 69 68 67 66 64 60 60 61 61 61 65 65 64 64 63 63 62 63
44 41 38 32 29 28 25 29 29 30 31 29 29 29 42 53 54 58 64 64 64 64 63 66 68 68 69 69 69 70 70 69 68 67 65 62 60 61 61 62 63 63 63 63 62 62 62 63 64
44 40 34 32 30 29 30 29 31 30 29 27 29 29 37 55 63 63 64 64 63 63 63 64 67 67 67 69 69 69 70 69 69 67 65 62 60 61 62 62 62 62 62 62 62 63 64 64 64
40 39 33 31 30 31 32 32 31 29 28 25 28 29 37 58 62 64 65 64 64 63 63 64 67 67 67 68 68 68 68 70 69 67 64 62 61 62 62 63 63 63 63 63 64 65 64 61 59
40 38 33 30 31 31 32 32 31 27 27 24 29 28 38 53 63 66 66 65 65 64 63 63 65 65 67 67 67 67 66 67 69 67 66 64 62 62 62 63 64 64 64 64 65 64 57 56 56
40 39 34 33 32 32 33 32 30 28 24 30 30 27 31 53 64 65 65 66 65 64 63 62 62 63 63 64 68 67 67 69 68 67 66 64 64 63 63 64 64 65 65 65 65 58 54 54 56
41 36 33 34 33 31 31 29 31 32 27 30 31 35 50 55 64 64 64 65 64 65 64 63 61 61 61 62 64 65 66 66 66 65 65 64 60 61 62 61 64 65 65 66 63 57 54 52 51
36 35 31 33 34 32 30 28 30 31 31 31 32 39 58 61 63 62 62 63 63 65 65 64 62 61 61 62 62 60 60 62 62 62 62 60 59 59 59 62 64 65 66 65 61 57 49 40 39
35 30 32 34 34 31 31 31 34 30 30 29 30 37 52 60 62 62 62 62 63 64 65 65 64 62 62 61 62 61 59 60 60 60 59 59 59 62 62 60 62 61 64 61 58 50 45 41 38
34 32 32 34 37 36 32 32 32 32 27 34 37 38 39 56 60 61 61 62 62 63 64 64 65 64 64 62 62 61 60 60 60 60 59 60 61 62 61 61 60 59 59 58 55 48 41 36 33
35 37 35 35 39 38 37 35 32 34 35 37 37 38 37 38 49 58 61 62 62 63 63 64 65 64 64 65 63 61 61 61 59 60 60 60 60 61 61 61 61 61 58 57 54 47 39 34 31
37 37 35 36 36 37 37 36 36 34 35 35 35 34 34 36 37 40 52 58 61 62 63 64 65 65 64 65 65 64 62 61 60 59 60 61 60 60 61 61 62 61 60 57 54 47 40 35 32
39 35 37 36 35 35 36 33 34 34 32 32 30 30 33 35 36 37 38 41 46 55 60 63 64 65 65 65 66 66 65 63 61 60 60 60 59 59 60 61 62 62 60 57 53 45 38 35 31
36 34 33 32 35 35 34 24 30 33 32 31 30 31 32 34 34 35 37 38 38 38 44 54 61 64 65 65 65 66 66 65 64 62 60 60 59 58 59 60 62 61 60 57 51 45 40 36 33
33 24 26 29 35 31 32 24 27 30 33 31 31 31 32 34 34 35 36 36 37 37 37 40 52 60 63 65 65 66 66 66 65 63 62 61 60 59 58 59 59 60 59 56 50 45 41 37 33
25 23 27 24 31 35 33 27 32 34 33 31 30 30 29 31 33 34 35 36 37 37 38 38 40 49 58 63 65 66 65 65 66 65 63 62 61 60 59 57 58 59 59 55 50 45 39 37 34
28 26 25 28 31 30 29 29 30 31 31 30 29 28 28 30 32 32 32 32 33 34 37 38 38 40 46 57 64 64 63 64 64 65 65 63 62 61 60 58 57 58 58 56 50 46 38 34 32
29 26 26 31 31 30 28 28 29 29 30 30 30 29 29 29 27 27 29 31 30 31 34 36 36 38 40 47 57 61 63 63 64 64 64 64 63 62 61 59 58 57 57 56 52 44 38 35 32
31 28 30 28 30 28 27 24 26 25 24 21 23 22 23 25 28 32 34 35 36 35 34 33 34 36 38 41 51 58 61 62 62 62 63 63 63 62 61 60 59 57 56 55 52 45 41 36 32
30 34 32 29 28 22 26 14 23 22 19 25 26 27 28 30 33 36 37 38 39 40 40 38 35 34 35 39 44 53 57 58 58 58 61 62 63 62 62 60 60 58 55 54 52 47 43 41 35
28 31 29 28 27 26 24 22 18 17 18 23 25 28 30 31 34 36 39 40 41 42 43 41 39 36 34 36 43 51 55 55 55 56 59 60 62 62 62 61 60 58 55 54 52 48 44 42 40
29 28 27 27 26 26 23 21 13 14 16 21 24 26 31 32 33 37 40 41 41 43 43 43 40 38 39 36 37 45 53 55 55 57 59 60 61 61 61 60 60 58 57 55 54 50 46 42 41
30 30 27 25 26 22 21 19 15 17 19 20 22 25 31 33 34 37 40 41 41 42 42 41 40 39 39 39 40 38 41 51 55 56 57 58 59 60 59 59 59 58 57 56 55 51 46 44 41
32 31 25 18 13 13 21 15 14 21 21 21 22 25 29 32 35 39 41 41 41 41 40 41 41 40 39 39 40 40 42 43 46 55 57 56 55 58 59 59 59 58 57 56 55 52 49 46 43
32 30 23 21 19 18 13 16 17 20 20 21 23 27 30 33 37 40 40 40 40 41 40 42 42 42 43 44 45 44 44 44 45 48 53 56 56 57 57 58 57 58 56 55 53 52 50 48 46
29 27 25 25 17 14 9 9 9 18 21 23 25 28 31 34 39 40 38 39 41 41 41 42 42 42 43 43 43 44 46 47 48 49 52 55 55 56 57 57 57 56 54 53 51 50 49 46 44
26 26 24 23 20 12 4 5 15 18 20 23 25 29 31 37 39 38 37 38 41 42 42 41 41 42 43 43 43 44 46 49 49 51 51 52 53 54 54 54 53 53 50 49 48 47 44 42 38
28 26 22 19 20 21 19 10 20 21 22 24 27 30 34 39 37 36 35 38 40 40 40 40 40 39 40 41 43 44 46 48 49 50 50 50 51 50 50 49 49 48 47 46 45 43 41 38 36

GFSSGP_sfc_30mbdewp_039.txt.gz
Dewpoint
57 54 44 41 33 29 24 22 23 26 25 27 29 27 25 30 35 39 60 61 59 63 64 66 70 71 72 72 72 72 72 71 70 69 68 66 64 63 62 62 67 68 67 67 65 63 61 60 60
52 48 42 37 30 27 23 24 23 26 29 30 30 30 27 29 47 57 60 63 60 62 63 64 69 69 72 72 72 72 71 70 69 68 66 65 63 61 61 61 67 67 67 66 65 63 61 61 62
55 46 39 33 31 26 25 24 22 29 29 29 28 31 32 42 51 55 61 61 61 61 61 65 68 68 70 72 71 71 71 70 68 67 65 63 61 61 61 62 66 66 65 65 64 63 62 63 63
48 41 39 33 28 29 27 24 22 28 29 29 29 29 39 52 53 58 62 60 61 61 61 65 65 66 68 69 70 70 68 68 68 67 65 61 61 61 62 64 64 64 64 63 62 62 63 63 64
47 40 34 31 29 28 28 28 27 28 28 27 28 28 40 57 59 61 61 60 60 60 62 65 67 68 68 68 69 69 69 68 68 67 64 61 61 62 62 63 63 63 62 62 62 64 64 64 63
42 39 33 30 29 28 29 29 28 28 28 26 27 28 44 58 59 61 61 61 60 60 62 64 67 66 67 68 68 69 68 69 68 67 64 61 62 62 62 62 62 62 62 63 64 65 63 60 60
42 37 34 31 28 28 29 30 28 26 27 26 27 27 42 55 63 63 62 61 61 61 61 63 64 66 66 68 68 68 68 69 68 66 65 63 63 62 62 63 63 63 63 64 65 62 58 58 57
42 40 36 34 29 28 30 31 30 28 26 27 28 27 32 54 63 65 63 62 62 62 60 62 63 63 63 64 67 67 66 67 68 66 65 64 63 63 63 64 64 65 65 65 63 57 56 56 59
42 39 38 35 31 30 32 32 31 30 26 26 26 32 48 56 63 64 64 65 62 62 61 60 60 60 60 60 64 66 66 67 67 66 65 63 59 60 62 61 64 65 65 66 61 56 55 54 56
39 38 36 34 33 33 33 32 29 30 26 24 28 38 52 57 62 62 62 62 61 61 61 60 59 59 58 59 62 61 62 63 64 64 64 60 58 58 57 61 64 66 67 65 61 56 53 48 43
35 33 35 33 34 35 33 30 28 30 25 26 26 31 48 55 60 61 62 62 63 63 63 61 61 59 58 59 60 58 58 59 60 60 61 59 57 59 58 60 59 62 65 63 60 57 49 46 42
33 32 30 31 34 34 32 31 29 30 26 28 31 37 38 51 54 57 60 60 61 63 64 64 63 61 60 59 59 59 58 58 58 58 58 57 57 59 58 57 58 56 61 59 58 53 47 43 40
35 31 31 32 36 35 32 29 28 28 31 35 36 37 36 37 46 55 58 59 60 62 63 64 64 63 62 61 60 60 59 58 58 58 58 57 58 60 60 58 59 57 56 56 55 51 45 41 37
36 34 33 32 36 36 33 30 31 31 31 33 33 33 33 34 37 40 53 57 58 59 62 64 64 64 63 63 63 62 61 60 59 57 58 57 58 59 61 60 61 61 58 56 54 51 45 41 37
36 32 34 32 34 33 36 31 32 33 32 32 30 31 31 30 31 36 39 45 53 56 59 62 63 64 64 64 64 65 63 62 60 59 58 58 58 58 58 58 61 62 61 57 55 51 45 41 38
35 34 30 32 34 33 34 26 29 33 32 31 29 28 27 28 30 30 35 38 40 42 46 56 61 63 63 64 64 65 65 64 62 61 60 59 58 58 57 58 61 62 62 59 56 52 44 41 39
32 26 28 27 32 33 33 27 28 29 29 29 28 27 27 28 30 29 28 33 37 38 39 40 46 56 61 63 64 65 65 65 64 63 62 60 59 58 57 57 59 62 61 59 57 52 46 44 40
24 25 22 23 31 31 31 29 27 29 28 28 27 26 26 26 28 30 30 31 34 35 36 37 38 41 50 57 61 66 66 66 65 65 63 62 61 60 59 58 57 58 59 58 57 52 48 45 42
19 23 19 21 29 30 28 26 26 27 29 28 27 26 26 25 26 32 33 33 33 34 35 36 38 38 40 47 54 63 64 64 65 65 65 63 62 61 61 59 57 57 57 58 56 53 48 45 43
25 21 21 25 28 29 22 25 26 27 27 26 26 26 27 27 28 29 29 32 32 31 32 35 36 38 39 41 45 56 63 63 64 65 64 65 64 63 62 61 59 57 57 57 57 53 48 44 40
24 23 22 24 30 29 27 23 25 25 27 27 24 24 23 24 25 30 33 35 37 38 37 35 34 35 37 39 41 45 56 62 62 63 64 64 64 64 62 62 61 59 58 58 57 54 49 45 40
22 27 28 30 27 16 26 6 22 24 21 23 24 26 27 30 31 34 36 38 39 41 44 41 39 37 35 36 38 41 48 55 59 59 61 62 62 63 63 62 62 61 59 58 57 55 50 47 42
28 32 30 30 28 27 25 21 19 21 20 23 25 28 30 32 34 35 39 41 40 43 45 45 42 38 39 35 36 39 42 48 55 57 56 56 60 62 62 62 61 61 61 59 57 55 50 49 47
31 30 29 29 28 25 24 19 15 16 18 22 25 28 30 31 34 37 40 41 40 43 44 44 42 40 39 40 38 37 41 47 51 54 54 54 57 60 61 60 61 61 61 60 57 56 52 51 50
30 28 26 25 26 21 21 21 17 16 17 21 23 26 30 33 34 37 40 41 41 42 42 42 41 41 40 39 40 40 38 39 44 51 53 55 56 58 60 61 61 61 60 59 58 57 54 52 50
30 28 27 18 19 20 20 16 15 17 20 21 22 26 30 32 35 39 41 40 41 41 41 41 42 41 42 42 41 41 41 41 41 41 45 53 54 54 56 60 60 60 60 59 59 57 56 54 51
34 31 25 21 16 16 15 15 19 20 20 20 22 27 31 33 36 39 40 39 40 41 41 41 41 41 41 42 43 43 43 44 45 45 45 47 51 53 54 56 58 58 59 59 58 57 56 52 51
36 31 28 27 20 12 13 9 8 17 18 21 25 28 32 34 38 39 38 38 40 41 42 42 42 41 42 43 43 42 44 45 47 47 48 49 52 53 54 56 57 57 58 58 57 56 55 52 51
31 32 28 25 22 18 7 7 15 18 22 24 25 30 32 36 39 38 37 37 40 41 41 41 40 41 40 41 41 42 44 45 47 49 50 50 51 51 53 53 54 54 55 54 53 52 52 51 49
28 26 26 22 23 20 20 14 17 21 23 23 28 31 33 39 38 37 36 36 38 39 39 39 40 39 39 40 41 43 44 45 47 48 48 49 49 49 49 49 49 49 50 50 49 48 47 47 42

GFSSGP_sfc_30mbdewp_042.txt.gz
Dewpoint
59 53 52 44 37 33 29 24 23 26 24 27 28 26 28 30 48 50 59 61 66 66 68 70 71 71 72 73 72 72 71 72 70 69 67 66 64 63 62 66 68 67 67 66 64 62 61 61 61
56 51 46 41 34 30 27 27 25 24 30 30 30 29 27 46 56 58 61 61 64 65 67 69 71 72 73 73 72 72 71 70 69 68 66 65 63 61 61 68 67 68 67 65 63 61 61 62 63
56 52 43 37 35 31 28 26 23 29 29 29 29 29 31 49 54 59 63 61 63 63 64 68 69 72 72 73 72 71 70 69 68 67 65 63 61 61 63 67 67 67 65 65 63 62 63 64 64
50 45 41 37 32 32 30 25 24 28 29 29 29 31 49 57 56 61 62 60 61 61 67 68 67 70 71 70 71 71 69 69 68 66 63 62 61 61 65 66 66 65 64 63 62 63 63 65 64
50 45 37 34 33 32 30 27 25 27 28 28 28 33 52 57 60 60 60 60 60 64 65 66 67 68 68 68 69 69 67 68 68 66 63 62 62 63 64 64 64 64 63 62 63 64 64 64 63
45 43 37 33 32 32 30 28 26 27 28 26 27 37 54 58 60 60 60 60 60 64 64 65 67 67 68 67 68 69 68 68 68 65 63 62 62 62 63 63 63 63 62 63 65 64 62 61 61
45 42 38 37 33 30 29 30 27 26 27 27 27 30 54 61 62 61 60 60 60 62 64 65 65 65 67 67 67 68 69 69 68 66 64 63 63 62 63 63 63 63 64 65 64 61 59 58 59
47 45 40 36 35 33 30 30 30 27 25 28 28 37 54 61 63 64 62 61 61 60 63 63 64 65 64 66 67 67 67 69 67 66 64 64 64 63 64 65 65 65 65 66 62 58 58 59 60
49 42 40 40 38 36 31 31 31 30 28 26 27 47 56 63 64 64 64 64 61 61 61 62 63 63 63 64 65 66 65 67 67 66 63 63 62 63 64 63 65 66 66 66 59 57 56 58 57
43 42 41 43 41 38 33 32 32 30 29 27 29 48 57 61 62 62 62 62 61 61 60 61 61 61 60 60 65 64 65 66 67 66 63 62 61 60 61 63 65 65 66 64 60 57 54 50 45
40 39 41 42 40 38 35 32 33 30 29 27 26 40 52 58 60 61 61 62 62 62 62 60 59 59 59 60 63 62 63 63 65 65 64 63 59 59 61 62 63 65 65 63 60 57 49 46 46
36 38 37 37 37 36 34 33 30 30 30 31 36 36 45 52 57 59 60 61 62 63 63 64 63 59 59 59 61 59 59 61 61 62 63 62 59 59 60 61 59 62 64 63 61 58 53 49 42
37 34 33 33 36 35 34 33 30 30 32 35 37 37 37 37 48 54 59 60 61 62 63 64 65 63 61 60 59 60 58 59 59 60 59 59 58 60 60 59 59 58 62 61 60 56 50 43 41
35 36 34 31 35 36 32 31 30 30 33 34 35 35 36 35 37 40 56 57 59 61 63 64 64 64 63 62 62 61 60 59 59 59 59 58 58 61 60 59 59 58 59 58 57 55 48 43 39
35 33 34 33 35 34 35 32 30 31 31 31 33 33 33 32 32 35 37 49 57 59 62 63 64 64 64 63 63 64 65 62 60 59 59 58 58 60 61 60 61 60 59 60 56 54 49 43 38
34 34 32 33 33 34 35 29 31 32 32 32 32 31 30 31 30 31 32 38 41 45 53 63 64 64 64 64 64 64 65 65 63 61 59 59 58 58 59 59 61 62 61 60 59 54 48 44 39
35 29 31 31 33 33 34 30 30 31 33 32 31 32 29 28 29 30 30 29 37 39 40 41 49 62 63 64 64 65 65 65 65 65 61 60 59 59 59 58 60 62 62 61 60 55 48 44 41
31 31 28 28 32 33 33 33 31 29 28 27 28 27 26 27 28 29 30 32 34 36 37 39 42 43 48 62 64 65 65 65 65 65 65 62 61 59 59 58 58 62 61 61 60 56 49 46 44
28 27 26 27 31 31 31 31 31 30 28 28 29 28 27 26 26 30 33 32 31 32 35 36 37 39 41 44 54 65 64 64 65 65 65 65 63 61 60 59 58 59 61 61 59 56 52 48 45
24 22 25 24 30 30 28 28 28 27 27 29 29 27 26 26 26 29 30 34 35 34 35 36 37 38 40 41 43 51 64 64 64 64 64 64 65 64 62 61 60 58 58 59 58 56 52 48 45
23 23 22 24 29 29 27 25 23 26 27 28 27 26 26 25 25 30 33 37 39 40 41 39 38 38 37 38 40 42 45 63 63 62 63 64 64 64 64 62 62 61 58 58 58 57 53 48 44
23 24 24 25 28 23 26 9 19 24 26 25 24 24 24 29 33 35 37 39 40 43 46 46 43 40 39 36 36 38 40 44 58 62 63 63 63 63 64 64 63 62 61 59 58 58 55 49 44
26 30 30 30 29 28 25 22 20 24 21 22 24 27 30 32 34 36 39 41 41 45 45 46 45 43 40 40 37 37 38 42 44 51 59 62 63 64 63 63 63 62 62 61 60 59 56 50 47
33 30 30 29 28 25 25 21 20 22 21 23 26 29 30 32 35 37 40 41 42 44 44 44 43 42 42 41 41 39 38 40 41 47 53 56 56 59 62 62 61 61 62 61 61 59 58 53 49
31 28 26 24 25 21 23 23 20 19 20 24 26 29 31 33 35 37 41 41 42 42 43 42 42 42 42 43 42 42 42 42 41 41 42 47 54 57 59 61 60 60 61 62 61 60 58 54 51
30 27 24 17 21 21 20 21 19 18 22 24 25 28 30 32 36 39 41 40 40 41 42 42 42 42 42 43 43 44 44 44 44 44 45 45 47 51 55 59 60 60 60 61 61 60 58 57 53
32 29 26 24 16 18 19 18 19 20 20 21 23 26 30 33 36 40 39 39 40 41 42 42 42 41 42 42 44 43 43 45 46 46 47 48 50 53 54 55 58 59 60 60 60 59 58 58 55
35 32 28 27 19 13 15 14 14 18 19 20 22 27 32 34 38 39 38 38 39 41 41 41 41 41 41 41 41 42 43 45 47 49 50 50 50 51 51 53 54 55 57 59 59 58 57 56 54
33 31 30 26 24 22 14 11 17 19 20 20 25 29 32 35 39 38 37 37 39 40 39 40 40 40 39 40 40 42 44 45 48 49 48 48 49 49 50 50 50 51 52 54 54 53 53 53 51
34 33 31 27 24 20 20 16 18 19 22 25 27 31 33 39 38 38 36 36 38 38 39 39 40 39 38 38 39 41 43 45 45 44 45 47 47 47 46 46 46 47 47 49 49 48 47 48 46

GFSSGP_sfc_30mbdewp_045.txt.gz
Dewpoint
60 57 53 47 37 36 33 29 26 25 26 29 29 28 42 44 50 46 60 65 67 70 72 72 73 73 73 73 73 72 72 72 71 69 67 66 64 63 64 68 67 68 66 64 63 61 61 61 61
61 55 48 42 36 32 30 30 24 29 30 30 29 28 43 53 57 59 61 66 68 69 70 71 72 73 73 73 72 71 71 70 69 67 66 64 63 61 68 67 68 67 66 64 62 61 62 63 63
55 53 45 39 36 32 30 29 27 28 29 29 29 30 47 51 59 60 62 66 67 67 69 71 73 73 73 73 72 71 70 69 68 66 64 62 61 64 68 68 68 66 65 63 62 63 64 64 64
53 46 42 38 35 34 34 34 29 28 29 29 30 44 54 58 59 62 62 65 65 66 68 71 72 73 73 72 71 71 68 69 67 65 63 62 61 65 67 67 66 66 65 63 63 63 65 64 63
48 45 40 36 35 36 34 31 29 28 28 28 29 47 55 59 61 62 61 62 65 66 67 67 70 71 71 71 71 69 69 69 66 64 63 62 62 64 65 65 65 64 63 63 63 64 65 63 63
47 47 40 36 35 34 34 29 25 28 28 26 39 51 56 60 60 60 61 64 65 65 65 67 68 68 68 68 69 68 69 69 66 64 63 63 63 63 64 64 64 63 63 64 64 64 62 62 62
43 44 39 39 38 37 35 30 25 27 27 27 29 51 58 60 61 60 60 64 64 64 65 66 67 66 66 67 68 68 68 69 67 65 64 64 63 63 64 64 63 63 64 65 64 61 60 60 61
48 44 39 39 38 38 39 30 28 27 26 28 35 48 57 61 64 64 62 63 64 64 64 64 64 65 65 67 67 68 69 68 67 65 65 64 64 64 63 64 64 64 65 65 61 60 59 60 60
53 43 39 39 39 39 39 40 31 30 29 33 44 55 61 63 64 63 62 61 62 63 64 64 64 64 64 66 67 66 67 68 67 65 64 63 63 64 65 64 65 66 66 64 60 59 59 59 58
48 42 41 42 41 42 44 40 33 29 29 33 53 62 63 62 62 62 61 62 60 62 62 64 64 64 64 65 65 65 65 68 66 64 63 62 62 62 63 63 65 66 67 64 60 58 56 53 49
45 40 42 40 40 44 45 41 39 29 29 29 47 58 61 61 61 60 61 62 62 61 61 62 63 63 62 63 63 62 65 65 66 65 62 61 61 61 61 63 64 65 66 63 61 58 53 48 45
39 41 42 42 44 48 46 41 37 31 31 36 33 55 58 59 60 61 60 61 62 62 63 64 62 60 60 63 62 62 64 63 66 65 63 62 60 60 61 62 62 64 65 63 60 58 51 47 47
40 38 40 40 40 43 47 44 36 31 35 37 37 39 48 55 58 60 61 62 62 62 63 63 64 63 60 62 61 60 62 62 63 64 64 63 61 59 61 61 60 62 64 63 61 59 56 52 44
39 39 37 35 36 35 34 37 35 30 34 35 35 35 36 36 39 53 60 60 62 62 61 62 64 64 64 60 60 59 59 60 60 61 61 62 60 60 60 60 59 58 62 62 62 60 56 49 42
36 35 36 37 36 35 34 32 36 32 32 33 33 34 34 33 33 36 55 57 60 62 63 63 63 64 64 64 62 63 64 61 59 59 60 59 59 60 60 59 60 58 59 60 58 58 52 44 42
35 34 33 36 35 35 31 29 32 33 31 31 32 32 32 33 32 31 34 39 54 59 63 63 64 64 64 64 63 63 63 64 64 60 59 59 59 59 61 60 60 60 59 59 59 56 52 46 41
34 31 32 32 34 34 33 31 31 33 32 31 33 33 32 31 32 31 31 30 34 41 58 63 64 64 64 64 64 64 64 64 64 65 62 59 59 58 59 60 60 61 61 60 59 58 52 47 42
32 30 31 31 32 33 33 32 32 31 30 32 32 30 29 29 29 29 31 34 34 34 35 37 46 62 64 64 64 65 64 64 64 64 65 65 60 59 58 58 59 62 61 61 60 59 53 47 44
33 31 28 30 32 32 32 33 33 32 28 28 28 28 28 27 28 32 31 32 32 33 34 35 36 38 41 53 63 64 64 64 64 64 64 65 65 63 59 59 58 61 61 61 61 59 56 48 45
31 29 28 27 30 32 32 32 33 33 31 28 28 29 28 27 28 31 34 36 37 38 39 38 38 37 37 39 43 56 64 64 64 65 65 64 64 64 64 61 59 59 61 61 60 59 54 51 45
30 24 25 25 29 29 28 25 26 28 29 29 29 29 27 26 26 32 37 39 41 41 43 43 42 40 39 38 37 38 44 61 63 63 63 64 64 64 64 64 62 60 59 60 60 59 56 53 49
27 25 25 28 28 24 27 20 17 25 25 27 27 25 25 29 31 37 39 40 41 44 45 46 45 44 41 39 37 36 37 39 50 62 63 63 63 64 63 63 63 62 61 59 58 59 58 55 50
26 28 28 29 27 27 26 21 20 22 24 25 24 24 26 32 35 38 40 41 44 45 45 45 44 42 42 41 41 39 37 39 41 44 50 60 63 63 63 63 63 62 62 61 60 59 57 54 53
32 30 30 29 28 22 26 23 19 22 23 23 24 29 31 34 36 39 41 41 43 44 43 43 43 42 43 43 43 42 42 41 40 40 41 44 52 59 63 63 63 63 62 62 61 60 58 57 53
32 26 26 22 24 19 23 23 23 23 23 23 26 29 30 32 35 38 41 41 42 42 42 42 42 42 43 43 44 44 43 44 44 43 44 44 46 50 56 61 61 61 61 60 60 61 60 58 55
34 27 22 14 18 21 21 20 21 20 22 26 28 29 32 33 36 41 41 40 40 42 42 42 42 42 42 42 43 43 43 44 46 46 46 48 50 53 54 55 58 59 59 60 60 60 59 58 56
35 31 31 24 21 20 20 20 19 21 25 26 27 30 31 33 39 40 39 39 40 42 42 41 41 41 41 41 41 42 42 44 47 49 50 50 50 51 51 53 53 56 58 59 59 59 58 58 57
34 33 28 28 21 13 17 16 16 19 22 24 26 27 31 35 39 39 38 38 41 40 40 40 40 39 39 39 40 42 44 46 49 48 48 48 49 49 49 50 50 52 53 56 57 57 56 56 55
33 32 31 28 26 21 13 14 17 18 20 21 25 28 32 36 39 38 37 39 39 39 39 40 40 38 37 38 39 41 43 45 46 44 46 47 47 46 46 47 47 47 49 51 52 52 52 52 52
35 33 30 26 25 20 21 15 18 20 21 20 25 31 34 39 38 37 36 38 38 38 39 38 38 37 37 37 38 40 40 41 41 40 40 42 41 39 38 38 39 40 42 43 46 46 46 47 47

GFSSGP_sfc_30mbdewp_048.txt.gz
Dewpoint
61 58 54 45 37 36 33 30 27 25 27 29 30 45 49 48 48 40 61 66 70 71 72 73 73 73 73 73 72 72 72 71 70 68 67 66 64 63 68 66 67 65 64 63 62 61 61 61 60
60 53 46 41 36 32 30 32 30 27 29 30 29 36 49 53 57 62 63 68 69 70 72 73 74 74 73 73 72 72 72 71 68 67 66 64 62 68 68 67 68 66 64 62 61 61 62 62 61
59 51 43 39 36 32 29 30 27 28 29 29 29 44 50 55 59 61 65 67 69 69 71 73 73 74 73 72 72 72 71 69 67 66 64 62 63 69 68 68 67 65 63 62 62 63 64 63 62
50 46 41 38 36 35 34 35 33 28 29 29 41 50 56 59 59 63 66 67 67 68 70 72 73 73 73 72 72 70 70 68 66 65 63 61 66 68 67 67 66 65 64 63 63 64 64 64 64
49 44 40 36 35 37 36 36 32 28 28 28 36 51 56 60 62 65 66 66 66 68 70 72 73 73 72 71 71 70 70 68 66 64 62 62 65 67 66 66 66 65 63 63 63 65 64 63 63
44 45 40 37 37 36 36 35 31 28 27 34 52 55 56 60 60 64 64 65 67 67 68 69 71 72 71 71 70 69 69 68 65 64 63 63 64 65 66 66 65 64 63 64 64 64 63 62 62
41 40 38 39 38 38 37 40 30 27 27 27 50 54 58 60 63 62 64 66 66 66 67 68 68 69 68 68 68 68 68 68 66 65 64 63 64 64 65 65 64 64 64 64 64 62 62 61 61
45 42 37 39 38 40 40 42 41 27 26 28 51 53 57 61 64 63 64 64 64 65 66 66 67 66 66 67 67 67 68 68 67 65 65 64 64 64 64 65 64 64 65 65 63 61 60 60 60
50 41 37 38 39 39 44 43 42 35 36 46 54 57 60 63 63 63 63 63 63 64 64 65 64 64 65 66 68 68 68 68 67 65 64 64 63 64 65 64 64 65 66 64 61 60 60 60 59
45 40 39 40 39 40 45 45 43 39 35 51 59 62 62 62 62 61 61 62 62 63 63 64 64 64 64 65 66 66 68 68 66 65 64 63 63 63 64 64 65 66 66 64 61 59 59 58 53
47 40 40 40 41 46 47 46 45 40 32 44 54 60 60 61 61 61 61 61 62 63 63 63 63 63 64 64 65 65 65 67 66 64 63 62 62 62 63 63 64 66 66 64 61 59 55 50 45
43 43 42 43 44 48 45 46 45 42 34 34 52 60 59 58 59 60 61 61 61 62 62 63 64 63 63 63 64 63 63 64 66 64 62 61 60 60 61 62 63 64 65 63 61 58 54 47 46
40 41 42 46 49 48 48 47 46 45 44 38 53 59 58 58 57 59 61 61 62 62 63 63 62 61 62 63 62 61 63 63 65 65 63 62 61 60 61 61 62 62 64 63 61 60 58 53 49
43 39 41 44 45 46 45 45 47 45 40 36 42 45 50 56 58 59 60 60 61 62 63 63 64 62 60 62 61 61 62 63 63 65 65 63 62 60 60 60 60 61 63 63 62 61 59 56 51
40 38 38 38 38 36 40 41 43 45 39 35 35 34 35 35 39 58 60 60 61 62 62 61 63 64 63 61 61 60 60 61 61 62 63 64 63 60 60 60 60 59 60 62 62 61 60 56 50
35 36 34 36 36 35 33 32 40 44 36 31 33 33 33 33 33 33 54 59 60 62 62 62 63 63 64 64 62 62 63 63 60 59 60 61 62 61 60 59 59 60 58 59 60 59 58 55 48
35 31 32 33 36 34 32 30 31 34 33 32 31 32 32 32 32 33 32 41 47 60 61 63 63 63 63 64 64 63 63 63 64 64 61 59 59 59 60 60 60 60 59 58 59 58 55 53 48
31 31 30 31 35 34 32 32 32 33 32 31 31 32 32 31 31 31 32 33 35 37 44 54 62 63 64 64 64 64 64 64 64 64 65 65 61 59 59 60 60 60 60 60 59 58 56 52 50
32 30 31 32 33 33 32 33 33 33 33 30 31 31 30 28 30 32 32 32 35 36 36 36 37 38 55 63 63 63 63 63 63 64 64 64 65 64 60 59 59 60 61 60 60 59 58 54 47
32 30 29 29 31 32 32 31 33 33 33 32 29 29 29 28 29 33 35 37 38 39 40 40 39 38 37 40 45 59 63 64 64 64 64 64 64 64 64 61 59 59 60 60 60 60 57 56 49
31 30 28 26 30 30 29 28 30 32 33 32 31 29 29 28 29 34 37 39 41 42 43 44 44 43 40 38 38 39 41 58 62 63 63 64 64 64 63 63 63 60 60 60 60 60 59 57 51
29 28 26 27 29 27 27 24 22 27 27 30 30 29 28 26 28 36 39 40 41 44 45 45 44 42 42 41 39 37 36 37 44 53 60 62 63 63 63 63 63 62 60 59 60 60 60 58 55
29 27 27 29 28 27 25 23 21 22 21 26 28 27 26 29 34 38 39 41 44 45 44 44 42 43 43 42 42 41 40 40 41 42 42 46 51 59 63 63 63 62 62 61 60 59 59 58 58
32 30 30 30 27 22 24 23 22 20 19 22 26 25 26 34 38 39 41 44 44 43 43 42 42 43 43 44 44 43 43 43 43 42 42 44 46 50 56 60 62 62 61 61 60 59 58 58 57
31 26 23 22 23 21 24 24 22 24 24 24 24 27 32 35 38 40 41 42 42 42 42 42 42 42 42 43 43 43 43 44 45 45 45 46 48 52 53 55 58 61 61 61 60 60 59 58 57
30 27 22 17 19 20 22 20 19 24 24 24 26 30 32 34 37 40 41 41 41 42 42 42 41 41 41 41 41 42 43 44 46 48 49 50 50 51 51 52 54 56 58 58 59 59 59 58 58
33 30 30 24 21 20 20 22 21 22 23 26 27 30 30 33 38 41 40 40 41 41 41 41 40 40 39 40 40 42 44 45 48 48 48 48 49 49 50 50 51 52 53 56 58 58 57 57 57
35 34 27 27 20 14 17 19 16 20 23 26 28 29 32 35 40 39 39 41 40 40 40 40 39 38 38 39 40 42 45 48 47 47 46 47 47 46 47 47 48 49 50 52 54 54 54 54 54
33 32 33 29 26 21 18 16 18 19 24 26 28 30 32 38 39 38 38 40 39 39 39 39 38 37 37 37 39 41 41 42 42 42 43 43 40 40 39 41 43 44 45 46 48 48 48 49 49
37 33 30 27 25 22 21 17 20 19 22 26 27 29 34 38 38 37 38 38 38 38 38 38 37 37 36 37 38 39 39 40 39 39 38 38 37 37 36 37 37 38 40 40 42 43 43 44 44

GFSSGP_sfc_30mbdewp_051.txt.gz
Dewpoint
62 59 54 43 36 37 32 30 31 26 26 29 31 38 40 50 46 39 62 67 70 71 73 73 72 72 73 73 72 72 72 71 70 68 67 66 64 64 65 68 65 65 63 62 62 62 61 61 62
61 53 45 41 34 31 29 33 30 28 29 34 45 45 51 50 58 62 64 69 70 71 72 73 73 73 73 72 72 72 71 70 68 67 66 64 63 68 66 68 66 64 63 61 61 61 61 61 62
58 51 42 37 36 31 27 32 32 29 30 29 38 49 53 55 61 62 65 69 70 71 72 73 74 73 73 72 72 72 70 69 67 66 64 62 69 68 68 68 66 64 62 61 63 63 62 62 62
51 45 42 38 34 35 33 35 35 31 29 29 46 50 57 60 61 63 68 69 69 71 72 73 73 73 73 72 72 72 69 68 66 64 62 64 68 68 69 67 66 64 63 62 64 64 64 63 63
50 44 38 36 35 37 36 36 36 34 29 29 44 53 56 60 63 66 67 68 68 70 72 72 73 73 72 72 72 71 69 67 65 63 62 66 68 67 67 67 65 65 63 63 64 64 63 64 63
45 44 37 35 37 39 39 40 37 29 28 47 51 55 57 60 65 66 66 66 68 69 71 71 73 72 72 72 71 71 69 67 65 63 62 63 67 66 66 66 66 65 63 63 64 64 63 63 63
45 42 38 39 38 38 39 43 39 36 27 34 54 54 58 60 63 64 65 66 67 68 68 70 71 71 71 70 71 69 69 67 66 65 64 64 64 66 66 66 65 64 64 64 64 63 62 62 62
46 41 37 37 36 37 41 44 43 42 29 36 53 51 55 61 62 64 65 65 66 66 67 67 68 69 68 69 69 68 68 67 66 65 65 64 64 64 65 65 65 64 64 65 64 62 61 61 61
51 40 37 36 36 37 42 43 45 44 41 45 59 58 60 63 64 64 63 63 64 65 66 66 67 66 66 67 67 67 68 67 66 66 65 64 63 64 65 64 64 65 66 65 62 61 60 60 60
47 41 38 38 37 36 40 45 45 43 41 47 59 62 62 62 62 62 62 62 63 63 64 65 64 64 65 66 67 67 68 67 66 65 64 63 62 63 64 64 64 65 66 65 62 61 60 58 52
46 41 41 39 39 42 45 45 46 44 40 36 39 60 61 61 61 61 62 62 62 63 63 64 63 64 64 65 66 66 67 67 65 64 63 62 62 63 63 63 64 65 66 65 62 60 57 52 45
44 43 41 41 44 44 43 45 45 45 44 44 46 43 60 60 61 61 61 62 62 62 63 63 63 63 64 64 65 64 64 66 65 63 63 61 61 61 62 61 62 64 65 64 62 59 56 50 46
42 43 42 47 48 47 46 45 46 46 45 44 42 51 59 60 60 61 61 62 62 62 62 63 63 63 63 63 64 63 63 64 66 64 63 61 60 59 60 60 61 62 64 64 62 60 58 55 49
43 43 44 47 46 46 45 46 47 43 44 44 40 56 57 57 59 59 61 61 62 62 62 63 63 63 62 63 62 62 62 63 64 65 64 62 61 60 59 60 60 61 62 63 62 61 60 59 56
43 40 44 46 46 45 45 43 44 44 43 43 42 40 54 56 58 57 59 61 62 62 63 63 63 62 61 62 62 61 61 62 62 64 65 64 62 61 60 60 60 60 61 62 62 61 61 59 57
36 39 35 42 43 42 46 39 45 46 44 43 43 34 34 35 48 56 59 60 60 62 62 63 64 63 61 61 62 61 61 61 62 62 62 64 64 62 60 60 60 60 59 60 61 60 60 59 58
35 31 33 35 41 39 41 33 40 46 42 42 43 33 33 33 33 33 38 58 59 61 62 62 62 63 63 63 62 61 61 62 61 61 60 61 62 62 61 60 60 60 59 58 59 59 59 58 56
30 31 33 32 36 36 38 31 34 41 43 42 41 35 32 33 33 31 32 32 42 49 59 61 63 63 63 64 64 64 63 63 64 64 63 60 60 60 60 60 60 60 59 59 58 58 57 56 55
33 31 31 32 35 34 34 32 32 33 34 34 32 32 32 32 30 32 33 33 35 37 41 43 52 47 60 63 63 63 62 63 63 64 64 64 64 61 59 59 59 60 60 60 59 58 58 57 51
32 30 30 31 33 34 33 32 33 33 33 33 32 31 31 30 29 33 34 35 36 38 38 38 38 38 38 47 52 62 63 63 63 64 64 64 64 64 64 61 59 59 59 60 60 60 58 57 52
31 30 29 29 31 32 31 30 31 33 34 34 33 32 30 30 28 33 36 38 40 41 42 43 43 41 40 38 38 39 41 51 61 62 63 63 64 64 63 64 63 61 59 59 59 60 59 58 54
30 30 29 29 28 27 30 26 27 30 30 31 33 33 32 29 29 34 37 39 41 44 45 45 43 42 42 41 39 37 36 36 40 46 50 48 57 62 63 63 63 62 61 60 60 60 59 58 57
29 29 27 28 28 27 26 26 26 22 23 28 29 31 31 29 29 35 38 40 44 45 44 43 43 43 44 43 42 41 41 41 42 42 41 42 44 47 55 60 62 62 62 61 60 59 59 59 58
31 29 29 29 27 24 25 25 23 21 21 20 22 27 29 28 31 38 40 44 44 43 42 42 42 43 44 44 44 43 43 44 44 44 44 45 46 52 53 54 58 61 61 61 60 59 58 58 58
30 27 25 24 24 22 24 24 22 23 24 23 23 24 26 30 37 40 42 43 42 42 42 42 42 42 42 42 42 42 43 43 45 45 46 47 49 51 51 52 53 56 59 60 60 59 58 58 57
29 25 22 18 19 21 24 22 22 24 25 26 26 26 29 35 39 41 42 42 42 42 42 42 41 40 40 40 41 42 43 44 47 49 49 49 49 50 50 50 51 52 54 57 58 58 58 58 57
33 27 27 23 21 20 20 21 21 22 23 23 24 28 31 36 39 41 41 41 42 41 41 41 40 39 39 39 41 43 45 46 48 47 48 48 47 48 48 48 48 49 51 53 56 57 57 57 56
34 33 27 25 19 16 16 19 17 17 20 24 27 29 32 35 39 40 40 41 41 40 40 39 39 38 38 38 41 42 44 45 45 45 46 44 42 42 43 44 45 45 46 48 51 51 51 52 51
34 32 32 28 24 19 18 16 20 18 19 23 27 30 32 35 39 39 39 40 39 40 39 38 38 37 37 37 40 40 41 40 40 40 40 39 38 38 38 38 40 40 41 43 45 45 45 46 46
36 34 32 27 26 24 20 20 20 20 20 26 28 30 33 37 39 38 39 39 39 38 38 38 37 37 36 37 39 39 39 39 39 38 38 37 37 36 37 37 37 37 38 38 39 40 41 41 41

GFSSGP_sfc_30mbdewp_054.txt.gz
Dewpoint
62 59 52 43 33 36 28 27 33 29 25 28 29 32 36 49 45 34 63 67 69 71 72 73 72 72 72 72 72 72 71 70 69 68 67 65 64 66 68 65 65 64 62 62 62 63 63 63 64
61 51 44 40 33 27 26 33 30 31 29 46 43 48 50 50 59 62 64 68 70 71 72 72 72 73 73 73 72 72 71 69 68 67 66 64 65 66 68 66 65 64 61 61 61 60 61 63 64
57 49 41 37 34 28 22 33 35 34 32 31 42 52 54 55 61 62 65 69 70 71 72 72 72 73 73 72 72 71 70 68 67 66 64 64 69 67 68 67 65 63 61 62 62 62 62 63 62
51 44 41 36 33 33 33 35 36 36 30 29 44 49 57 60 61 63 69 70 70 71 72 73 73 73 73 72 72 71 69 68 66 64 62 69 68 68 68 67 65 64 62 63 63 63 63 63 64
50 43 37 36 35 37 37 38 40 34 30 29 46 50 56 60 64 68 69 69 68 71 72 73 73 73 73 72 72 70 68 67 65 63 63 69 68 68 68 67 65 64 63 64 64 64 63 64 64
44 43 36 33 35 38 39 42 38 39 30 40 52 54 56 62 65 67 68 68 70 70 72 72 73 73 72 72 71 70 69 67 65 62 63 68 67 68 68 66 66 65 63 63 64 63 63 63 63
44 40 37 37 36 37 39 43 41 41 36 30 54 53 58 61 65 65 66 68 69 70 70 71 72 72 71 72 71 70 69 67 65 64 64 66 67 67 67 66 66 65 64 64 64 63 63 62 62
48 43 38 38 36 36 41 43 44 43 37 41 53 50 54 61 64 65 66 66 67 68 69 70 70 71 70 71 70 69 68 67 66 65 65 65 64 65 66 66 65 65 64 64 64 62 61 61 61
49 42 36 36 36 37 44 41 45 45 43 46 56 60 61 62 64 64 64 64 65 66 67 67 68 69 68 68 69 68 67 67 66 65 64 64 64 64 65 65 65 65 65 65 63 61 60 60 59
46 41 40 39 37 35 43 42 44 42 43 37 44 46 59 63 63 63 63 63 64 65 65 66 66 66 66 67 67 67 67 66 66 65 64 63 62 63 64 64 64 65 66 65 62 61 60 57 52
47 42 42 39 39 41 44 44 46 44 40 42 45 45 46 61 62 62 62 63 63 64 64 64 65 65 65 65 66 66 67 66 65 64 63 62 62 62 63 62 64 64 65 65 63 61 57 53 47
43 44 43 41 41 42 42 44 43 45 43 47 45 43 44 56 60 61 62 62 62 63 63 64 64 63 64 65 65 65 66 66 64 63 63 62 61 61 62 61 62 63 64 64 62 60 58 53 47
44 43 43 45 44 43 45 44 45 44 46 47 44 43 51 57 60 61 62 62 62 62 62 63 63 63 63 63 64 64 64 66 65 64 63 62 60 60 60 60 60 62 63 64 63 61 59 57 52
43 43 43 45 45 46 43 44 46 41 43 44 43 43 44 58 60 60 61 62 62 62 62 63 63 63 63 63 63 63 63 63 65 65 63 62 61 60 59 59 59 60 62 62 63 61 60 59 58
43 39 44 46 46 46 44 42 43 44 44 44 44 44 42 41 57 59 61 61 62 62 62 63 63 63 63 62 62 62 62 63 63 64 65 63 62 61 60 59 59 60 60 61 61 61 61 60 59
40 40 37 43 45 44 41 37 40 46 47 45 44 42 42 37 39 56 59 61 62 62 62 63 63 63 62 62 62 62 61 61 62 62 63 64 64 62 61 60 60 60 60 60 60 60 60 59 59
36 34 35 39 45 45 40 37 41 47 46 44 41 41 41 38 34 34 45 59 60 61 62 62 63 63 62 62 62 62 61 60 61 62 62 62 64 64 62 61 61 60 60 59 59 59 59 58 58
33 32 34 34 42 44 40 34 40 46 43 40 40 40 41 38 35 34 32 33 51 58 60 62 62 63 63 63 62 62 61 61 62 61 61 61 61 62 62 62 61 60 60 59 58 58 58 58 57
32 31 33 33 36 38 41 39 34 44 42 39 37 40 38 36 35 32 32 33 34 40 47 55 61 61 63 63 62 62 62 62 62 63 63 64 62 60 60 60 60 60 60 59 59 58 58 57 54
32 30 30 31 35 37 34 36 36 35 41 40 37 39 37 33 31 31 32 35 36 37 39 41 43 42 51 60 61 62 62 62 63 63 63 63 64 64 63 61 59 59 59 59 59 59 58 57 54
31 29 29 30 33 32 33 32 33 34 34 34 36 38 35 32 31 31 34 36 38 39 40 40 41 40 39 38 39 40 42 47 57 61 62 62 63 64 63 64 63 62 60 59 59 59 59 58 55
30 31 29 30 30 29 30 27 30 32 33 33 33 34 33 32 30 31 35 38 39 42 45 43 42 42 41 41 38 36 36 36 39 41 43 42 46 52 59 62 62 62 62 60 60 59 59 58 58
29 30 28 29 28 27 26 27 27 26 30 32 32 33 34 33 31 30 35 39 42 45 43 43 43 43 44 43 42 41 41 42 43 42 42 43 45 48 52 54 56 59 60 61 60 60 59 59 58
31 29 29 28 27 23 25 26 25 24 23 24 25 30 31 32 31 31 37 42 44 43 42 43 43 43 44 44 43 43 43 43 43 44 44 45 47 51 51 52 53 56 57 58 59 59 59 58 58
30 27 25 23 23 22 23 25 23 24 24 23 22 22 24 29 29 34 39 43 42 42 42 42 42 41 41 42 42 42 43 43 44 45 46 47 49 50 50 50 50 52 54 57 59 59 59 57 57
29 27 23 17 19 21 24 22 23 24 24 25 26 25 26 27 32 36 41 42 42 42 42 42 41 40 40 40 41 43 44 44 46 48 49 48 48 49 49 48 49 49 52 53 57 58 58 57 57
31 27 24 21 20 19 21 22 20 20 21 23 24 24 27 31 36 40 42 42 42 41 41 41 40 39 39 40 41 43 46 46 47 47 47 46 45 45 45 46 46 47 48 50 54 55 54 55 54
32 31 26 24 18 16 17 18 17 17 19 20 21 25 29 35 40 41 41 41 41 41 40 39 39 38 38 39 41 42 43 44 44 45 43 41 40 40 40 41 42 42 43 46 48 49 50 49 48
32 30 30 27 23 18 16 17 19 19 18 18 20 27 31 36 40 40 40 41 40 40 39 38 38 37 37 38 40 40 40 40 40 39 39 38 37 37 38 38 39 39 39 41 43 43 45 45 44
36 33 30 25 24 24 20 20 22 20 20 21 24 29 32 36 40 40 40 39 39 39 38 38 37 37 37 37 39 39 39 39 38 38 37 37 37 37 37 37 36 37 37 37 39 39 39 39 39

GFSSGP_sfc_30mbdewp_057.txt.gz
Dewpoint
62 57 51 43 31 34 25 26 34 30 26 31 32 34 36 46 42 32 63 67 67 69 71 70 72 72 72 72 72 72 71 70 69 68 66 64 67 68 66 66 64 62 62 63 64 64 65 65 65
61 52 44 40 31 25 25 33 31 33 32 34 40 48 49 49 59 62 64 67 68 70 70 70 72 72 73 73 72 72 71 69 68 67 65 64 66 69 67 66 64 61 61 61 62 62 64 64 64
56 49 41 36 33 25 20 33 35 36 36 34 39 53 54 55 61 63 65 69 69 70 70 71 72 73 73 72 72 71 69 68 67 66 63 65 66 69 67 66 64 62 62 62 62 62 63 63 64
52 44 42 34 31 33 31 36 38 36 31 30 43 50 57 60 62 63 68 68 70 70 70 71 73 73 73 72 72 70 69 67 66 64 65 69 67 69 68 66 64 63 64 63 63 63 64 64 64
49 43 37 35 33 35 37 38 40 38 31 32 47 49 56 62 65 68 69 69 68 70 70 70 73 73 72 72 71 70 68 67 65 63 67 69 67 69 68 66 65 63 64 64 63 64 64 64 64
45 43 34 32 34 38 39 42 38 40 36 35 51 54 57 62 65 67 68 68 67 69 71 71 72 73 72 72 71 70 68 66 64 64 69 69 70 69 66 66 65 64 63 64 64 63 63 63 63
42 40 35 34 35 37 39 43 41 39 37 38 51 52 57 62 65 67 68 69 68 70 70 71 71 71 72 72 71 70 68 67 65 64 68 68 67 67 67 67 65 65 64 64 64 63 63 63 62
48 40 38 38 35 34 41 43 44 42 41 44 58 53 54 60 65 66 68 68 69 70 70 70 70 70 70 70 70 69 68 67 66 65 66 65 66 67 67 65 66 65 64 64 64 62 61 62 61
51 42 36 37 36 38 44 41 45 45 44 45 50 51 55 63 64 64 65 66 67 68 69 69 69 69 69 70 69 68 67 67 66 65 65 64 64 64 65 65 65 65 65 65 63 62 61 60 59
45 41 39 39 38 41 44 42 44 42 39 40 45 46 45 62 62 63 63 63 65 66 67 67 68 68 68 69 69 68 67 66 65 64 64 63 63 64 64 64 64 65 66 65 63 61 61 56 53
47 40 41 40 40 42 42 43 45 42 39 43 44 44 45 50 61 61 62 63 64 65 65 66 66 67 67 67 68 67 66 66 65 64 63 62 61 63 64 63 63 64 65 65 63 61 58 54 49
43 46 43 41 42 43 41 43 42 43 41 46 46 44 45 50 57 60 62 62 63 64 65 65 65 65 65 66 66 66 66 65 65 64 63 62 61 61 62 61 62 63 64 64 64 62 60 57 50
43 44 45 45 43 43 43 44 43 43 46 47 44 44 44 47 57 61 62 62 63 63 64 64 64 64 64 65 65 65 66 66 65 64 63 62 61 60 60 60 61 62 63 63 63 62 61 59 57
44 43 43 45 43 45 42 43 45 42 43 44 45 45 45 43 51 60 61 62 62 63 63 63 64 64 63 64 64 64 64 65 66 65 64 63 62 61 60 59 59 59 61 62 63 63 62 60 60
43 40 44 45 44 45 44 41 40 45 45 45 45 44 44 43 41 57 60 62 62 62 63 63 63 64 63 63 63 63 64 63 64 65 65 64 62 61 61 60 59 59 60 60 61 62 62 61 60
40 40 37 43 45 46 41 33 39 46 44 43 45 44 43 43 40 38 56 61 62 62 62 63 63 63 63 63 63 63 63 63 63 63 64 65 64 63 62 61 60 60 60 60 60 60 60 60 60
38 34 34 40 45 44 42 38 39 44 43 40 40 44 42 42 41 37 36 56 61 62 62 62 63 63 63 63 63 63 63 62 62 62 61 62 63 64 63 62 62 61 61 60 60 60 60 59 59
33 33 34 36 43 44 41 36 41 45 43 40 41 43 42 41 40 39 34 33 41 60 61 62 63 63 63 63 62 62 62 62 62 61 62 62 62 63 63 63 62 62 61 61 60 60 59 59 58
33 34 32 33 42 42 41 39 36 44 44 40 40 42 40 40 39 37 35 33 33 42 55 61 62 62 63 63 62 62 61 62 62 62 62 62 61 61 61 62 62 62 61 60 60 60 59 58 58
34 32 32 31 40 40 39 39 39 40 43 39 40 39 41 39 36 34 33 33 34 36 42 48 58 59 61 62 63 63 63 63 63 63 63 63 63 64 63 62 61 60 60 60 60 60 58 58 57
31 31 30 30 36 34 35 34 35 37 40 42 41 40 39 37 36 34 32 33 36 38 39 41 43 43 44 51 49 48 48 51 58 61 62 61 59 63 64 64 64 63 61 61 60 60 59 59 57
30 31 30 31 31 29 31 26 31 33 33 35 39 39 39 38 33 33 32 34 38 40 43 42 42 41 41 40 39 39 42 42 41 42 44 43 44 46 53 60 62 63 62 61 61 60 60 59 58
30 30 30 30 29 27 28 29 28 30 32 33 34 34 35 35 34 33 32 35 39 44 44 43 43 43 44 43 41 40 40 41 43 44 44 46 47 52 53 54 55 57 58 58 59 59 59 59 59
30 29 28 28 26 24 26 28 26 25 26 28 32 33 34 34 34 34 33 38 42 44 43 44 44 44 44 44 44 43 43 44 44 44 44 46 48 52 51 51 52 54 56 56 57 57 59 59 59
29 28 26 23 22 21 23 25 25 25 24 24 24 24 26 32 33 32 34 40 43 43 43 43 42 42 42 42 42 43 43 43 44 45 46 47 49 49 50 50 49 50 52 54 57 58 59 58 58
28 26 22 17 19 22 24 22 22 26 26 25 25 26 26 26 28 32 36 41 43 42 42 42 41 41 41 41 42 43 44 44 46 48 49 48 48 48 47 48 48 48 49 51 55 57 58 58 57
30 26 24 20 20 19 21 22 21 22 21 20 21 24 24 25 29 32 40 42 42 42 42 41 40 40 40 41 42 43 46 46 47 47 47 46 44 43 44 44 45 45 46 49 52 53 54 53 53
31 30 26 24 18 15 17 17 15 16 18 20 19 19 23 29 35 39 42 42 42 41 41 40 40 39 39 40 41 42 43 44 45 45 43 40 39 39 40 41 41 42 43 45 48 49 49 48 48
30 29 28 26 22 18 16 15 20 20 20 19 20 22 27 32 38 41 41 41 41 40 39 39 38 38 38 39 40 41 41 40 40 40 39 38 38 38 38 39 39 39 40 41 43 44 44 44 43
34 30 28 24 23 23 21 20 23 20 21 21 22 28 31 36 40 41 41 40 40 39 38 38 38 37 37 38 39 39 39 39 38 38 37 37 37 37 37 37 37 37 37 38 39 39 39 39 38

GFSSGP_sfc_30mbdewp_060.txt.gz
Dewpoint
61 55 51 45 30 28 21 23 31 28 25 30 32 29 36 43 36 37 62 63 61 63 67 70 73 73 72 72 71 71 70 69 69 67 65 68 67 66 66 64 62 63 64 64 65 66 65 65 65
59 50 46 42 26 22 20 26 27 30 32 34 42 43 40 40 56 61 61 65 63 64 66 67 73 73 72 72 72 71 70 69 68 67 64 67 68 67 66 64 61 62 62 63 64 65 65 64 64
55 50 40 33 25 21 18 29 31 35 36 37 39 49 49 52 59 60 63 65 63 65 64 67 71 72 73 72 72 71 69 68 67 66 64 66 69 67 66 64 62 63 63 62 63 64 64 65 64
50 46 41 30 23 24 25 34 37 34 31 35 37 46 57 61 60 62 64 64 64 64 64 70 71 73 73 72 72 70 68 67 66 64 66 67 69 68 66 64 63 64 63 63 64 64 65 65 64
49 42 31 28 25 27 34 38 38 34 30 35 42 46 55 62 65 65 65 66 63 64 64 68 72 73 73 72 71 70 68 67 64 65 69 69 69 68 66 65 64 64 64 63 64 65 64 64 63
43 39 29 26 27 34 37 40 38 34 32 41 45 48 56 64 65 66 66 64 64 64 65 68 72 72 73 72 71 70 68 66 63 67 70 68 70 68 66 66 65 64 64 64 63 63 64 64 62
40 36 31 27 27 35 37 42 38 35 35 42 49 48 58 63 65 67 66 63 64 65 65 67 68 70 72 71 70 69 68 66 64 68 69 69 68 67 66 66 65 64 64 65 64 63 63 63 61
40 37 33 31 30 31 41 43 44 37 42 51 56 53 55 58 64 67 68 65 65 67 66 65 68 67 67 69 69 69 68 66 65 66 66 66 67 66 65 65 66 65 65 65 63 62 62 62 61
46 39 36 35 31 36 42 41 44 44 44 45 46 46 46 62 65 66 66 66 65 66 67 66 65 65 65 67 67 67 67 66 65 64 64 64 60 62 63 64 65 65 65 65 63 61 61 60 59
44 39 37 36 35 39 42 40 42 41 41 43 43 43 49 63 63 64 64 63 64 63 65 66 66 65 65 66 66 66 65 64 63 62 60 56 56 58 59 63 64 65 66 65 63 61 61 56 51
44 40 38 37 40 41 41 43 44 39 39 42 42 43 44 51 61 62 62 61 62 62 64 65 66 65 65 65 66 67 65 64 64 63 61 59 57 57 57 58 59 60 64 61 61 60 56 52 48
43 41 39 39 41 41 39 42 41 41 40 44 45 44 44 47 53 60 62 62 62 63 63 64 65 65 64 64 65 65 63 63 63 63 62 61 60 60 57 54 56 58 57 58 60 59 58 58 54
45 42 43 39 42 41 41 40 40 40 41 45 44 44 44 44 47 58 61 63 63 62 62 64 64 64 65 65 64 64 63 63 63 64 63 62 61 61 60 56 54 54 56 57 57 58 58 57 56
42 43 43 43 44 41 40 39 44 38 42 43 43 43 44 44 43 52 60 62 63 63 63 65 64 64 65 65 65 64 63 63 63 64 64 63 62 61 61 59 57 54 55 56 58 59 60 59 59
39 40 42 44 43 41 42 40 40 38 40 42 42 41 43 43 43 42 54 60 62 63 64 64 64 64 64 64 64 63 63 63 63 63 64 64 63 62 61 60 59 59 58 58 59 59 60 60 60
35 37 36 40 43 42 44 34 37 38 42 40 40 40 42 42 43 42 40 57 61 63 63 64 63 63 63 62 63 62 62 62 62 62 63 64 63 62 62 60 60 60 60 60 60 60 59 59 59
35 26 30 36 41 42 41 33 37 41 42 39 39 37 38 40 42 42 39 45 59 62 63 63 63 63 63 63 63 63 63 62 61 62 62 62 62 61 62 61 61 61 61 61 61 60 60 60 59
27 26 27 31 41 41 40 38 36 41 41 35 36 36 37 39 41 42 40 36 49 60 63 63 63 64 64 64 63 63 63 62 62 62 61 61 61 62 62 62 62 62 62 61 61 61 61 60 60
25 27 29 31 40 40 39 39 39 38 42 39 37 35 36 39 41 41 40 37 35 39 59 62 63 63 64 64 63 62 62 63 63 63 63 62 62 62 62 62 62 63 62 61 61 61 60 60 60
28 26 27 33 40 39 37 37 39 38 40 41 38 34 36 38 40 40 38 37 35 36 44 58 61 62 63 63 63 63 63 63 62 63 63 63 63 63 63 63 63 63 63 62 62 61 61 60 61
28 26 30 29 40 38 36 34 36 38 38 39 40 36 33 36 39 39 36 35 38 38 39 44 52 60 62 63 62 61 60 60 62 63 64 64 61 64 64 64 64 64 64 63 63 63 62 60 61
30 31 32 35 31 24 33 16 24 30 35 37 37 38 37 39 39 37 36 35 37 40 42 43 44 46 48 53 57 58 59 59 54 51 48 47 45 46 48 56 61 63 63 62 62 62 62 61 59
30 32 30 31 24 25 27 22 18 27 27 29 33 34 37 38 38 37 37 37 38 43 45 44 43 43 43 42 42 44 43 41 42 43 44 45 47 51 52 51 53 53 55 57 58 58 58 60 59
31 30 29 29 26 22 21 23 17 21 23 24 29 32 34 35 36 36 37 37 38 45 46 45 43 43 44 44 44 43 43 42 43 44 44 45 46 50 51 51 52 53 54 55 55 55 56 56 56
30 27 24 21 23 18 24 25 17 25 25 26 25 26 29 32 34 35 36 37 39 44 45 45 43 43 44 44 44 44 45 44 44 45 45 45 46 49 50 50 50 50 51 53 55 55 56 57 57
30 24 20 15 15 16 24 20 18 25 27 27 26 25 26 27 26 30 35 36 40 44 44 43 43 42 42 43 43 44 44 44 44 46 47 47 48 48 48 48 48 49 49 50 52 54 56 58 58
30 27 24 22 20 20 18 22 22 23 24 23 21 22 22 24 27 29 33 36 40 43 43 43 42 42 42 42 43 43 45 45 45 48 48 48 46 44 44 45 45 46 47 49 51 53 54 54 54
31 29 24 27 19 14 16 16 10 18 20 21 21 22 24 25 28 31 33 39 41 42 43 42 41 41 41 42 42 43 44 46 47 47 46 44 42 42 42 43 43 44 45 47 49 50 49 49 49
30 29 29 26 24 18 12 10 19 20 21 22 22 25 28 30 32 36 38 41 42 42 42 41 41 40 40 40 41 42 42 43 44 44 43 41 40 40 40 41 41 41 42 44 46 46 46 45 45
32 29 28 22 23 24 21 18 22 22 22 22 25 27 30 34 37 39 40 41 41 41 40 40 40 39 39 39 40 40 41 41 41 41 40 39 39 39 39 39 39 39 40 41 42 42 42 42 42

GFSSGP_sfc_30mbdewp_063.txt.gz
Dewpoint
63 57 48 47 35 26 23 26 27 30 27 28 30 32 38 44 38 46 57 57 61 63 67 70 73 72 72 71 70 70 70 69 68 66 68 67 66 66 63 62 64 65 65 67 67 66 65 65 64
57 50 47 37 31 20 19 24 26 28 31 32 36 37 36 46 55 58 58 59 60 63 67 67 73 72 72 71 71 70 70 68 67 65 67 68 67 66 63 62 63 63 64 65 66 65 65 65 64
59 49 38 30 26 21 17 21 26 30 34 35 32 42 45 52 57 57 59 60 59 62 64 69 73 73 72 72 71 70 69 68 67 65 66 69 68 66 63 62 63 63 63 64 65 65 65 65 64
51 44 41 31 25 24 20 25 26 30 30 36 35 39 56 61 59 60 60 59 59 61 63 71 73 73 73 72 71 70 68 67 66 64 66 69 68 67 64 63 64 64 63 64 64 65 65 64 64
54 41 31 29 27 24 24 31 33 27 27 34 38 41 54 63 63 62 60 59 59 60 65 67 72 72 72 72 71 69 67 66 64 66 67 68 69 67 65 64 65 64 64 64 65 65 65 64 62
44 41 32 27 27 26 28 36 34 28 28 38 39 43 58 64 64 63 62 59 60 60 64 67 72 72 72 71 70 69 67 64 65 68 70 68 69 67 66 65 64 65 64 63 64 64 64 63 62
42 36 35 29 27 27 33 39 35 28 28 41 47 43 59 61 66 67 63 59 60 60 63 66 68 70 71 70 70 69 67 64 66 70 69 70 67 66 66 66 64 64 65 64 63 63 63 63 61
43 37 34 32 28 29 34 41 41 36 36 52 53 49 55 58 65 67 65 59 59 60 66 64 67 67 67 69 69 68 67 65 67 68 67 67 67 66 66 65 65 64 65 64 63 62 62 62 60
46 40 36 34 30 32 38 39 43 44 43 47 47 47 49 63 65 67 64 62 62 62 65 66 66 65 66 66 67 67 66 65 65 66 65 64 61 63 62 65 65 65 65 64 62 62 62 60 59
46 42 39 37 33 36 39 37 41 41 43 43 43 47 60 63 64 64 63 63 62 64 64 66 66 65 65 67 65 65 64 63 61 58 59 56 55 58 60 63 64 65 66 65 63 61 61 56 52
44 40 40 37 39 39 40 40 41 40 41 42 42 43 50 61 62 63 63 62 61 62 65 65 65 65 65 66 65 65 65 64 62 61 59 54 53 55 54 58 60 61 64 61 61 61 58 52 49
42 41 40 41 41 40 39 41 40 39 41 43 42 43 44 54 60 61 62 61 60 60 62 63 65 65 65 64 66 65 64 62 62 61 61 59 58 57 54 53 54 57 58 56 58 57 56 56 55
43 42 39 41 41 39 40 40 38 39 40 43 43 42 42 46 55 60 61 63 62 61 61 61 63 63 62 63 65 64 62 60 60 61 62 60 60 60 58 54 51 52 53 54 55 56 55 55 55
43 44 43 42 43 41 40 39 39 38 39 41 42 41 42 43 45 55 60 62 62 62 61 61 62 62 60 63 63 62 60 59 59 60 61 62 60 60 59 58 56 52 52 53 54 57 58 58 58
40 41 44 41 44 38 41 39 39 38 36 39 40 40 41 42 43 44 54 60 62 62 62 62 63 63 63 64 64 63 60 59 59 59 60 61 61 59 59 58 58 58 56 55 56 57 58 59 59
36 39 38 40 42 40 40 33 38 40 38 36 38 39 38 41 41 43 42 55 60 61 62 63 63 62 61 62 63 61 59 59 59 59 60 62 61 60 60 59 59 59 59 59 59 59 58 58 58
34 30 37 39 39 39 39 33 36 42 39 38 38 38 37 38 41 42 43 41 57 60 62 63 63 63 62 61 61 61 61 61 60 60 60 61 61 61 61 61 61 61 61 60 60 60 59 59 58
26 25 27 34 38 38 37 33 37 38 38 37 36 36 36 36 38 41 42 38 50 59 61 62 63 63 63 63 63 63 62 61 61 60 60 61 61 61 61 61 61 61 61 61 60 60 60 60 60
22 21 18 27 35 36 37 38 38 35 38 38 35 34 34 35 37 41 41 40 38 52 59 61 63 63 63 63 63 63 63 62 62 61 62 62 61 61 62 62 62 61 61 61 60 60 59 60 61
21 22 24 25 38 36 34 35 35 35 36 37 37 36 34 34 36 41 40 39 38 37 51 59 61 63 63 64 64 63 63 63 62 63 63 63 62 62 62 62 62 62 62 62 61 60 60 60 61
22 23 27 29 32 36 31 29 31 35 37 36 38 38 35 33 35 39 40 39 39 38 38 51 59 61 62 63 64 64 63 63 63 63 63 64 64 64 64 64 64 65 65 64 64 63 63 61 61
22 24 23 26 31 25 30 19 25 29 32 37 37 36 37 36 36 39 39 38 38 39 41 41 47 56 61 62 62 61 60 60 60 60 61 59 52 52 53 57 61 63 63 63 63 63 63 62 60
25 26 28 31 29 22 28 23 17 21 25 30 33 35 35 37 36 39 39 38 38 41 45 44 44 46 48 52 57 59 59 58 50 46 45 44 46 49 50 50 51 52 53 55 56 57 57 58 58
31 31 30 29 23 21 21 19 13 18 21 19 23 27 31 33 36 38 39 39 39 44 47 46 44 43 44 44 45 46 46 43 43 44 44 44 45 48 51 51 51 52 53 54 55 55 56 55 55
27 26 21 19 22 19 22 18 17 22 23 24 24 25 27 29 32 34 36 37 38 44 47 46 44 44 44 44 43 43 44 44 43 44 44 44 44 47 49 51 50 50 51 51 52 54 55 54 54
25 21 19 14 15 15 22 18 16 21 23 25 25 24 25 26 26 27 31 37 39 43 46 45 43 43 43 43 43 44 44 44 44 45 45 45 46 47 49 48 48 48 48 49 50 52 53 55 56
29 27 25 22 19 16 18 17 20 23 22 23 21 22 22 22 24 27 30 32 36 40 44 44 43 42 43 43 43 43 44 44 44 46 47 47 47 46 45 45 45 46 46 47 48 51 51 54 54
31 28 22 26 18 10 14 13 10 17 19 21 23 25 27 29 29 28 29 31 35 40 43 43 42 41 42 42 42 43 44 45 46 46 46 46 44 43 43 44 44 44 44 46 48 49 50 50 50
29 28 27 25 23 18 9 9 18 18 21 22 24 28 29 31 32 34 35 36 39 42 43 42 41 41 42 42 42 42 43 43 44 45 45 44 42 42 41 41 42 42 42 44 46 47 47 47 46
30 26 25 21 23 21 21 17 20 21 22 23 26 28 29 30 35 37 38 38 40 42 42 42 41 41 41 41 41 41 42 42 42 42 42 41 41 40 40 40 40 40 41 42 43 43 44 44 44

GFSSGP_sfc_30mbdewp_066.txt.gz
Dewpoint
63 61 58 49 42 35 29 26 30 38 34 33 32 34 40 54 52 48 57 61 67 68 70 72 72 72 71 71 70 71 70 69 67 69 67 66 65 62 62 65 63 63 67 66 65 64 64 64 64
60 56 46 46 33 29 23 26 27 35 32 32 36 37 42 54 56 55 58 62 66 68 69 71 73 72 71 71 71 71 69 68 66 69 67 67 65 62 63 63 64 64 66 66 64 65 65 65 64
61 58 42 38 33 28 25 22 28 30 33 34 33 45 54 58 56 57 59 61 65 67 67 71 73 72 72 72 71 70 68 67 66 68 69 68 65 62 63 63 63 64 65 63 65 65 65 65 65
55 51 45 34 28 28 27 22 28 31 33 35 36 52 60 64 62 62 60 60 65 65 70 72 73 72 72 72 71 69 67 67 65 67 70 68 66 63 64 64 64 64 64 65 65 65 64 65 64
56 46 38 35 31 28 26 30 31 30 29 32 38 47 58 63 65 62 60 59 62 68 70 72 73 72 72 72 70 69 67 65 64 67 69 69 67 64 64 65 64 64 64 65 65 65 64 63 65
48 46 34 31 31 30 28 34 33 31 28 36 36 39 61 64 65 64 60 59 61 67 68 71 72 72 72 71 70 68 66 65 68 69 69 69 67 66 64 65 65 64 64 64 64 64 64 62 65
47 40 38 33 30 29 34 37 34 32 28 41 49 45 61 62 66 66 63 59 62 65 67 69 70 72 72 70 69 68 66 67 70 69 69 69 68 67 66 64 64 65 64 64 63 63 63 62 63
48 43 36 38 32 28 37 39 42 40 43 51 50 50 56 61 65 66 67 60 60 64 65 67 69 70 70 69 68 67 65 68 68 69 69 67 67 67 66 66 65 65 65 64 63 63 63 62 60
49 41 36 37 35 32 39 40 43 43 45 46 46 49 60 64 66 66 65 59 64 65 64 68 68 68 68 68 68 66 65 65 67 66 66 65 65 65 64 65 65 65 65 64 62 62 61 59 59
46 41 39 39 37 35 39 39 42 42 44 43 50 59 62 64 65 65 62 61 62 64 64 66 65 65 67 67 67 65 64 62 61 65 64 63 62 63 64 65 65 66 65 64 62 62 60 57 56
45 40 42 41 42 39 38 38 41 42 41 43 43 53 61 62 63 64 62 62 61 65 65 67 65 65 67 66 65 65 64 64 61 58 57 57 57 59 62 63 63 64 65 64 63 61 59 57 51
43 43 41 42 44 41 39 40 39 42 42 42 43 45 58 61 61 63 63 62 61 64 65 66 65 65 67 67 65 65 64 63 63 62 60 56 56 55 54 60 60 61 62 62 61 60 59 57 55
43 42 42 42 46 42 41 40 40 42 43 44 43 43 46 57 60 61 62 63 63 62 64 65 66 65 65 66 66 65 63 62 63 62 61 60 60 59 59 54 54 56 58 56 57 57 56 56 55
43 43 41 45 46 47 39 39 39 39 40 41 42 42 43 45 53 60 61 62 63 63 63 64 64 64 64 64 65 65 63 62 60 62 62 61 61 61 60 58 55 53 53 54 55 55 58 58 58
41 41 43 44 46 42 40 37 38 39 39 39 41 41 42 43 44 53 60 61 62 63 63 63 63 62 62 63 63 64 63 60 60 61 61 61 61 60 60 59 58 57 55 54 55 57 58 59 59
37 40 38 39 45 46 40 37 39 38 38 40 40 40 40 42 42 44 45 60 62 62 62 63 64 64 63 64 64 64 63 59 60 60 61 61 61 61 60 59 59 60 59 59 58 58 59 59 59
34 35 36 35 40 45 42 37 38 39 42 40 39 38 39 39 41 43 43 49 60 61 62 63 63 63 62 64 64 64 61 60 59 60 61 62 62 61 61 61 61 61 61 61 60 60 60 59 59
29 33 37 34 38 42 40 36 39 41 42 41 39 38 38 38 40 42 43 41 54 60 62 63 64 63 63 62 63 62 62 61 61 61 61 61 62 62 61 61 61 61 61 60 60 60 60 60 60
30 31 36 37 41 40 40 37 34 39 41 41 39 38 38 39 37 42 42 39 42 58 60 62 63 63 63 63 63 62 62 62 62 62 61 61 61 61 61 62 62 60 61 60 60 60 59 59 60
26 26 28 36 39 38 35 36 37 37 38 37 38 37 35 36 36 42 41 40 38 42 59 61 63 64 63 64 64 64 64 64 63 63 63 63 63 63 63 62 62 62 62 62 62 62 61 60 61
22 21 27 35 38 41 35 34 34 36 37 36 37 38 37 37 35 41 41 40 38 38 43 59 62 63 64 64 64 64 63 64 63 63 63 63 63 63 64 64 64 64 65 64 64 63 62 61 61
22 25 30 32 32 29 33 23 30 32 33 36 37 37 38 38 37 40 40 40 40 39 40 41 53 61 63 64 64 63 62 61 62 63 63 59 54 53 53 55 60 63 63 63 62 63 62 62 60
23 24 27 30 29 25 29 26 21 27 28 33 36 37 37 37 37 38 40 40 40 42 42 42 43 49 57 62 63 62 61 61 53 49 50 47 47 48 50 50 51 52 53 54 56 56 58 58 57
29 29 30 30 29 23 24 25 18 22 25 26 35 37 36 36 37 37 40 39 40 44 46 45 44 45 48 51 55 58 59 50 46 45 44 45 47 51 51 51 51 52 53 53 54 56 56 56 55
31 27 23 21 21 20 22 21 19 22 22 23 24 27 29 33 34 36 40 40 41 44 47 47 45 44 45 45 46 46 46 44 44 45 45 45 45 48 51 51 50 50 50 51 51 52 54 55 53
30 24 21 14 18 20 22 18 19 23 24 25 24 24 26 26 27 28 29 38 41 43 46 46 45 44 44 45 44 45 45 45 45 45 45 46 46 48 48 48 48 48 47 48 49 50 52 54 54
26 25 25 24 18 20 21 19 22 24 23 23 22 25 27 27 26 25 31 31 34 45 47 46 44 44 44 44 44 44 45 45 44 47 47 48 47 45 44 45 45 45 46 46 47 49 51 53 53
33 29 22 24 14 12 16 15 16 21 20 23 26 28 30 31 31 31 30 32 34 39 46 46 44 43 44 44 43 44 45 46 46 47 47 46 45 44 43 44 44 44 44 45 46 48 49 49 50
30 32 28 26 24 21 15 14 18 20 22 24 27 29 29 31 34 35 36 35 37 42 44 44 43 43 43 43 43 44 44 45 46 46 45 44 43 42 42 41 42 42 42 43 44 46 46 47 46
34 27 27 24 23 22 21 19 20 23 23 23 27 28 30 31 34 37 38 38 40 41 43 43 42 42 42 42 42 43 43 43 43 43 43 42 42 41 40 40 40 40 40 41 41 43 43 44 44

GFSSGP_sfc_30mbdewp_069.txt.gz
Dewpoint
60 61 61 52 40 39 33 27 30 39 40 41 33 39 54 56 53 48 62 69 70 70 71 72 72 71 71 70 70 70 69 68 69 67 66 63 62 64 63 63 67 67 65 65 64 64 64 63 62
63 62 54 46 38 31 25 29 27 35 37 38 42 45 52 53 56 58 66 69 69 70 71 72 72 72 71 71 70 70 68 68 68 68 66 63 62 63 64 63 63 65 64 63 64 65 64 64 62
59 61 44 43 36 30 27 24 26 34 33 35 39 44 54 56 60 60 66 67 69 69 71 72 72 72 71 71 70 68 67 67 69 69 67 63 62 63 63 64 64 65 63 63 65 65 65 64 63
55 54 49 38 32 32 30 28 27 33 34 35 43 45 59 65 63 63 66 68 68 68 71 72 72 71 72 71 70 68 67 66 70 70 68 64 63 63 63 64 65 65 65 65 65 64 65 64 63
55 51 41 39 35 31 31 29 31 31 33 34 45 51 52 64 65 63 64 67 67 70 72 72 72 72 72 71 69 68 66 65 69 70 68 66 63 64 64 64 64 65 65 65 65 64 64 65 64
48 48 37 37 36 34 32 29 31 31 30 34 45 54 58 65 61 63 64 67 69 70 71 72 72 72 71 70 69 68 66 66 68 70 68 67 64 64 65 64 65 65 65 65 64 64 63 65 65
47 42 38 32 33 33 34 36 36 35 32 42 45 53 61 63 63 63 66 68 69 70 71 71 71 71 71 70 69 67 68 69 69 70 69 67 67 65 64 65 64 64 64 64 64 64 63 62 64
48 43 38 38 33 32 35 37 41 40 45 49 50 53 55 61 62 64 66 66 68 69 70 70 71 71 70 69 67 66 69 69 70 69 69 68 67 67 66 65 66 65 64 64 63 63 62 61 59
50 40 37 37 38 37 39 36 42 43 46 50 52 55 60 63 65 63 64 64 66 67 68 69 70 70 68 67 66 64 68 67 67 68 66 67 66 66 65 65 65 66 65 63 62 62 61 59 58
47 40 38 38 40 40 40 37 40 44 44 54 59 62 64 65 63 61 62 63 64 64 67 68 68 68 67 66 65 63 64 66 65 65 65 65 65 64 65 65 65 65 65 63 62 61 59 58 56
45 40 42 41 43 43 41 38 42 43 42 45 56 60 63 63 63 62 60 62 63 64 66 67 67 68 67 65 65 63 61 60 63 64 63 63 62 64 64 64 65 65 65 63 62 61 60 56 55
43 43 41 43 43 45 40 40 40 44 42 45 57 61 62 62 63 63 62 62 64 64 66 65 65 67 67 65 65 64 63 63 60 59 59 56 58 61 62 62 62 62 63 62 61 60 59 58 55
42 43 43 42 45 46 46 39 41 42 42 42 45 60 60 61 62 63 63 63 63 64 65 65 65 66 67 65 65 65 63 63 63 60 59 56 56 55 57 58 60 60 62 61 61 60 59 58 57
41 42 43 45 45 48 46 41 42 43 43 42 42 50 58 59 60 61 62 62 63 63 64 66 65 66 67 66 66 64 63 61 62 63 61 60 59 59 60 57 54 55 57 57 56 56 56 57 58
40 40 43 45 45 44 47 41 39 42 42 42 41 42 45 51 60 60 61 61 63 63 64 65 65 65 65 65 66 65 63 62 61 62 62 61 61 61 60 59 57 55 53 53 54 55 58 58 59
36 38 38 43 47 46 43 37 41 42 39 40 41 41 42 43 48 59 61 61 63 63 63 64 64 64 64 64 64 64 64 63 61 62 62 61 61 61 60 59 59 59 58 55 56 57 57 58 59
35 33 35 39 45 44 45 38 40 41 39 38 40 40 40 41 42 45 58 61 62 62 63 63 64 64 64 64 64 63 64 61 60 60 61 61 61 61 60 60 59 60 60 60 59 60 60 59 59
31 33 34 36 39 42 40 39 41 40 40 38 38 39 38 38 41 43 43 55 62 62 63 62 64 64 63 64 64 64 63 61 60 60 61 62 62 61 61 61 62 61 61 60 60 60 60 60 60
31 32 35 35 38 37 39 39 38 40 40 39 39 38 38 38 39 42 43 44 57 60 62 63 63 63 63 62 62 62 61 61 61 61 61 62 62 62 61 61 61 61 59 59 60 60 60 59 60
32 35 35 38 40 36 37 37 40 40 40 41 41 40 39 38 38 40 42 39 45 58 61 62 63 63 63 63 63 63 62 63 62 62 62 62 62 62 62 62 62 62 61 61 61 61 60 60 61
32 32 34 34 38 39 38 36 38 39 37 38 39 39 38 37 37 40 40 38 40 51 60 62 63 63 63 63 64 64 64 64 63 63 63 63 63 64 63 64 64 64 64 63 63 63 62 60 61
27 28 33 35 36 31 38 28 35 35 35 36 36 37 38 38 38 39 41 40 38 40 49 60 63 63 64 64 64 63 62 62 62 63 63 58 58 56 55 57 60 63 63 62 61 62 61 60 59
28 31 35 37 34 30 32 27 23 34 33 34 34 36 38 38 38 40 41 40 39 39 41 44 57 63 63 64 64 63 62 62 60 59 58 53 50 50 50 51 51 51 53 53 55 56 57 58 58
34 32 32 32 30 24 29 26 20 28 31 32 35 37 37 37 37 38 41 41 40 42 42 43 44 52 58 62 62 62 62 58 52 52 52 49 48 50 51 51 51 52 52 53 54 54 55 55 55
32 28 26 23 21 19 22 23 23 22 25 27 34 33 35 36 37 37 39 39 39 42 42 43 43 44 48 53 57 58 59 52 50 48 46 46 47 50 50 50 50 50 50 50 50 50 51 53 54
27 23 19 14 19 20 22 18 18 23 25 23 24 25 25 24 26 29 36 40 41 43 44 45 44 43 45 45 47 48 49 47 47 46 45 45 46 49 50 49 48 47 47 47 48 49 50 51 53
28 25 25 21 20 19 20 20 22 24 23 25 27 28 29 30 30 29 30 32 35 43 46 46 45 44 44 45 44 45 46 45 46 46 47 47 48 46 46 46 45 45 45 46 47 47 49 51 53
30 28 21 23 13 14 19 16 16 21 24 27 28 29 30 32 33 34 34 33 33 37 46 46 45 44 44 44 44 45 45 45 46 47 47 47 45 44 44 44 44 44 44 45 45 47 49 48 50
30 28 28 26 25 20 13 14 18 21 26 27 28 29 30 31 33 34 36 36 37 41 45 46 44 44 44 44 44 45 45 46 46 46 46 45 43 43 42 42 42 42 42 42 43 46 46 46 46
34 31 29 22 21 23 21 16 23 24 27 27 28 29 31 31 33 36 37 38 39 40 43 44 43 43 43 43 44 44 44 45 45 45 44 43 42 41 41 40 40 40 40 41 41 44 43 45 45

GFSSGP_sfc_30mbdewp_072.txt.gz
Dewpoint
59 61 60 54 39 38 30 28 33 35 41 42 40 49 53 55 52 46 66 68 69 71 72 72 71 71 70 70 69 68 69 68 67 64 62 63 64 65 68 68 67 65 64 64 63 62 63 64 65
62 61 57 47 39 31 29 28 28 36 40 42 44 50 54 53 57 65 66 69 69 71 71 72 71 71 70 70 69 68 69 68 68 64 62 64 62 63 65 67 66 65 64 64 64 63 63 64 64
57 60 46 43 38 31 25 27 27 30 38 43 40 50 55 56 61 62 68 69 69 71 71 72 71 71 71 70 69 68 69 69 68 65 63 63 64 63 64 63 64 63 63 65 65 65 63 63 63
54 55 50 39 34 33 30 26 28 31 38 42 40 47 56 64 64 66 68 69 69 70 72 72 71 71 71 71 69 67 69 68 68 65 63 63 63 63 64 64 64 64 65 65 65 65 64 63 63
55 51 41 39 37 33 33 32 29 32 34 37 41 49 52 58 62 66 68 68 69 71 72 71 71 71 71 70 69 67 68 70 69 66 64 63 63 64 64 65 65 64 65 64 64 65 64 64 63
48 48 39 34 35 37 34 31 29 31 31 41 42 52 57 59 61 65 67 67 70 71 71 71 71 71 71 70 69 68 67 70 69 67 65 63 64 64 64 65 65 65 65 65 64 64 65 65 63
47 43 38 37 36 35 34 34 30 30 32 42 51 51 59 62 63 66 66 68 70 71 71 71 71 71 70 69 69 67 67 69 70 69 67 65 65 64 64 65 65 65 65 65 64 63 63 65 63
48 45 37 38 34 33 34 37 40 39 46 48 54 53 56 57 64 66 68 68 69 70 71 70 71 70 69 68 67 69 70 69 70 69 68 67 65 65 66 66 65 64 64 64 64 63 62 61 59
50 42 36 37 34 33 36 38 42 45 47 56 58 58 58 59 64 65 65 66 67 69 70 70 70 69 68 66 66 69 69 69 69 69 67 67 66 65 65 65 66 65 64 63 63 62 61 59 58
46 41 39 38 40 37 41 40 41 45 50 56 59 62 60 61 62 63 62 63 65 67 68 69 69 68 67 65 64 67 67 67 68 67 66 66 65 65 64 64 65 65 64 63 62 61 60 57 56
43 40 41 39 41 43 43 41 42 44 45 53 55 59 61 62 62 62 63 63 63 65 67 68 69 68 66 65 63 63 65 65 66 65 65 64 64 63 64 64 64 64 64 63 63 62 60 56 54
40 42 42 43 43 43 43 44 43 44 43 49 58 61 61 61 62 62 62 60 59 62 65 67 68 67 65 64 63 61 60 62 63 64 64 62 61 63 63 63 63 63 63 61 60 60 59 58 57
40 42 43 43 45 47 47 44 44 42 46 56 60 61 60 61 62 62 62 63 64 64 65 66 67 67 66 64 64 63 62 60 60 60 61 59 60 62 62 61 61 61 61 61 61 60 60 59 58
41 41 42 44 43 46 45 45 44 42 43 53 58 59 60 61 61 62 62 63 63 64 66 66 66 67 66 64 64 64 64 63 63 61 59 56 57 57 57 56 59 59 60 61 59 59 59 56 57
40 38 41 43 44 44 47 43 41 43 43 42 50 55 58 59 61 61 62 62 63 64 65 66 66 66 66 65 65 64 64 62 62 63 61 58 58 59 59 59 55 56 56 58 56 55 56 58 59
37 38 35 40 43 45 45 39 42 44 42 41 43 46 51 56 59 60 62 62 63 63 64 66 66 66 67 66 66 65 64 62 62 62 62 61 60 60 60 60 58 57 56 54 54 56 57 58 58
36 31 34 39 44 46 41 40 42 44 41 40 41 41 42 46 54 59 60 61 63 63 64 64 65 65 65 65 66 65 65 63 62 62 62 62 61 61 60 60 59 59 59 58 57 58 58 58 59
29 32 33 36 42 41 41 40 43 43 42 40 39 40 40 40 43 51 58 61 62 63 63 64 64 64 64 64 64 64 64 63 61 61 62 62 61 61 60 61 60 60 60 60 60 59 60 60 59
34 33 33 37 42 39 40 38 40 42 41 40 39 38 38 39 39 43 46 58 62 62 62 63 63 64 63 63 63 63 62 62 61 60 61 62 61 61 61 61 61 61 61 60 60 59 59 60 60
35 32 33 36 40 39 39 38 41 43 42 40 40 39 38 38 39 39 43 44 59 61 62 63 62 63 63 63 62 63 62 62 61 61 62 62 62 62 61 61 61 61 61 60 60 61 60 60 60
36 32 34 35 38 39 37 35 37 40 40 40 40 41 41 40 39 39 41 42 43 58 61 62 62 63 63 63 63 63 63 63 62 62 62 62 62 62 62 62 62 63 63 62 62 62 61 59 60
33 36 34 36 36 31 36 28 34 36 37 38 38 38 39 39 38 38 39 42 40 47 60 62 63 63 63 63 63 62 61 61 62 62 63 62 62 63 63 64 64 63 63 62 61 61 61 60 58
28 35 34 35 33 33 33 29 25 34 34 35 36 36 37 39 39 39 40 40 39 40 50 59 62 63 63 63 63 63 61 62 62 62 61 58 58 55 54 54 54 55 55 55 55 56 57 57 58
34 35 35 33 33 27 29 30 21 26 32 33 35 35 36 38 39 38 41 41 40 41 42 43 54 60 62 63 63 62 60 61 59 58 58 56 53 53 54 53 52 52 52 53 53 54 54 54 54
33 31 27 26 25 22 28 28 22 23 24 32 33 34 36 37 37 37 39 41 40 40 41 41 42 51 57 61 61 62 61 60 58 57 56 53 51 52 52 51 50 50 51 51 51 50 51 51 53
30 24 20 19 20 20 22 23 19 23 24 27 29 27 26 26 28 34 38 40 40 41 43 43 42 42 46 51 56 57 60 57 55 54 52 51 51 51 51 50 49 49 49 48 48 48 49 50 50
29 26 25 20 21 18 20 20 23 23 25 27 28 29 30 31 31 30 31 32 34 41 42 44 44 43 44 45 46 48 52 53 51 50 48 48 48 49 49 49 47 47 46 46 46 46 47 50 51
28 28 21 21 15 14 19 17 19 22 26 28 28 29 30 31 32 33 34 34 33 34 39 46 46 44 44 44 45 45 46 46 47 47 46 46 46 46 46 45 45 45 44 44 45 45 47 48 49
28 26 27 25 23 15 15 14 19 23 26 26 28 30 30 31 32 33 35 37 38 39 43 45 46 45 44 44 44 45 45 46 47 47 47 46 44 44 44 43 43 43 42 42 43 43 46 46 46
34 30 27 18 19 23 19 16 23 24 27 28 29 30 31 32 33 35 37 38 38 39 41 43 45 44 44 44 45 45 46 46 46 46 45 44 43 42 42 42 41 41 41 41 41 42 45 44 45

GFSSGP_sfc_30mbdewp_075.txt.gz
Dewpoint
59 61 61 55 41 38 28 28 36 38 44 46 43 48 51 55 51 43 65 68 70 71 71 71 71 70 70 69 69 67 68 68 64 63 64 67 68 69 68 67 65 65 63 63 64 66 66 66 66
60 59 56 48 39 31 30 31 27 33 44 43 47 52 53 54 61 64 66 69 70 71 71 70 70 70 69 69 68 68 68 66 64 62 63 65 67 68 68 67 65 64 64 63 64 65 65 65 64
55 59 49 43 39 31 26 31 31 39 42 47 44 52 57 58 62 64 68 69 70 71 71 71 70 70 70 69 68 69 68 66 63 63 65 64 65 67 67 66 64 64 65 64 64 65 64 64 65
53 53 50 40 35 34 30 27 28 41 46 44 43 45 59 62 63 65 68 69 70 70 71 71 71 70 70 70 69 69 68 66 63 63 64 64 63 63 63 64 64 65 65 65 64 64 64 64 64
54 50 41 39 36 36 33 31 30 37 42 43 41 42 54 58 65 68 68 69 69 70 71 71 70 70 70 69 69 69 69 67 65 63 63 64 64 64 64 64 64 65 65 65 64 63 63 63 63
46 45 39 36 36 36 36 33 32 30 34 40 40 44 51 59 58 65 67 69 70 70 70 70 70 70 70 69 68 69 69 68 66 64 63 63 64 64 64 63 64 65 65 64 64 64 64 63 62
45 42 39 37 35 34 36 36 32 28 31 37 41 48 57 56 57 64 66 68 69 70 70 70 70 70 70 69 68 68 69 69 68 65 65 64 64 64 64 63 64 65 65 64 64 64 65 64 62
47 44 38 39 36 34 36 35 37 32 36 50 53 50 53 55 56 64 67 66 68 68 69 70 70 70 69 68 68 67 68 70 68 67 66 66 65 65 65 65 65 65 65 65 64 63 62 62 60
48 41 36 38 37 36 35 33 41 46 49 55 55 57 57 59 62 60 57 63 63 65 67 69 69 68 67 66 67 68 69 69 69 68 66 65 65 66 66 65 65 65 64 64 63 63 62 59 57
42 37 35 40 41 35 38 39 40 46 52 55 57 60 60 61 59 57 54 52 63 65 68 69 69 67 66 65 67 68 68 69 69 67 66 65 65 64 64 65 65 65 64 64 63 62 60 58 55
40 37 37 39 41 43 43 42 42 44 47 52 53 57 61 61 59 57 54 59 63 64 68 69 68 67 65 63 65 66 66 67 68 66 66 65 64 64 63 63 64 64 64 62 63 62 60 56 54
38 39 41 40 41 43 42 45 42 44 44 51 57 57 58 60 61 60 61 60 59 61 63 66 68 67 65 63 63 65 65 65 66 65 65 64 63 63 63 63 63 62 63 60 60 59 58 57 56
37 39 40 43 42 45 47 45 45 44 48 57 60 58 57 60 61 62 61 61 62 60 58 61 66 67 65 63 61 61 63 63 64 64 64 63 62 62 63 63 62 61 61 61 59 59 59 59 59
38 38 40 42 43 44 42 46 45 44 45 56 59 58 59 59 61 61 61 60 60 59 59 64 65 66 66 63 63 62 60 60 61 61 62 61 60 62 62 62 60 60 60 61 60 60 60 59 57
38 38 37 40 44 43 45 42 42 45 46 53 55 57 58 60 62 60 61 60 60 62 62 64 65 66 66 64 64 63 63 62 61 61 59 58 58 60 60 58 57 59 59 59 60 57 57 57 58
37 38 31 36 42 43 42 36 44 46 45 45 52 54 57 58 60 61 62 62 63 64 65 65 65 66 66 65 65 64 64 63 62 63 62 59 57 57 58 58 57 55 55 55 55 55 55 57 58
34 31 31 35 42 43 43 38 46 47 44 43 44 44 47 53 58 60 60 62 63 64 64 65 65 65 66 66 66 65 65 63 62 62 62 61 59 59 60 60 59 58 56 55 54 55 57 57 58
27 30 31 33 40 40 42 38 44 47 43 41 41 42 41 42 48 53 60 62 63 63 64 65 65 65 65 65 66 66 65 64 63 62 62 62 61 61 60 60 60 59 59 59 58 57 59 59 59
31 32 31 37 41 40 41 37 40 44 45 42 41 40 39 40 40 44 49 60 62 63 63 64 63 64 64 64 64 64 63 63 63 62 62 63 62 61 60 60 60 60 59 60 60 60 59 59 60
32 33 33 36 40 40 38 39 42 43 44 42 41 41 39 38 39 39 40 46 59 61 62 63 64 64 64 64 63 63 62 63 62 61 61 62 62 62 61 60 60 61 61 61 60 60 60 60 60
34 31 34 34 36 37 37 35 38 42 44 42 41 41 41 40 39 39 39 42 44 57 61 62 63 63 63 63 63 63 63 63 62 61 61 61 62 62 62 61 61 61 62 61 61 61 60 59 59
30 35 35 36 34 30 36 28 36 37 39 39 39 40 39 41 41 40 39 40 42 44 58 61 62 63 63 63 63 62 60 60 61 62 62 62 63 63 62 62 62 63 63 63 62 62 61 60 58
31 36 36 35 33 33 34 29 27 35 35 37 39 38 38 38 39 40 39 39 41 42 47 59 62 63 63 63 63 62 61 61 61 62 62 60 60 60 61 61 61 61 60 59 59 59 59 58 58
37 36 35 35 32 27 31 29 21 30 32 34 36 36 36 37 38 39 40 41 41 40 43 51 58 61 62 63 63 62 60 60 60 59 59 59 58 57 57 56 56 56 55 55 55 54 54 53 53
36 33 27 25 24 24 29 30 26 23 27 30 32 33 35 36 37 38 38 41 41 40 40 42 46 53 58 61 62 62 61 61 60 58 59 58 57 56 55 54 53 52 51 51 52 51 51 51 52
31 26 26 20 21 21 25 25 20 24 26 30 33 32 30 31 33 35 36 40 40 41 42 42 42 42 46 54 58 60 61 61 59 58 58 57 56 54 53 52 50 49 50 49 49 48 48 49 49
29 24 25 21 21 23 22 20 23 25 27 28 28 29 29 30 30 30 31 32 33 35 40 43 44 43 43 44 48 53 56 58 56 55 54 53 52 52 51 49 48 47 47 46 46 46 46 47 48
29 27 21 22 18 14 19 18 19 22 26 28 29 30 31 32 33 33 34 35 36 36 40 42 45 45 44 44 45 45 47 50 53 51 50 50 49 50 49 47 46 45 45 44 45 45 46 47 48
27 25 26 25 22 16 15 15 19 23 27 27 29 30 31 32 33 35 36 37 38 39 40 42 45 45 45 44 44 45 45 46 47 48 47 46 45 46 46 45 44 43 43 42 42 43 43 46 46
34 30 25 17 19 21 17 16 24 24 28 29 30 30 30 31 32 34 37 38 38 38 39 41 43 44 44 44 44 45 46 46 46 46 46 45 44 44 43 43 42 42 41 41 41 41 42 45 44

GFSSGP_sfc_30mbdewp_078.txt.gz
Dewpoint
57 61 60 55 42 39 35 31 37 39 43 49 47 50 52 55 49 42 65 67 69 70 70 70 70 70 69 69 68 67 68 66 65 67 69 69 69 68 67 66 64 64 64 64 65 66 65 66 66
59 59 56 48 38 33 30 31 28 32 45 48 49 50 52 52 62 64 65 69 70 70 70 70 70 70 69 69 67 69 67 64 64 65 68 69 69 68 66 65 64 63 64 65 65 66 65 65 65
54 59 47 43 38 33 27 30 29 35 43 46 48 52 53 55 62 64 67 69 70 70 70 70 70 70 69 68 68 68 66 64 63 65 67 68 68 68 67 65 64 64 64 65 66 65 65 67 67
52 52 49 41 37 36 32 28 31 38 45 46 46 44 58 62 63 65 69 70 69 70 70 70 70 70 70 68 69 68 66 64 63 65 65 67 68 68 66 65 65 65 64 65 65 64 65 66 68
54 49 39 38 38 37 35 34 31 36 43 43 43 46 52 60 66 68 69 69 69 70 70 70 70 70 69 69 69 68 66 64 63 65 63 64 65 65 64 65 65 65 65 65 65 64 64 63 65
46 46 37 35 37 39 38 35 33 33 37 43 41 45 52 60 64 67 69 68 69 69 69 69 69 70 70 69 69 68 67 65 63 63 64 63 63 64 63 64 65 65 64 64 64 63 63 63 62
44 42 36 35 36 38 38 38 36 31 32 40 42 41 56 57 63 65 67 67 67 68 69 69 69 70 69 69 69 69 69 67 64 64 64 65 65 63 64 64 65 65 64 64 64 64 64 63 62
46 43 36 38 36 36 37 37 35 34 31 48 44 45 51 56 64 66 65 65 66 66 68 69 69 69 69 68 68 68 69 68 66 66 65 65 65 64 64 64 65 65 65 64 64 63 63 62 60
47 38 33 34 37 37 37 35 36 45 44 51 54 53 55 57 62 60 60 57 57 65 67 68 69 68 68 67 67 67 69 68 67 66 66 65 65 65 65 65 66 66 65 65 64 63 62 59 57
41 36 33 34 36 37 38 38 36 40 48 51 55 59 55 59 56 53 52 54 55 59 65 68 68 67 66 66 66 67 68 69 68 66 65 65 65 65 65 65 65 65 65 64 63 62 61 57 55
39 35 35 35 38 41 41 42 43 41 42 51 49 57 55 57 52 52 51 52 53 56 65 67 68 67 65 64 66 66 67 68 68 66 65 64 64 64 64 64 64 64 64 62 62 61 59 56 54
36 37 38 38 39 40 40 44 44 46 44 46 54 57 56 57 53 49 47 48 55 61 62 65 67 66 64 63 65 66 66 66 67 66 65 64 63 62 62 62 62 62 62 60 59 59 58 57 56
35 36 39 39 38 42 39 40 44 44 46 51 56 58 54 57 55 53 50 52 61 58 58 59 60 66 65 62 63 65 65 66 66 66 65 64 62 62 62 62 62 61 61 60 58 58 58 58 58
36 36 36 38 40 40 41 40 46 43 48 50 57 58 56 59 57 59 56 59 57 58 57 59 58 64 65 63 61 63 64 64 65 65 64 63 62 62 62 62 61 60 60 60 59 59 59 59 58
33 33 37 36 36 41 41 40 43 47 47 47 56 56 58 59 60 60 60 58 55 54 57 59 59 64 65 64 63 62 60 62 63 63 63 63 61 61 61 62 61 59 59 59 60 59 57 58 57
33 31 29 35 36 42 42 33 41 47 45 46 47 53 55 59 61 60 59 59 58 57 59 61 60 64 65 65 64 64 64 62 60 61 60 61 60 59 60 60 58 57 58 58 58 58 55 56 57
30 26 28 31 36 39 40 38 45 46 44 43 45 46 47 54 57 59 60 60 60 60 62 64 64 64 65 65 63 64 64 64 63 62 61 59 58 57 58 58 58 57 55 55 54 54 55 56 57
23 28 32 30 36 38 40 39 46 46 44 44 43 43 44 45 53 58 59 60 61 62 62 62 64 64 64 66 65 65 65 65 64 63 62 62 60 58 58 59 59 59 56 56 55 54 57 58 59
31 28 30 33 37 38 38 38 41 46 45 44 44 43 42 42 45 50 57 61 62 63 62 62 62 62 62 62 61 63 63 64 64 64 63 62 62 61 59 60 60 59 59 59 58 58 58 59 60
32 29 32 36 36 37 36 37 41 43 43 45 45 43 42 42 40 42 47 53 61 61 62 63 61 62 63 62 62 61 61 63 64 64 63 63 63 62 61 60 60 60 59 59 60 60 59 59 60
33 29 33 33 36 37 34 31 36 41 43 44 46 43 42 42 41 40 39 43 48 57 61 62 63 62 62 63 63 63 63 63 62 63 62 62 62 62 62 61 61 61 61 61 61 60 60 59 59
29 36 35 35 32 29 35 27 35 38 40 41 42 43 41 41 41 41 40 40 40 43 56 62 62 63 63 63 63 63 61 59 61 62 62 62 63 63 63 62 62 62 62 62 62 62 61 61 58
34 37 35 34 32 32 32 30 30 36 35 39 41 42 40 40 40 39 40 40 40 42 45 58 61 62 62 62 63 62 61 61 61 62 61 61 61 61 61 61 62 62 61 61 61 60 59 59 58
38 35 35 34 32 25 30 30 24 34 34 37 40 42 40 41 39 39 39 41 41 41 43 52 59 60 62 62 62 62 60 59 60 60 59 60 60 60 60 60 61 61 59 58 56 56 56 55 55
36 30 25 23 23 24 32 30 27 24 25 32 36 38 38 37 37 39 38 40 41 41 41 43 47 52 57 60 61 62 61 61 59 59 59 59 58 58 58 58 58 58 55 54 53 53 52 52 52
33 32 26 20 20 24 28 23 22 25 28 29 29 35 35 35 36 36 37 38 40 41 42 43 42 42 42 48 55 59 60 61 60 59 59 59 58 58 57 56 55 52 51 50 50 49 49 49 48
29 28 27 23 22 24 23 21 23 27 29 29 29 30 30 31 31 32 33 33 34 36 39 41 43 44 44 43 44 47 53 57 58 57 58 58 57 56 55 53 50 49 49 48 47 46 45 46 47
26 27 20 24 19 18 21 18 19 24 27 29 30 31 32 33 34 35 36 37 38 39 40 42 44 44 45 45 44 44 45 48 54 54 54 54 52 52 51 50 48 47 46 45 45 45 45 45 47
27 25 25 24 22 16 18 16 21 23 28 29 30 31 32 33 35 36 37 37 37 38 39 40 42 43 45 45 44 44 45 46 48 51 50 49 49 49 49 47 46 44 44 43 43 43 43 44 45
34 29 23 17 19 19 16 16 26 25 29 30 30 31 32 32 33 33 34 35 35 36 37 39 41 42 43 44 44 44 45 46 46 47 47 46 46 46 45 44 43 42 42 41 41 41 41 42 43

GFSSGP_sfc_30mbdewp_081.txt.gz
Dewpoint
58 60 60 54 39 41 36 35 37 38 37 46 48 51 51 55 48 42 65 66 68 69 69 69 70 69 67 68 67 69 66 67 69 69 70 70 69 68 67 65 65 64 64 64 65 64 65 66 66
58 58 54 49 37 33 32 35 30 35 44 49 51 50 47 51 60 63 65 68 68 69 69 69 70 69 69 68 68 69 66 65 68 69 69 69 68 68 66 65 64 64 65 65 64 65 66 66 67
55 58 48 44 39 31 29 31 31 31 46 48 49 52 51 54 62 63 67 68 69 69 69 69 70 70 69 67 69 68 65 64 66 69 69 69 69 67 66 64 64 66 66 66 65 66 67 68 67
53 52 49 41 36 36 33 31 30 32 39 47 49 47 56 60 62 65 68 68 68 69 69 69 69 70 69 68 69 67 65 64 64 68 68 69 68 67 65 64 65 66 66 66 65 66 68 68 67
53 48 40 39 38 38 37 36 35 32 35 45 46 46 51 62 65 66 68 69 68 69 69 69 69 70 69 70 69 67 64 63 64 66 68 68 68 67 65 65 65 65 66 66 65 65 65 67 66
47 46 37 35 36 39 39 38 38 34 36 43 44 47 49 63 63 64 67 69 68 68 69 68 69 70 70 70 69 68 65 63 65 64 65 67 67 65 65 65 65 65 66 65 64 64 64 63 65
43 41 34 34 35 37 39 40 39 36 32 34 43 43 54 59 64 62 62 68 68 68 68 68 67 69 70 69 68 68 66 65 65 64 64 65 65 64 64 65 65 65 65 65 64 64 63 62 62
45 42 35 36 34 34 38 40 40 39 36 37 42 46 50 56 66 66 65 62 65 67 68 68 67 68 68 68 69 69 67 66 65 64 64 65 62 64 65 65 65 65 65 65 65 64 63 62 60
46 37 31 33 35 34 38 38 40 41 38 47 50 46 54 60 63 61 61 61 59 62 67 67 68 68 67 67 68 69 68 67 66 65 64 64 64 63 63 65 65 66 65 64 64 63 61 59 58
40 35 32 33 35 35 38 38 38 39 39 41 51 55 57 62 60 58 57 57 58 55 58 66 67 67 66 66 67 68 68 67 65 65 64 64 64 65 64 65 65 65 65 64 63 62 60 56 54
38 34 34 34 36 39 40 42 41 40 37 37 43 54 58 60 57 57 57 57 56 56 57 63 66 67 66 64 66 66 69 68 66 65 65 64 65 65 64 65 64 64 63 62 62 61 58 55 55
34 36 37 37 37 39 39 41 41 45 40 38 42 54 57 57 54 54 56 54 54 55 59 63 61 65 65 64 65 65 67 68 66 64 64 64 64 64 63 63 64 63 63 61 60 59 58 56 55
35 34 35 37 39 38 38 38 40 41 47 47 46 55 56 54 53 51 52 53 53 54 60 60 61 60 65 63 64 65 65 67 67 65 64 64 63 62 62 61 62 62 61 60 58 58 57 57 58
34 34 33 34 34 37 38 37 42 41 48 48 48 50 55 53 50 51 51 52 53 52 57 60 58 60 65 63 64 65 65 65 67 66 65 64 63 62 62 62 62 62 61 61 59 57 59 59 59
34 31 31 32 37 32 39 37 38 42 46 47 48 50 53 55 53 51 53 56 57 57 58 59 55 59 65 64 62 64 64 65 65 66 66 64 63 62 62 62 62 61 60 59 60 59 59 59 59
30 31 26 25 32 33 37 30 35 46 45 45 47 48 51 56 56 57 57 58 56 56 56 55 53 58 62 64 63 62 62 62 64 65 65 65 63 62 62 61 62 61 60 59 60 59 58 56 56
28 23 25 24 33 32 35 33 37 47 45 44 45 47 49 54 58 59 59 57 55 57 56 55 55 58 64 64 64 62 63 63 62 62 63 63 63 62 61 60 60 59 58 58 58 57 57 55 56
21 25 26 24 29 34 33 36 45 46 44 44 45 45 45 48 54 57 59 58 57 59 57 56 56 60 65 65 64 65 64 64 64 63 62 61 60 59 59 59 59 58 57 56 55 54 55 56 58
31 29 25 28 30 33 33 37 39 42 46 45 46 45 44 44 48 55 56 60 60 60 60 60 61 62 62 61 62 63 62 64 64 64 64 63 62 59 58 58 58 59 58 56 56 56 56 57 60
30 28 28 33 29 33 34 35 39 42 43 46 46 45 45 43 43 48 52 57 60 59 60 60 60 58 61 61 62 62 61 62 64 65 64 64 63 63 61 60 59 60 60 59 59 59 59 59 61
31 28 28 32 35 36 35 33 35 37 38 44 46 47 45 43 42 42 43 53 56 59 60 58 60 60 61 61 62 62 62 62 62 63 64 63 64 64 63 63 62 61 61 60 60 61 60 59 60
29 32 31 32 31 29 35 26 34 36 35 41 42 43 44 45 43 42 43 40 48 54 59 59 60 61 62 62 62 61 60 58 61 62 63 63 63 63 63 63 62 62 62 62 62 63 62 59 57
33 35 34 34 31 31 31 26 31 36 36 39 40 42 43 43 43 41 41 43 43 43 46 55 61 62 63 62 62 60 59 57 61 62 62 62 62 63 63 63 63 62 61 60 60 60 60 60 59
37 33 34 33 31 24 30 27 26 32 35 36 40 41 43 44 43 40 41 43 42 42 43 51 57 60 62 62 62 60 59 59 60 61 61 61 61 61 61 62 62 61 60 59 59 57 57 58 57
36 28 24 23 23 23 32 30 28 25 24 28 38 40 42 43 42 39 39 40 41 42 42 43 47 52 57 60 61 61 61 61 60 60 60 60 60 60 60 61 61 60 59 59 58 57 55 54 52
33 33 23 19 20 25 30 27 24 27 30 30 29 37 40 39 42 38 35 35 37 40 41 43 44 43 43 46 53 57 59 60 60 60 60 59 59 59 59 59 59 58 57 56 55 53 52 51 51
32 28 27 24 24 23 23 23 25 28 30 31 31 32 32 32 36 36 37 38 39 40 41 43 44 44 45 45 44 45 50 55 57 58 59 59 59 58 58 58 57 55 53 51 50 49 48 48 48
31 30 22 26 18 21 22 18 21 26 28 30 31 32 34 35 36 37 36 36 37 39 40 41 43 44 45 45 45 44 45 47 53 55 56 56 56 56 55 53 51 49 48 47 47 46 46 46 47
27 25 24 23 22 20 18 16 24 25 29 30 31 32 33 33 33 34 35 35 36 37 37 39 41 42 43 44 44 44 45 46 48 51 52 53 52 52 51 50 48 47 46 45 45 44 44 44 45
34 28 22 16 18 18 17 16 26 26 30 30 31 32 33 34 35 35 36 36 37 37 37 37 38 40 42 43 44 44 45 46 46 48 49 48 49 50 49 48 46 44 43 43 42 42 43 43 44

GFSSGP_sfc_30mbdewp_084.txt.gz
Dewpoint
58 56 56 51 36 34 28 27 32 30 34 40 41 42 43 49 43 43 64 64 65 64 66 69 70 69 69 68 68 69 69 69 70 69 69 70 70 69 67 66 66 65 64 65 66 68 67 65 66
56 55 53 47 34 26 25 29 31 30 35 41 46 49 47 51 57 60 63 66 65 65 66 67 70 69 69 68 68 67 67 69 70 69 70 70 69 68 66 65 65 66 65 66 64 66 66 66 66
55 55 46 41 35 26 24 29 31 31 38 44 44 49 47 51 59 60 65 65 65 65 65 66 69 69 69 68 69 66 66 68 70 69 69 69 69 66 66 65 66 66 67 64 66 66 66 67 66
50 51 47 39 29 28 27 28 30 29 30 35 46 43 53 59 60 63 65 65 65 64 65 69 69 69 69 68 69 67 65 66 69 68 69 69 69 66 65 66 66 67 67 65 67 68 68 68 66
51 46 35 33 29 29 31 31 30 29 29 30 41 44 47 60 65 66 65 65 64 64 65 67 69 70 69 70 69 66 64 64 67 68 68 68 67 65 65 66 66 67 66 66 66 68 67 67 66
42 42 29 26 26 28 32 35 33 33 32 32 32 39 45 58 63 66 66 66 64 63 65 66 68 69 69 70 68 66 65 64 66 67 68 69 68 66 64 65 66 66 65 65 65 65 66 67 65
39 36 28 23 21 25 30 34 35 35 34 31 36 34 42 60 63 66 67 65 66 65 65 65 66 66 70 69 68 66 65 66 66 66 68 68 67 66 63 64 65 66 65 65 64 64 63 63 64
41 37 29 25 21 21 27 33 36 36 36 35 36 38 37 51 61 62 62 62 63 65 66 65 65 65 64 67 68 67 66 66 65 65 66 66 65 65 64 63 64 66 66 65 64 64 63 62 60
41 34 26 24 23 23 25 26 34 37 37 36 36 38 39 54 63 61 60 60 62 62 61 66 65 64 62 65 67 67 66 66 65 63 64 62 63 62 63 63 64 66 65 65 65 64 62 60 58
37 31 26 25 25 25 29 28 31 34 36 36 37 42 52 61 62 60 58 57 56 57 58 63 66 65 62 62 66 66 64 62 59 60 62 62 59 59 59 63 65 66 66 65 63 62 60 56 52
32 31 29 29 32 33 34 34 34 35 35 35 36 38 48 56 59 59 57 56 55 56 60 61 64 65 62 59 65 66 66 63 60 59 60 60 60 62 61 62 63 61 63 58 60 59 54 51 50
28 27 27 29 33 35 34 37 38 36 34 36 46 40 48 53 56 57 56 55 55 56 59 62 64 66 63 60 61 66 66 65 63 60 58 59 59 60 59 59 58 58 57 56 55 53 52 52 52
28 24 23 25 31 33 33 34 35 37 38 42 45 46 44 47 52 56 56 56 57 58 59 61 63 63 65 62 58 62 66 66 64 62 59 57 58 59 58 57 58 56 56 55 54 53 51 51 52
25 29 30 30 28 29 30 31 32 34 37 40 45 47 42 42 50 55 56 55 57 57 58 60 61 61 63 64 61 58 62 65 65 63 61 60 59 57 57 56 57 56 56 54 52 51 52 53 56
30 27 25 26 28 29 27 26 30 32 37 42 43 45 45 40 49 54 55 55 54 54 56 58 59 61 59 63 63 59 59 63 65 65 64 62 62 60 59 57 59 59 59 56 55 52 56 58 58
24 22 24 18 21 28 29 16 19 27 33 38 41 44 45 46 50 53 54 55 54 53 55 59 59 60 58 64 63 61 62 61 61 64 65 65 63 62 61 60 60 60 58 57 57 56 57 56 55
24 16 17 20 23 24 28 19 20 29 32 38 41 44 46 49 51 54 53 53 54 54 56 57 58 58 61 64 63 62 63 64 65 63 63 65 65 64 61 59 59 60 58 57 57 57 56 54 54
20 23 21 19 20 25 24 21 22 36 39 40 42 44 46 48 53 55 55 57 56 56 56 55 56 58 61 63 63 63 61 61 62 64 64 64 64 64 62 59 58 59 58 57 57 55 55 54 54
27 27 26 27 23 23 24 23 25 41 42 42 43 46 45 47 52 57 56 57 58 57 55 55 55 59 63 64 63 62 62 63 63 64 62 61 61 60 60 58 58 59 58 58 57 55 55 55 58
30 27 24 26 27 26 23 23 27 38 40 40 43 45 45 43 49 54 55 55 54 57 58 56 59 61 58 60 62 62 62 62 62 64 64 64 63 61 61 60 59 59 59 59 58 56 57 57 59
30 27 26 27 28 29 26 25 33 37 38 40 42 45 47 45 46 50 53 53 55 58 59 59 59 60 60 62 62 62 62 62 60 61 62 64 64 64 64 63 63 62 61 61 60 59 58 59 60
27 33 32 31 30 24 29 22 30 32 35 37 38 43 44 48 44 46 50 52 53 56 59 58 61 61 61 62 61 60 59 58 59 59 61 63 63 64 64 64 64 63 63 62 62 63 62 60 57
31 32 33 30 32 29 28 25 29 35 34 36 37 43 47 49 47 45 46 49 51 56 59 58 59 60 60 60 61 60 59 60 60 59 61 61 62 63 63 63 63 63 63 62 61 61 61 60 59
35 33 36 33 29 26 30 30 26 30 32 32 38 42 44 45 47 46 44 45 46 45 46 49 55 57 60 61 60 61 60 60 59 58 59 60 62 62 63 63 63 62 61 60 59 58 58 58 58
36 32 26 24 22 23 32 28 28 26 28 28 27 38 42 47 42 42 42 43 44 45 45 46 54 55 60 61 59 60 59 61 59 58 59 61 60 61 61 62 62 62 61 60 59 58 57 58 57
33 32 26 18 22 25 30 26 26 29 30 30 29 41 43 45 42 40 38 40 41 43 44 44 44 44 44 49 56 60 62 61 60 60 61 61 60 60 61 62 62 61 61 59 58 58 58 57 56
32 29 26 25 25 22 25 27 26 30 31 32 37 37 38 40 42 41 38 39 39 40 42 43 43 44 45 45 45 45 52 58 60 61 61 61 61 61 61 61 62 61 59 58 57 55 53 53 52
35 30 26 28 21 21 19 21 24 28 30 33 33 35 36 37 36 38 38 36 37 38 40 41 42 43 44 45 45 45 46 47 52 56 58 59 60 60 59 59 59 58 56 55 53 50 49 48 48
29 26 25 24 22 17 14 19 24 28 30 32 33 34 33 34 36 36 36 36 37 37 37 37 38 40 42 43 44 45 45 46 48 51 53 55 56 56 57 56 54 53 51 50 49 47 46 46 46
33 29 24 20 18 19 17 18 26 29 30 31 31 33 34 35 35 35 34 33 34 35 37 38 38 38 39 41 43 44 45 46 46 47 49 51 53 54 53 52 51 49 47 46 46 45 44 44 44

GFSSGP_sfc_30mbdewp_087.txt.gz
Dewpoint
58 56 52 50 38 32 28 26 26 24 25 29 35 37 39 40 43 45 62 61 61 61 67 69 70 69 69 68 68 69 68 69 70 70 70 70 70 70 68 67 65 64 66 68 67 66 65 65 66
52 49 49 44 33 27 24 25 25 24 30 31 33 40 44 42 52 60 61 63 62 64 67 67 70 70 69 68 68 69 68 68 70 70 70 70 70 68 67 66 65 65 66 68 68 65 64 66 66
53 48 43 35 34 29 24 25 25 28 30 35 38 44 44 44 55 58 63 63 63 65 67 67 70 70 69 68 68 68 69 69 69 69 70 70 69 68 66 66 67 66 66 66 67 66 66 66 65
45 45 44 35 25 28 28 24 25 28 29 34 38 39 45 57 56 60 63 63 62 64 65 70 69 70 69 69 68 67 68 69 69 69 69 69 68 67 66 66 66 65 63 65 66 67 67 67 65
44 40 32 28 29 29 27 26 25 29 27 28 30 36 42 56 61 63 63 63 62 64 65 68 69 69 69 70 69 67 66 69 69 69 69 68 68 66 66 67 66 65 65 67 68 68 67 66 63
38 36 28 24 24 26 27 27 29 26 27 27 27 30 39 58 61 63 64 64 64 64 65 66 68 69 69 70 69 67 66 67 68 68 68 68 67 65 66 65 66 66 66 67 68 67 67 66 63
37 31 25 23 20 20 24 26 28 28 27 27 29 29 32 56 59 64 65 66 66 66 65 66 65 67 68 69 68 67 66 66 68 67 68 68 66 65 64 66 67 65 65 66 65 66 67 66 63
36 32 27 25 22 20 20 24 27 28 28 30 31 29 31 40 61 66 66 66 65 64 62 61 66 65 61 67 67 67 66 67 66 67 69 67 66 64 65 64 67 66 65 65 65 64 63 63 61
38 32 25 23 22 20 21 19 24 28 30 31 31 33 34 56 63 62 63 63 64 63 63 62 62 65 60 64 66 66 66 66 66 66 66 65 64 63 63 63 66 66 66 65 65 64 63 61 59
34 29 24 23 21 19 20 22 22 22 26 29 33 35 37 55 60 59 58 60 59 60 61 61 63 61 64 63 66 63 61 61 59 62 63 63 62 60 59 63 65 66 66 65 64 63 61 58 54
29 28 26 25 24 28 29 30 31 26 27 27 29 31 36 47 58 57 56 57 59 59 61 60 59 60 62 64 67 64 60 57 57 56 61 61 59 59 61 63 63 64 64 61 62 61 55 52 50
24 24 25 25 26 27 31 31 31 31 31 30 37 43 43 40 53 55 56 55 57 59 59 60 60 62 63 60 66 65 64 57 56 56 57 60 58 60 59 60 60 59 58 56 56 55 52 51 50
23 24 22 20 20 23 27 28 30 30 33 34 34 41 43 42 46 51 55 55 53 55 58 57 61 62 63 63 59 65 65 62 58 56 57 58 58 60 58 57 56 56 55 54 54 52 50 50 49
21 21 23 26 25 23 23 24 25 27 30 32 35 37 41 42 42 48 52 55 54 54 56 59 62 61 61 63 60 60 65 64 62 59 56 56 57 59 57 56 56 55 54 53 52 51 50 48 49
22 22 23 20 20 23 26 24 23 22 25 29 31 35 42 44 42 41 51 56 55 55 56 58 60 61 61 61 63 59 61 64 64 61 58 55 55 55 54 53 54 55 55 53 52 50 49 51 52
23 21 17 16 14 17 22 20 20 19 17 24 30 34 39 43 44 41 53 55 57 59 56 58 59 61 61 61 61 62 58 61 64 64 61 59 59 58 57 56 57 57 57 56 53 52 51 55 55
24 21 16 14 16 16 19 19 19 18 16 18 26 30 36 42 47 47 53 56 58 59 55 57 58 60 59 59 60 63 59 58 60 64 64 64 61 61 60 60 60 59 58 56 55 55 54 54 54
16 20 20 18 18 17 19 19 20 18 15 23 24 29 36 42 46 53 53 54 58 58 57 56 57 59 58 58 62 63 61 60 62 61 61 63 64 64 63 60 58 58 59 56 56 55 55 54 53
24 22 19 20 21 26 22 17 17 17 34 29 30 34 38 42 50 56 55 54 56 58 58 57 58 58 59 59 62 61 61 60 61 63 64 64 64 64 63 62 57 58 59 58 57 56 54 54 54
25 25 24 25 24 23 28 17 19 18 33 38 37 41 43 43 50 55 55 56 55 56 58 57 57 59 60 59 61 61 62 63 63 63 63 63 62 61 61 61 59 59 60 59 59 57 56 55 56
27 28 26 27 26 28 23 18 18 19 33 39 39 42 45 45 45 52 54 54 55 54 58 58 58 58 59 61 60 61 59 60 61 62 62 63 63 63 63 62 62 62 62 61 62 61 57 56 58
27 29 32 31 28 21 23 13 15 24 32 36 37 38 44 46 46 50 53 54 54 54 57 60 58 60 60 61 60 60 58 58 59 60 61 63 63 63 64 64 64 64 63 62 62 62 63 61 59
30 36 33 30 27 29 22 21 18 26 29 32 34 38 42 45 48 47 52 54 55 56 56 57 58 59 61 60 60 60 59 59 60 60 60 61 62 62 63 64 64 63 63 63 62 62 61 61 60
38 33 33 31 29 25 29 29 26 28 31 32 37 37 44 49 49 47 48 51 52 53 53 55 57 57 59 60 60 59 59 59 58 60 59 59 60 61 61 63 63 63 62 62 61 60 60 60 59
37 34 26 24 26 21 29 31 27 28 29 29 29 39 47 48 48 46 45 45 47 49 48 49 52 55 57 59 60 59 60 59 56 58 58 57 58 57 60 62 62 62 62 61 60 59 59 58 57
33 33 28 20 21 24 32 29 31 31 29 30 33 46 47 44 43 42 42 43 45 46 45 45 48 46 47 54 58 60 60 60 59 59 59 59 58 58 59 61 61 62 62 61 60 59 59 58 58
32 32 33 30 28 27 30 31 31 37 34 39 42 43 42 43 42 40 40 38 41 43 42 43 44 45 45 46 46 50 58 60 59 60 60 60 60 61 60 61 61 62 61 61 60 58 58 58 57
35 33 26 27 24 20 21 23 26 34 35 37 37 37 38 40 40 41 42 40 37 38 39 40 42 42 43 45 45 46 46 47 52 58 60 60 61 61 61 61 61 61 61 59 59 57 56 55 53
31 26 25 24 21 22 14 22 27 31 37 34 34 35 37 38 38 39 41 42 41 37 37 37 38 39 40 42 43 45 46 46 47 49 52 56 57 59 59 59 60 59 58 57 56 54 52 51 49
32 26 23 20 17 19 17 22 29 31 34 33 33 35 35 35 38 36 31 31 32 32 34 37 38 38 39 39 41 43 45 46 46 46 48 51 53 55 56 57 57 56 55 55 54 52 49 48 47

GFSSGP_sfc_30mbdewp_090.txt.gz
Dewpoint
54 56 55 52 42 38 33 33 33 30 28 26 26 31 36 41 49 47 61 60 65 67 69 71 70 69 69 69 68 69 69 71 70 70 70 70 70 70 69 67 66 67 69 68 67 66 64 67 66
54 52 49 45 38 32 27 27 29 29 28 27 30 31 37 43 59 60 61 61 63 67 68 69 70 70 69 69 68 69 68 70 70 70 70 71 70 70 68 66 66 68 69 67 66 64 65 66 66
55 52 43 40 37 34 28 27 27 26 28 29 33 35 39 49 58 61 62 62 66 67 67 69 70 70 69 68 69 69 68 68 70 69 70 70 70 69 67 66 67 68 68 66 65 64 65 65 65
44 44 44 36 31 31 33 31 31 27 27 31 31 34 44 57 60 62 63 62 65 67 67 70 70 69 70 69 69 69 69 68 69 69 69 70 69 68 67 67 66 65 65 66 67 67 67 65 63
44 42 36 34 32 33 30 31 31 28 26 29 31 32 38 59 62 62 63 62 64 66 69 69 69 69 70 70 68 68 68 69 69 69 68 69 69 68 67 66 63 62 65 66 67 67 67 64 61
40 39 34 30 28 27 30 30 29 27 25 28 28 29 41 61 62 63 63 63 64 66 68 68 69 70 69 70 68 67 67 69 69 68 68 69 68 67 66 64 62 63 65 67 68 67 66 63 61
42 35 30 28 27 25 24 27 26 26 28 28 27 26 42 60 63 64 64 67 66 67 66 65 67 68 68 70 69 67 67 68 69 68 67 68 67 66 64 63 64 66 67 68 68 67 66 64 62
37 35 32 30 25 23 23 23 23 25 25 29 29 26 28 56 63 65 67 66 65 64 65 65 65 67 66 69 68 67 66 67 67 67 67 67 65 63 63 64 64 64 67 67 67 67 67 65 63
37 33 30 28 26 25 25 21 21 21 24 28 28 30 32 59 63 63 65 65 65 64 64 64 64 63 61 66 67 66 67 67 68 68 67 65 64 62 62 64 64 65 66 66 65 64 64 62 60
35 32 31 28 25 23 22 22 26 27 22 24 28 31 33 59 59 58 60 61 63 63 62 63 64 64 63 62 66 65 66 66 66 67 66 65 62 62 62 65 66 65 66 66 65 64 63 59 57
29 31 32 28 27 27 27 28 30 30 30 31 26 29 31 35 51 56 57 58 58 61 61 62 63 64 62 62 61 64 62 63 63 65 65 65 62 62 63 64 65 65 65 65 64 63 60 57 56
24 26 26 26 26 25 25 28 31 29 30 32 32 37 42 42 47 54 54 55 59 60 61 61 61 61 60 62 62 63 61 58 58 62 63 63 60 60 63 62 62 64 63 61 61 60 57 55 52
21 23 23 24 24 21 20 22 26 28 30 30 31 34 37 40 43 51 53 57 57 58 60 60 61 61 62 63 62 65 63 57 57 57 60 61 61 60 61 61 62 61 60 59 58 57 55 52 50
21 22 22 23 24 26 24 22 22 24 28 28 29 31 34 38 40 46 55 57 56 57 57 59 61 61 62 62 59 62 63 61 57 57 58 59 61 60 59 59 58 58 57 56 55 54 52 51 50
23 22 23 23 23 23 23 23 24 24 25 24 24 29 31 34 41 45 52 56 55 56 55 58 62 61 61 61 61 61 63 62 60 57 57 58 59 59 58 57 56 56 55 54 53 52 51 50 51
25 25 22 22 20 20 20 17 21 24 24 23 22 23 29 36 42 45 46 55 57 56 56 58 61 61 60 60 62 61 61 62 61 60 57 56 57 57 56 55 55 55 55 55 54 52 50 52 54
25 22 20 19 19 17 17 17 18 21 20 20 21 19 26 33 42 45 49 54 57 58 57 57 59 61 61 62 61 62 62 60 63 61 61 57 58 57 57 57 56 58 58 57 56 53 52 52 55
19 21 22 20 20 21 21 17 18 20 19 19 18 17 23 30 41 49 52 56 58 59 58 58 59 60 60 60 60 60 62 60 61 62 62 62 60 61 60 61 60 60 60 57 56 55 56 55 55
27 26 22 23 22 20 23 23 25 24 20 21 25 20 24 29 51 53 55 55 56 59 59 59 58 59 60 59 58 58 58 61 61 63 62 62 63 63 63 62 59 58 60 58 57 56 55 55 55
25 25 25 25 25 25 25 26 26 25 20 22 34 32 41 43 48 53 55 55 55 56 59 59 59 59 60 58 58 58 59 61 62 63 64 64 62 63 63 63 61 58 60 60 59 57 56 55 55
28 27 27 27 29 29 28 28 27 26 20 33 39 40 42 43 47 52 53 54 54 54 53 58 60 59 60 59 60 60 59 61 60 62 62 62 63 62 62 62 62 61 62 61 61 61 61 57 57
27 31 32 30 29 22 25 19 21 19 18 30 36 40 43 46 45 50 53 54 54 54 55 57 59 60 60 60 59 59 57 58 59 61 62 62 63 62 62 62 62 62 62 62 61 62 61 61 59
31 35 35 32 30 28 26 23 15 20 25 29 35 39 44 48 46 48 52 54 55 55 55 57 59 59 60 60 60 60 58 59 61 60 59 59 61 61 62 62 63 62 63 62 62 62 62 61 60
39 34 30 29 30 23 26 24 15 18 23 30 34 37 45 49 46 46 48 52 52 52 53 54 55 56 58 59 60 60 59 59 59 59 59 59 60 61 61 61 62 63 63 62 62 62 61 61 60
36 31 25 21 20 24 31 26 31 31 30 33 35 43 47 47 45 45 46 47 48 48 49 50 52 53 56 57 58 59 59 59 58 55 58 59 59 60 60 61 61 62 62 61 61 60 60 60 59
34 33 27 19 23 25 30 27 30 38 31 31 43 45 43 43 43 44 44 46 46 47 47 48 51 51 50 53 56 58 60 59 59 58 58 59 58 58 58 61 61 62 61 61 61 60 59 59 58
32 31 34 29 30 28 29 31 36 39 39 43 42 43 42 41 41 42 43 43 45 45 45 46 47 47 47 48 48 50 59 59 59 59 58 58 59 60 59 60 60 60 60 61 60 60 59 58 58
35 35 26 29 23 22 27 27 29 34 35 36 37 39 40 41 42 42 43 42 42 41 39 39 40 42 43 44 46 46 47 49 51 57 59 60 60 60 60 60 60 60 60 60 60 59 59 58 57
32 27 28 25 23 24 19 25 37 35 35 35 37 38 39 39 40 41 43 42 37 37 38 38 39 39 39 40 43 45 46 46 47 48 50 53 56 57 59 60 60 60 60 60 59 58 57 56 55
31 27 23 20 21 21 23 27 36 35 36 37 37 37 39 39 39 38 37 37 34 31 31 32 34 35 38 40 39 41 44 45 46 46 47 48 50 53 55 57 59 59 59 58 58 56 55 54 53

GFSSGP_sfc_30mbdewp_093.txt.gz
Dewpoint
53 53 55 53 44 42 39 39 37 34 33 31 29 28 32 47 47 43 61 65 69 69 70 71 70 70 69 69 68 69 72 71 71 71 70 70 70 70 69 67 67 69 69 69 68 68 66 66 65
55 56 52 47 39 36 35 34 32 33 32 31 29 32 33 53 60 61 60 67 68 69 70 70 71 70 69 69 68 68 70 71 70 70 71 71 70 70 68 67 68 70 69 67 66 66 65 65 66
54 54 45 41 39 35 32 32 28 28 30 29 29 36 42 57 60 61 63 66 67 69 70 70 71 70 70 69 68 68 68 70 71 70 70 71 70 69 68 67 69 69 68 67 65 65 66 66 66
46 45 43 40 36 35 37 35 35 33 32 30 31 31 54 60 61 62 65 67 67 68 69 71 71 71 70 70 70 69 68 68 70 70 70 70 70 69 68 68 69 68 67 65 64 65 65 64 64
46 43 38 36 36 35 35 35 35 31 30 29 30 30 42 61 63 63 64 66 66 67 70 70 71 70 70 70 69 69 69 68 70 70 69 70 69 69 68 67 68 65 66 66 66 66 65 63 62
41 41 36 33 32 32 31 31 32 29 28 27 28 30 47 62 62 63 64 65 67 69 69 70 70 70 70 69 69 69 69 70 70 70 69 69 68 68 67 66 62 62 63 66 67 67 64 62 61
41 39 34 33 30 28 28 27 25 26 26 26 29 27 51 60 63 65 66 66 67 68 68 69 69 69 70 70 68 67 68 69 70 68 67 67 68 67 65 63 62 64 66 68 68 66 64 62 60
39 36 33 33 31 29 28 26 26 23 22 27 29 27 32 55 64 65 65 65 65 66 66 66 67 66 67 69 68 67 66 67 68 68 67 67 67 65 62 63 63 62 68 68 68 67 65 63 62
37 34 32 32 30 29 28 25 25 29 28 28 28 29 50 59 64 63 62 63 64 64 65 66 64 63 63 66 68 67 66 67 67 67 67 66 64 63 62 64 63 65 67 67 68 67 67 64 61
34 33 33 33 31 28 27 28 29 29 30 31 32 33 44 60 59 58 57 58 61 63 63 64 64 63 63 62 62 64 66 67 68 67 66 64 63 62 61 64 63 65 66 66 65 65 64 60 57
29 31 33 33 32 31 27 25 26 29 30 30 30 31 31 42 53 56 57 58 59 63 63 63 64 64 63 62 62 62 63 65 67 67 66 64 63 62 62 65 64 64 65 65 65 65 62 58 56
24 25 25 26 26 25 24 22 21 25 28 30 30 30 31 34 41 53 56 57 58 60 62 62 62 63 63 63 62 62 62 61 63 66 66 65 62 62 63 64 65 63 64 64 63 62 59 57 55
21 23 25 25 25 24 25 25 23 23 24 26 28 29 29 31 36 47 55 55 56 59 60 61 61 60 61 61 62 60 62 63 61 64 65 66 63 62 63 62 63 63 63 62 62 60 57 55 54
22 23 22 24 24 24 23 24 26 25 25 24 25 26 26 28 31 41 51 50 55 57 60 61 60 60 61 61 61 61 61 64 59 62 63 63 61 62 62 61 62 62 62 61 60 58 57 54 52
27 25 26 25 24 24 24 22 22 24 26 25 24 24 25 26 31 35 51 52 54 56 58 60 60 61 62 61 61 61 61 63 63 58 60 61 61 61 61 61 61 61 59 57 57 56 53 51 50
27 26 22 23 24 24 25 19 20 21 22 24 25 25 25 25 25 32 47 52 52 57 57 60 61 60 60 61 61 60 61 64 63 63 58 59 60 60 59 58 58 58 57 55 53 52 51 51 51
26 18 21 22 24 24 22 19 20 21 21 22 24 25 25 24 24 31 45 51 55 57 58 60 60 60 59 60 60 62 60 63 63 63 61 57 59 59 58 56 56 55 55 55 54 53 52 50 53
18 20 22 22 23 23 23 22 23 23 20 20 20 20 21 23 22 31 50 52 56 57 58 59 61 60 60 61 61 61 60 62 62 63 63 59 57 58 57 56 55 56 57 56 56 54 54 52 52
26 26 26 26 28 25 23 23 25 27 27 27 21 20 22 19 22 53 54 55 58 58 58 57 59 60 60 60 59 60 59 59 61 62 62 61 60 58 58 59 58 59 59 57 56 56 55 55 56
27 26 25 27 27 28 29 28 29 30 28 28 24 21 30 24 46 51 53 55 55 56 58 59 59 59 60 60 59 58 58 58 58 59 61 62 60 61 62 61 60 59 60 58 57 56 56 55 56
27 27 27 27 30 32 31 27 27 28 30 30 28 32 41 44 47 51 53 54 55 56 57 59 59 59 60 60 60 60 59 58 56 57 59 61 63 61 62 62 62 60 60 60 59 59 57 55 56
27 30 30 32 30 22 28 19 21 25 27 26 26 37 40 44 48 50 52 52 54 54 55 58 59 60 60 60 60 59 57 56 57 60 61 59 60 61 62 62 62 61 61 61 61 62 61 60 58
30 35 34 33 29 27 24 24 21 21 20 19 27 37 39 45 46 48 51 54 55 55 55 56 58 59 60 60 60 59 58 58 60 60 60 60 61 62 61 61 61 61 62 61 61 61 61 61 60
33 33 32 32 29 22 23 22 20 21 25 25 32 38 46 46 46 47 48 50 51 52 52 53 54 55 58 59 59 59 59 59 58 59 59 59 60 61 61 62 61 62 62 61 61 61 61 61 60
34 33 23 20 20 18 30 23 25 35 38 35 33 43 45 44 45 45 46 47 48 48 48 50 51 53 56 58 58 58 59 59 59 57 58 59 59 58 60 60 61 61 62 62 61 61 61 60 60
33 32 27 19 22 24 29 26 30 38 43 44 44 44 43 43 43 43 45 46 46 46 47 49 50 50 51 52 53 55 59 59 58 57 57 58 58 59 59 60 60 61 62 61 61 60 60 60 59
32 31 34 28 30 25 28 31 35 36 36 41 41 41 41 41 42 43 44 44 44 44 43 44 44 46 48 49 49 51 54 59 59 59 57 57 59 59 59 59 59 59 61 60 60 59 59 59 59
35 36 27 28 22 22 26 27 28 31 32 36 37 38 40 41 42 43 43 43 44 44 43 41 40 40 42 45 47 48 49 51 53 55 58 59 58 59 59 59 59 59 60 60 60 59 59 58 58
31 30 30 27 25 22 20 25 34 32 33 35 37 38 38 39 41 41 41 40 39 36 35 34 34 35 38 40 41 44 45 46 47 47 49 51 54 56 57 59 60 59 59 59 59 59 59 58 58
31 29 25 21 22 22 23 26 37 37 37 37 37 39 39 39 39 40 39 38 33 33 33 33 34 34 34 36 40 40 40 41 43 45 46 47 47 49 53 55 57 59 59 60 59 59 58 57 56

GFSSGP_sfc_30mbdewp_096.txt.gz
Dewpoint
54 56 54 51 41 41 38 36 41 38 33 32 30 30 29 38 43 40 61 66 68 69 70 70 70 70 70 69 71 72 72 71 71 71 70 69 71 70 68 66 68 69 69 69 69 68 67 67 67
55 55 51 46 36 35 33 39 37 37 34 32 31 30 32 45 60 60 62 67 68 69 70 70 70 70 69 69 68 71 71 71 71 71 71 71 70 69 68 67 68 69 69 68 67 65 65 66 66
52 54 43 42 38 33 30 33 32 32 34 33 31 32 42 56 60 61 64 68 68 69 70 70 71 70 70 69 68 68 71 71 71 71 71 70 70 69 68 68 70 69 68 68 67 64 65 66 66
46 45 43 39 33 37 36 36 36 36 34 32 30 27 56 60 60 62 67 68 69 69 70 71 71 70 70 69 68 67 68 71 71 71 70 70 70 69 68 69 70 69 68 67 66 64 66 66 65
46 43 38 37 37 37 37 36 35 33 32 31 28 27 46 61 63 64 66 68 68 68 70 71 71 71 70 70 70 69 67 69 70 70 69 69 70 69 68 69 69 67 67 65 65 65 65 64 63
41 41 35 30 33 34 33 32 30 27 27 27 25 27 43 61 63 65 67 67 67 68 70 70 71 71 70 70 70 69 69 69 70 70 70 70 70 67 68 68 68 67 67 66 66 65 63 62 62
40 38 34 34 33 31 30 28 26 25 24 23 26 25 38 60 64 65 66 67 68 69 69 70 70 70 70 70 69 69 69 69 70 69 69 69 68 67 67 67 66 63 63 67 67 65 62 62 61
39 37 34 33 31 31 31 28 27 26 27 29 29 28 34 43 65 64 64 65 66 67 68 68 69 70 70 68 68 67 67 68 69 68 68 67 67 66 66 64 61 64 66 67 68 65 62 61 61
37 34 32 32 31 31 30 28 28 30 30 31 32 32 32 44 64 62 62 63 64 65 65 66 66 66 68 68 67 66 66 67 67 67 67 67 67 65 63 62 63 63 66 69 68 66 64 63 61
34 33 32 34 33 31 32 29 25 25 26 30 31 31 31 34 41 54 57 57 61 63 64 65 63 63 65 66 65 66 66 66 67 67 67 66 65 62 62 63 63 63 67 68 68 67 66 62 58
29 31 34 33 32 32 27 25 24 22 24 27 29 29 30 32 34 42 55 58 60 62 64 64 63 63 63 63 63 63 64 65 66 66 66 64 64 62 63 63 63 64 65 66 66 66 63 58 55
24 27 25 26 26 26 24 25 24 23 22 27 27 28 30 29 31 36 41 55 58 61 62 63 64 64 63 62 62 62 61 61 64 66 65 65 63 62 63 64 63 64 65 64 64 63 60 58 55
22 22 23 23 23 23 23 23 24 25 27 25 26 26 26 27 28 32 41 53 57 58 61 62 63 63 62 62 62 61 62 62 61 63 65 65 64 63 63 64 64 62 64 64 63 62 60 57 55
25 27 26 27 26 25 23 22 24 24 26 26 26 26 26 26 27 30 38 45 54 56 59 61 61 61 61 61 61 60 60 62 63 62 64 65 65 64 63 63 63 62 63 63 62 61 58 55 54
29 25 26 24 25 24 24 21 20 21 23 22 23 23 25 26 26 27 30 40 51 55 60 60 60 60 61 61 60 60 60 59 63 62 64 64 64 64 63 62 62 62 62 62 60 59 58 55 54
26 26 20 21 24 24 25 18 20 21 22 21 21 21 21 26 27 27 27 35 48 56 59 60 60 60 60 61 61 61 60 61 63 62 61 62 62 63 63 62 61 62 61 60 59 58 56 54 52
24 15 20 22 25 25 25 23 23 24 23 22 21 21 22 25 27 28 28 33 46 55 58 59 60 59 58 61 61 60 60 61 62 63 62 59 61 61 62 61 60 60 59 58 56 55 54 51 51
16 20 22 22 23 25 26 26 26 25 26 23 21 20 20 21 23 25 27 36 48 56 57 59 60 59 60 60 60 61 60 61 62 62 62 60 59 60 60 60 59 58 57 56 55 53 53 51 51
25 25 24 25 27 27 27 27 27 27 27 27 27 26 24 22 23 26 31 47 55 57 57 59 59 60 59 59 59 59 60 60 60 62 61 62 58 60 59 58 57 57 56 55 55 54 53 53 52
27 26 25 27 27 29 30 29 30 31 30 29 28 29 27 25 25 37 49 53 56 56 57 57 59 60 60 60 59 59 60 60 60 60 60 60 61 59 59 58 56 57 56 57 56 55 55 54 55
26 26 26 26 28 31 31 26 27 27 30 31 30 31 29 29 31 44 51 53 54 55 56 57 58 58 59 60 60 59 60 59 59 59 60 60 61 61 59 59 59 58 58 58 57 57 56 55 56
26 29 29 29 30 24 28 19 21 23 27 29 30 30 29 41 47 50 51 53 53 54 56 57 57 58 59 60 59 59 58 56 57 58 60 61 61 60 60 61 61 60 60 60 59 58 57 57 56
27 32 32 34 29 28 25 23 20 21 21 30 23 26 41 45 46 49 51 52 54 54 54 55 57 57 59 60 60 59 58 58 59 60 59 60 61 61 61 62 62 61 61 61 60 60 60 59 58
30 30 33 32 30 21 23 22 19 30 34 36 32 39 45 45 46 47 49 50 51 53 53 53 54 54 56 58 59 59 58 58 58 59 59 59 60 61 61 61 62 61 60 61 61 61 60 60 60
32 31 24 19 20 18 30 22 21 35 39 40 38 42 43 43 44 45 46 47 48 49 50 51 52 52 53 54 56 58 59 59 58 58 58 58 59 59 60 61 60 61 61 61 61 60 60 60 60
33 32 26 19 21 24 30 24 30 37 39 41 43 42 42 43 43 44 44 44 45 45 48 49 49 49 50 51 52 52 54 59 58 58 59 59 59 59 59 60 60 60 60 60 60 60 60 60 60
33 31 35 28 30 24 27 31 34 35 35 39 40 40 40 41 42 43 44 44 44 44 43 42 44 45 47 49 50 50 51 55 57 58 58 57 58 59 59 59 59 60 60 60 60 60 59 59 59
35 36 28 28 21 21 26 27 27 30 31 37 37 38 40 41 41 42 42 41 42 41 41 40 40 40 43 45 47 49 49 50 51 53 55 57 58 58 58 59 59 59 59 59 60 59 59 58 58
31 30 31 30 26 23 21 25 32 31 32 34 37 38 39 40 41 41 40 41 41 40 40 38 38 36 36 41 41 42 43 45 47 47 47 48 50 52 55 56 58 59 59 59 59 59 58 58 58
31 29 27 22 21 23 23 27 36 35 36 37 38 38 39 39 39 40 40 39 39 38 38 35 35 35 35 36 38 39 39 40 40 41 43 45 46 46 48 51 54 56 59 59 58 58 58 58 57

GFSSGP_sfc_30mbdewp_099.txt.gz
Dewpoint
54 55 54 48 38 39 35 32 41 38 34 33 32 31 30 30 29 32 61 67 69 69 70 71 70 71 72 72 73 73 73 72 71 71 69 70 70 68 67 68 68 68 68 68 69 68 68 66 65
55 55 49 43 33 27 20 39 37 38 36 35 33 30 30 32 58 60 63 67 69 70 70 70 70 70 70 72 72 72 72 72 71 71 70 70 70 69 67 68 69 70 69 69 68 68 67 66 66
51 53 42 41 36 23 17 34 35 35 36 35 31 30 33 52 60 61 63 68 68 69 70 70 71 70 69 69 71 71 71 71 71 71 71 71 70 69 67 68 70 69 69 68 67 65 67 66 64
45 45 43 36 32 36 34 37 37 35 34 33 30 27 33 59 60 62 68 68 68 69 70 71 71 71 70 69 69 71 70 70 71 71 69 70 70 69 68 70 70 69 68 67 66 66 66 66 64
45 42 35 35 35 37 37 37 33 30 30 29 28 26 27 58 63 66 68 68 68 69 70 71 71 71 70 70 69 68 70 70 70 70 69 69 70 69 69 70 69 68 68 67 65 66 67 65 63
40 40 29 25 33 35 34 33 29 27 26 25 26 26 27 59 58 65 67 68 69 69 70 71 71 71 71 70 70 69 68 69 70 71 70 69 70 69 68 69 68 68 66 66 65 66 65 63 63
39 36 30 33 33 32 30 29 26 25 27 25 29 25 31 35 44 64 66 67 67 69 69 70 71 71 70 70 70 70 70 69 70 70 70 70 69 68 67 68 68 67 66 66 65 65 63 62 63
40 36 34 34 31 30 32 28 27 28 27 30 32 30 33 31 56 63 65 66 67 67 68 67 68 69 69 69 69 69 69 69 70 69 69 69 68 67 66 67 68 67 66 67 66 64 62 62 63
38 34 30 31 31 31 31 31 29 28 29 26 31 31 31 31 41 50 61 62 64 65 66 67 67 68 68 68 68 67 67 68 68 68 68 68 68 67 66 67 66 64 65 66 66 64 63 62 60
35 33 30 34 33 32 32 29 26 25 24 25 31 29 29 30 33 34 43 57 61 62 64 65 65 66 67 67 66 65 66 66 66 67 66 67 67 65 64 63 62 63 64 68 67 66 65 62 59
32 32 33 33 32 30 27 25 25 24 23 26 24 26 26 28 28 31 33 43 57 61 62 63 64 64 66 65 65 65 65 65 66 66 66 65 65 63 63 62 62 63 66 68 68 67 64 60 56
24 26 27 26 26 24 23 25 23 24 24 25 26 26 27 27 26 29 30 33 48 59 62 63 63 63 64 64 63 63 63 64 65 66 65 64 63 63 63 62 62 63 66 66 66 65 63 59 55
22 23 26 26 26 25 24 23 24 24 25 26 27 27 27 27 26 28 30 35 43 57 61 62 63 63 63 63 62 62 61 61 63 65 65 64 64 63 64 63 63 62 64 64 64 63 61 58 55
27 28 27 27 26 27 24 22 23 23 24 24 24 24 26 26 26 27 28 27 33 47 57 62 63 63 63 62 62 61 62 61 60 61 64 64 64 63 63 64 63 62 63 63 63 62 60 58 56
29 24 25 22 24 23 25 20 20 20 21 21 21 22 22 25 26 26 26 28 32 36 53 60 61 62 62 62 61 61 61 60 61 62 62 64 64 63 64 63 64 63 63 63 62 62 60 58 55
25 25 17 18 24 24 23 16 20 23 23 22 23 23 23 22 24 26 27 28 30 39 52 59 61 61 61 61 61 61 61 60 61 61 63 64 64 63 63 63 63 63 63 62 62 61 59 57 55
22 13 18 21 25 25 24 20 25 25 25 24 24 23 23 23 26 28 28 28 28 34 50 58 60 60 60 60 60 60 60 60 60 62 61 63 63 63 62 62 62 62 62 61 61 59 58 55 54
14 19 21 22 23 25 24 24 25 27 28 26 25 24 23 22 23 25 27 28 30 36 53 58 59 59 60 60 61 60 60 60 61 61 62 61 61 62 62 60 61 61 61 60 59 58 56 55 54
22 24 24 25 26 26 26 26 27 29 30 29 27 27 26 26 26 27 28 30 31 39 52 57 59 59 59 59 59 60 59 59 60 61 62 61 61 60 61 61 61 61 60 59 58 57 54 54 52
26 25 25 26 27 28 28 29 31 31 30 31 30 28 28 28 28 28 31 39 46 49 55 57 59 59 59 59 59 59 59 59 60 60 60 61 62 60 61 61 60 60 59 57 56 56 54 53 54
26 25 24 25 28 30 29 27 23 23 26 30 32 31 31 30 29 29 36 50 54 55 56 57 58 59 59 59 59 59 59 59 60 60 60 60 61 62 60 60 60 58 58 57 56 56 55 53 55
25 27 27 27 30 26 29 21 22 23 26 33 32 31 31 32 33 46 49 50 52 54 56 56 58 58 59 59 59 58 57 57 58 59 60 60 61 61 62 61 60 58 58 57 57 57 56 55 54
26 31 31 31 31 29 26 23 20 30 32 34 35 26 35 44 45 47 50 52 53 53 54 56 56 57 58 59 59 58 57 57 58 58 58 59 60 61 62 62 61 60 59 58 59 58 57 57 56
30 30 32 31 29 20 25 22 20 30 34 37 36 41 43 43 45 47 48 50 51 52 52 53 54 55 56 57 58 58 59 58 58 58 58 59 59 60 60 61 61 61 61 60 60 60 59 59 58
32 31 23 19 19 17 29 24 22 34 37 40 40 41 42 44 45 44 44 45 47 49 51 52 51 51 52 53 53 53 54 57 58 58 58 58 58 59 60 61 61 60 61 61 60 60 60 60 59
32 32 26 19 20 23 29 22 28 35 37 40 41 42 42 42 43 43 44 44 44 44 44 46 47 48 49 51 51 51 52 55 58 58 59 59 59 59 60 60 61 61 60 60 60 59 60 60 59
32 30 35 29 28 25 26 31 36 34 34 38 39 40 40 41 42 41 41 41 40 41 41 41 43 44 45 48 50 50 50 51 52 53 55 57 57 58 59 59 59 59 60 60 59 59 58 59 58
34 36 28 28 21 20 26 27 27 30 31 36 37 38 39 40 40 40 40 41 41 41 41 41 42 41 42 43 44 46 47 48 48 49 49 49 51 53 57 58 58 59 59 59 59 59 59 59 59
30 29 31 30 27 23 21 26 33 31 32 33 36 38 38 39 39 40 40 41 41 40 40 40 39 38 38 39 40 40 42 43 43 43 45 46 47 48 49 53 55 56 58 59 58 58 59 58 58
31 29 28 23 21 24 23 27 37 36 36 35 35 36 39 39 40 40 40 41 40 40 40 39 38 36 37 37 38 38 39 39 40 40 40 42 42 45 45 46 48 51 53 56 58 58 58 57 57

GFSSGP_sfc_30mbdewp_102.txt.gz
Dewpoint
54 55 54 45 33 35 27 26 41 37 36 34 34 32 30 30 28 28 61 67 68 69 71 71 70 71 72 71 72 71 72 71 70 69 67 68 69 67 67 67 66 66 65 68 68 68 66 65 64
54 53 47 39 30 12 9 37 36 38 37 36 34 31 30 29 39 56 63 67 69 70 70 70 71 71 72 71 71 72 71 71 71 70 69 70 69 67 68 68 68 68 69 69 69 68 66 65 65
52 50 41 38 32 13 12 34 35 36 37 35 31 30 30 47 58 60 63 68 69 70 70 70 71 71 72 72 72 72 71 71 70 70 69 70 70 68 67 68 70 69 69 69 69 67 66 66 65
45 44 42 33 28 33 32 36 37 31 32 32 29 26 29 58 56 64 66 68 69 69 69 70 70 71 71 72 72 71 71 71 71 70 70 70 70 69 67 69 70 70 69 68 67 67 66 65 64
44 40 32 32 33 36 37 38 32 29 28 28 27 24 26 53 43 55 67 68 68 69 70 71 71 71 70 70 71 71 71 71 70 70 69 69 70 69 69 70 70 69 68 67 66 66 66 64 64
39 38 23 19 30 35 35 34 31 25 26 26 28 27 33 42 35 58 64 67 68 69 70 71 71 71 71 70 69 70 71 71 71 70 70 69 70 69 69 69 70 69 67 66 66 66 66 63 64
37 30 26 31 31 32 31 29 26 27 27 26 30 26 31 31 32 45 63 65 68 68 69 70 70 71 70 70 69 69 69 70 71 70 70 70 69 69 68 68 69 68 68 67 66 66 65 63 64
39 34 32 33 29 28 32 31 28 27 27 29 31 30 31 30 33 39 60 64 65 67 68 68 68 69 69 69 69 70 69 69 70 70 70 69 69 68 68 68 68 68 67 67 67 65 63 63 63
38 29 24 28 31 29 32 31 31 27 28 25 28 31 31 29 34 32 36 48 61 64 66 67 67 67 67 68 69 68 68 69 69 69 69 69 68 68 67 67 68 67 68 67 66 64 63 64 63
35 27 26 33 33 32 32 29 27 26 25 24 26 30 28 27 30 30 31 33 40 58 62 65 66 67 67 68 67 66 67 66 66 67 67 67 67 67 66 67 67 67 67 67 66 64 64 63 60
34 28 33 33 33 28 26 25 26 24 23 24 25 26 26 27 27 29 29 32 34 47 59 63 64 66 67 66 65 65 65 65 66 66 66 66 67 65 65 65 66 64 64 66 67 66 64 60 57
21 27 28 25 26 25 23 24 23 24 23 25 25 26 27 26 27 28 28 29 31 38 54 62 63 64 65 65 64 64 64 64 64 65 65 65 65 63 63 62 62 63 65 66 67 66 63 60 56
23 25 27 27 27 26 25 24 23 23 24 25 25 26 27 26 26 27 29 30 33 31 43 60 62 63 64 64 64 63 63 63 63 65 65 64 64 63 64 63 63 63 65 65 66 65 63 60 56
28 28 27 26 25 26 23 22 23 21 24 24 23 23 24 25 25 25 28 29 29 30 36 51 61 62 63 63 63 63 62 62 62 64 65 64 64 63 63 63 63 63 64 64 64 64 62 60 57
29 19 21 20 24 21 24 18 19 21 22 20 21 22 22 23 25 25 26 27 27 29 35 44 60 62 62 62 62 62 62 61 60 60 62 64 64 63 63 63 63 63 64 64 63 62 61 60 57
23 22 10 14 23 24 21 12 18 20 20 21 23 23 23 25 24 24 26 27 28 30 32 46 59 61 61 62 61 61 61 61 60 61 61 62 64 63 63 63 63 64 64 63 62 62 61 60 58
18 8 16 19 25 25 23 17 23 26 25 25 25 25 26 26 25 25 26 27 28 30 31 42 55 60 61 61 61 61 60 60 60 61 61 62 64 64 63 63 63 64 63 63 63 61 60 59 58
11 16 21 21 23 25 24 24 25 27 27 27 28 29 29 26 25 26 27 28 30 32 32 42 56 59 60 60 60 60 60 60 60 60 61 61 63 63 63 62 62 62 60 61 61 61 59 59 58
21 23 23 24 26 26 26 26 27 29 30 31 32 31 30 27 27 27 28 30 31 33 35 43 55 58 59 59 58 58 58 58 59 60 60 61 61 61 63 62 61 62 59 57 59 60 59 57 56
25 24 23 25 26 27 28 29 30 31 30 29 31 31 32 29 28 29 30 31 32 32 37 47 55 58 59 59 58 58 58 59 59 59 60 61 61 61 60 61 62 61 60 59 59 58 57 57 55
25 24 24 24 26 29 30 29 26 24 26 31 35 33 33 31 31 31 31 33 40 49 51 53 57 59 59 59 59 59 59 59 59 59 59 59 61 62 61 61 61 61 61 58 59 59 58 55 54
24 27 26 26 28 24 32 21 23 27 33 36 36 35 32 34 37 36 43 48 49 51 54 57 58 58 59 59 59 57 57 56 57 58 59 60 60 60 62 61 61 61 60 60 59 58 57 55 54
26 29 29 30 29 28 26 23 22 29 31 35 37 40 41 44 45 46 49 50 51 52 54 56 58 57 58 58 58 57 57 57 58 57 57 58 60 60 60 61 61 60 60 59 59 58 57 57 55
29 30 31 32 27 20 22 24 21 30 33 35 39 40 41 44 45 45 46 48 49 51 52 53 54 53 55 56 56 55 55 56 57 57 57 58 58 59 60 61 61 61 61 60 59 59 58 57 57
32 31 22 17 18 17 28 24 23 33 34 38 39 40 42 43 43 43 43 44 44 45 48 50 50 50 51 51 52 52 53 54 56 58 58 58 58 58 59 60 59 59 60 60 60 59 59 58 58
32 32 26 18 18 21 29 23 28 34 35 39 40 41 41 41 41 41 41 41 42 43 43 44 45 46 48 50 50 51 51 52 53 53 56 57 56 58 59 60 60 60 60 60 60 59 59 59 59
32 30 34 28 26 24 25 31 36 35 34 37 38 39 39 39 40 40 40 41 41 42 42 42 42 43 43 45 47 47 48 48 49 50 50 50 51 52 54 58 58 59 60 60 60 59 58 59 59
34 35 26 26 20 17 22 27 27 31 31 34 35 36 37 39 39 40 40 40 40 41 41 40 40 41 41 42 42 43 44 45 45 45 45 46 48 49 49 51 53 55 57 59 59 59 59 58 58
30 28 29 29 28 22 21 25 35 33 33 32 35 36 35 38 39 40 40 40 40 41 40 40 38 39 40 40 39 39 39 41 42 41 41 42 43 44 46 47 49 50 52 54 56 58 58 58 57
31 29 27 24 21 23 24 24 35 37 37 35 34 36 36 38 39 40 40 40 39 39 39 39 39 38 37 37 36 36 36 37 37 39 39 40 40 41 42 43 44 45 46 47 49 51 54 57 57

GFSSGP_sfc_30mbdewp_105.txt.gz
Dewpoint
54 55 53 42 28 31 20 24 41 37 36 34 35 33 31 31 29 30 62 65 68 68 71 70 72 73 72 72 72 71 71 71 71 70 71 70 69 68 67 66 66 66 67 68 69 67 66 66 64
54 52 46 36 24 7 9 36 35 38 38 37 35 32 30 29 47 57 62 66 69 70 71 69 71 73 72 72 71 71 71 71 70 68 68 70 68 68 67 67 66 67 68 69 69 67 65 64 65
52 47 40 32 28 10 12 34 36 36 35 34 30 29 30 49 50 59 62 67 69 70 70 69 71 72 72 72 71 71 71 71 70 70 68 70 69 68 68 68 68 68 69 69 68 67 66 65 64
46 43 41 29 19 30 29 35 36 30 30 29 28 26 41 35 36 50 60 68 69 70 70 70 71 71 72 72 72 72 71 70 70 70 69 69 70 68 68 69 69 69 69 69 68 67 67 67 66
44 37 32 28 29 34 37 38 35 28 27 26 27 25 27 40 35 39 62 67 68 69 69 70 71 71 72 72 71 71 71 71 71 70 69 69 69 69 69 69 69 69 69 69 68 66 65 64 64
39 34 20 14 26 33 34 34 31 25 27 26 28 29 31 39 32 39 57 64 67 68 69 70 70 71 70 71 71 71 70 70 71 71 70 69 69 69 68 69 70 69 68 68 67 66 64 64 64
34 23 19 25 26 30 31 30 27 27 28 27 29 28 30 33 31 38 46 64 65 68 67 68 69 69 70 70 69 69 70 69 70 70 70 70 69 69 69 68 69 69 68 68 67 66 65 64 64
39 32 31 31 27 22 32 32 28 28 28 29 30 30 31 30 31 36 41 46 60 64 67 68 68 69 69 68 69 69 69 69 70 70 70 70 69 69 68 68 68 68 67 67 67 67 65 65 64
38 17 17 25 30 27 33 31 31 28 27 27 27 31 31 29 32 33 34 37 40 50 61 66 68 68 67 68 68 68 69 69 69 69 70 69 69 68 67 66 67 67 67 68 68 66 65 65 64
31 17 19 32 33 32 33 30 27 25 25 24 25 27 29 28 29 30 31 32 34 36 44 61 65 67 67 67 68 68 68 68 68 68 68 68 68 68 67 66 67 67 67 68 67 66 65 65 61
34 21 32 33 33 26 25 25 26 24 21 22 21 25 26 27 27 29 30 32 32 34 42 51 63 64 67 67 67 66 66 67 66 66 67 67 68 68 67 66 67 66 67 67 65 65 62 62 60
20 28 28 26 25 26 24 24 22 24 21 23 25 26 27 27 27 29 29 30 30 33 36 46 62 63 64 67 66 65 65 65 66 66 66 66 67 67 66 65 66 65 65 66 65 64 62 61 58
22 25 27 27 28 27 26 24 24 21 23 25 25 26 26 27 28 27 28 29 31 30 32 36 56 62 63 64 65 64 64 64 63 65 66 66 66 66 65 65 65 65 65 65 65 65 63 59 57
28 27 26 26 24 25 23 23 23 17 22 23 24 24 24 24 24 26 27 28 30 31 31 35 45 60 62 63 63 64 64 63 63 64 65 65 65 64 65 64 64 64 65 65 65 64 63 61 58
28 14 18 19 24 22 25 20 20 21 23 21 21 21 22 24 25 25 26 27 27 30 30 30 38 53 62 62 62 64 62 62 62 62 64 65 65 64 64 64 64 64 64 65 65 65 64 62 60
20 18 4 16 23 24 21 16 17 22 24 25 25 26 26 26 26 26 26 27 28 30 30 31 37 53 61 62 62 63 63 62 62 61 62 62 63 64 64 63 64 64 64 64 64 63 63 61 60
16 3 14 17 24 25 23 22 22 25 27 28 28 28 28 29 30 30 29 27 27 30 31 33 39 49 58 61 62 62 62 62 61 61 61 61 61 62 63 63 63 64 63 63 63 63 62 61 60
5 14 19 19 22 25 25 25 27 28 29 30 30 30 30 31 32 32 30 29 30 32 34 35 37 48 58 60 61 61 61 61 61 61 61 61 61 62 63 63 63 64 63 62 63 62 61 61 60
21 22 22 23 25 26 26 26 28 30 32 31 29 30 32 33 33 32 30 31 32 34 35 36 40 49 59 59 59 59 58 59 60 60 60 60 61 61 62 62 62 63 61 61 61 62 60 59 59
25 24 22 24 26 27 28 28 30 31 30 30 31 33 36 33 33 32 32 33 34 32 35 36 41 54 58 59 58 59 59 59 59 60 60 60 60 61 61 62 61 61 61 60 58 58 57 59 58
25 24 23 24 26 29 30 28 25 24 29 34 38 39 40 39 40 40 37 35 35 36 39 41 43 53 56 59 59 59 59 59 59 59 60 60 61 61 61 61 62 62 61 60 59 58 56 54 56
23 26 26 26 28 25 30 21 24 24 29 34 37 39 40 42 43 45 47 46 48 48 50 53 54 57 58 59 59 58 57 56 57 59 59 60 60 60 61 61 61 61 61 61 60 59 58 57 54
25 29 28 29 30 29 27 25 23 28 30 33 36 39 41 43 44 44 46 47 50 50 51 54 57 58 58 58 58 57 56 56 56 57 58 58 59 60 61 61 61 61 61 61 60 60 59 59 57
30 31 32 31 28 20 21 25 23 29 32 34 38 40 41 43 43 44 45 45 46 47 50 51 53 53 54 55 54 55 55 55 56 57 56 57 58 59 59 60 61 61 61 60 60 60 60 59 58
32 31 22 17 17 17 27 25 24 33 35 35 39 40 40 41 41 41 42 43 44 44 46 47 48 50 51 51 51 51 52 52 53 53 56 57 58 58 58 59 59 60 60 60 60 60 60 59 58
31 31 25 19 19 21 28 23 26 36 37 38 39 38 39 39 40 40 41 41 42 43 43 43 44 44 47 48 48 48 48 48 48 49 50 50 50 51 52 53 58 59 60 60 60 59 59 59 59
32 28 34 28 26 23 22 27 35 36 34 36 36 36 36 39 40 40 40 40 40 40 41 41 41 42 42 42 43 44 45 44 43 44 45 47 48 49 50 50 51 53 54 56 59 59 59 59 59
34 35 25 27 19 18 20 25 27 33 33 34 34 33 35 38 39 40 40 40 40 40 40 40 40 40 40 40 39 40 41 43 43 42 42 42 43 43 45 46 48 49 50 50 52 55 58 58 59
32 29 30 28 27 21 20 21 34 35 35 34 34 34 35 38 39 40 40 40 40 39 40 39 39 39 38 37 37 35 36 38 40 40 39 38 39 40 40 42 43 44 45 47 47 49 50 52 56
31 29 26 23 21 23 23 22 35 37 37 36 35 36 37 39 39 39 39 39 38 37 38 38 38 37 37 34 31 32 30 31 32 33 34 35 34 34 35 35 36 38 40 43 44 44 45 46 48

GFSSGP_sfc_30mbdewp_108.txt.gz
Dewpoint
51 53 53 44 26 24 13 22 36 34 33 35 35 32 31 31 29 30 60 65 67 67 68 68 72 72 72 72 72 72 72 71 71 71 70 71 70 68 67 66 66 68 70 67 66 66 66 66 64
53 51 46 37 22 9 14 31 32 37 36 35 34 33 31 32 53 52 61 61 67 67 68 68 72 72 72 72 72 71 71 71 71 71 71 71 70 69 67 66 66 67 69 69 68 68 67 65 65
51 46 38 28 19 11 17 30 32 34 33 31 30 29 33 42 42 46 48 61 67 68 68 68 70 71 71 72 71 71 71 71 70 69 69 69 69 69 68 67 67 68 68 69 69 67 66 66 65
47 44 35 25 16 25 27 33 33 30 30 28 27 28 42 36 36 38 51 64 68 67 67 68 71 71 71 71 71 71 70 70 70 70 68 69 69 68 68 69 69 69 68 69 67 66 66 66 65
44 38 25 21 22 29 33 36 35 28 27 27 28 26 30 36 34 36 48 64 66 68 67 67 69 70 70 71 70 70 70 70 70 69 68 69 69 69 69 68 69 68 68 68 67 66 66 66 66
36 32 16 13 20 29 31 33 31 28 28 27 27 28 32 36 32 36 41 61 66 67 67 66 68 69 69 70 70 70 70 70 70 69 69 69 69 69 69 68 70 68 69 69 68 67 66 65 64
29 20 14 18 19 24 29 30 27 27 27 26 29 28 31 35 33 36 39 44 62 67 68 65 65 67 69 70 70 70 70 69 70 69 69 69 69 69 69 69 70 69 69 68 68 66 64 65 64
33 23 21 22 18 20 32 31 29 29 27 30 29 26 29 33 32 34 37 42 42 51 64 68 66 65 64 64 69 68 69 70 70 69 69 69 69 69 68 68 69 68 68 69 68 67 65 65 65
38 14 16 22 23 24 32 29 31 29 26 25 26 28 29 28 31 32 33 37 40 40 42 52 66 67 65 64 64 67 67 68 68 69 70 69 66 64 66 66 67 67 67 67 68 67 66 66 65
27 15 16 26 29 28 31 29 26 22 19 18 18 20 22 26 25 26 28 31 35 37 38 41 49 65 67 65 65 64 63 63 62 62 63 65 64 63 63 65 66 67 67 67 67 67 66 65 59
32 20 28 32 33 30 26 21 24 20 13 13 12 12 17 21 22 24 23 25 30 34 38 39 40 60 65 67 66 66 67 68 66 63 65 64 63 64 64 64 66 67 66 65 66 66 63 61 57
22 29 29 28 27 26 23 23 19 19 14 15 16 19 21 22 22 23 24 23 22 25 32 37 39 45 62 65 67 67 66 65 66 64 63 63 62 64 63 62 64 66 65 64 64 63 61 58 57
20 23 25 25 26 25 23 22 20 16 17 17 18 21 22 22 23 23 24 25 26 25 27 31 37 39 53 63 65 66 65 65 64 63 64 63 63 64 64 64 64 65 65 65 64 62 60 57 55
25 25 23 24 22 23 22 20 22 16 20 21 21 23 24 25 26 26 26 26 27 25 27 29 31 35 45 57 63 64 65 64 63 63 63 63 64 65 65 65 65 64 65 65 64 64 63 59 52
25 16 18 20 22 22 24 20 22 20 22 24 27 29 29 29 28 28 28 28 28 27 26 28 28 30 38 51 61 63 65 64 64 63 64 64 62 63 64 64 64 65 65 65 65 65 64 62 58
16 15 4 16 24 25 24 14 19 20 24 27 29 28 27 28 28 29 29 29 28 28 29 27 27 26 35 45 60 63 64 61 60 61 62 63 64 63 62 61 62 63 63 63 63 63 64 63 63
13 1 8 14 25 25 25 21 24 26 27 29 28 27 28 28 29 30 32 32 31 30 30 30 31 29 33 44 57 62 64 61 60 62 63 62 62 60 60 60 60 61 62 63 63 63 63 62 62
5 9 15 16 21 25 25 25 27 29 29 30 28 29 29 32 32 33 35 35 34 32 32 32 31 31 35 45 56 61 63 63 62 61 61 61 60 60 60 60 60 60 62 62 63 62 63 62 62
21 21 21 20 24 27 27 28 28 30 30 28 31 32 34 36 38 41 41 36 35 35 35 34 33 35 34 46 56 58 58 61 62 62 62 61 61 61 60 60 60 61 61 61 62 62 61 61 62
25 24 22 25 26 28 28 28 29 30 31 33 34 36 38 39 41 42 44 44 37 36 36 35 35 36 39 49 57 59 59 60 61 61 61 61 60 60 59 59 60 61 62 61 60 60 60 59 60
26 26 25 27 29 29 29 27 26 25 28 33 33 37 39 39 41 42 42 45 47 44 40 37 37 38 41 49 58 59 59 60 59 59 59 60 60 60 60 59 60 60 61 60 60 59 59 56 57
26 27 27 28 29 26 28 23 23 24 26 31 34 37 39 39 41 42 42 45 48 48 49 49 45 46 44 52 57 57 57 57 57 58 59 60 60 60 60 61 60 60 60 60 60 60 59 57 54
28 29 29 30 30 28 27 26 24 25 28 33 34 37 40 41 42 42 44 46 46 48 49 52 50 51 55 54 56 57 57 57 57 57 57 58 58 59 59 60 60 60 60 60 60 60 60 59 57
30 32 33 31 28 23 25 26 23 27 32 35 35 38 39 40 40 40 42 44 45 47 48 51 52 53 54 54 55 55 55 55 55 55 56 57 58 58 58 59 59 59 60 60 60 60 60 60 59
32 31 25 24 24 22 26 26 27 29 36 36 38 37 38 39 40 40 40 41 43 44 45 46 47 48 50 51 51 52 51 50 50 50 51 51 51 52 52 53 56 59 59 59 59 60 59 59 59
30 29 24 21 21 22 27 25 28 35 35 36 38 38 38 39 39 39 40 40 41 42 43 43 43 43 44 45 46 46 46 45 45 46 47 47 48 48 48 49 51 52 53 54 55 57 59 59 60
31 29 33 28 28 23 25 30 30 35 35 35 35 37 36 38 39 39 40 40 40 40 40 40 40 40 40 41 42 43 43 43 43 43 43 44 43 43 44 45 47 48 49 49 50 53 54 58 59
33 35 27 29 21 18 21 23 27 32 35 36 36 35 35 38 39 39 39 40 39 39 40 40 38 37 37 36 36 37 39 40 41 40 39 39 39 39 40 41 42 42 44 46 47 48 49 50 51
33 31 31 27 25 21 17 20 34 33 35 35 35 36 36 38 39 39 39 39 38 38 39 39 38 36 33 32 31 29 31 33 32 32 35 36 34 34 33 35 35 37 39 43 43 44 45 46 46
30 27 26 20 21 24 23 21 34 35 35 35 37 37 38 39 39 39 39 38 38 37 37 37 37 33 32 32 28 30 28 25 25 26 26 26 26 26 26 25 26 27 29 32 37 39 41 42 43

GFSSGP_sfc_30mbdewp_111.txt.gz
Dewpoint
51 51 50 43 29 22 13 20 29 29 29 34 34 33 30 31 30 37 56 57 63 66 68 68 71 72 72 72 72 72 72 71 71 71 70 71 70 69 67 66 65 67 67 67 66 69 68 67 66
49 49 45 36 27 15 15 26 28 32 34 33 32 32 30 34 47 46 53 50 64 66 68 69 70 71 71 72 71 72 72 71 71 71 70 70 70 69 67 67 66 68 69 68 67 68 67 66 66
52 47 36 28 16 15 20 26 31 33 32 31 29 29 32 39 40 41 43 60 65 66 66 69 70 70 70 71 70 69 71 71 70 70 70 69 70 69 68 67 67 68 69 68 68 68 67 66 66
45 41 32 27 15 24 27 29 29 30 30 29 28 28 39 38 38 39 47 63 65 67 66 69 70 70 70 70 70 70 70 70 69 69 69 69 69 69 68 68 68 68 68 69 68 67 66 66 66
45 37 25 19 20 26 30 33 32 26 26 25 27 26 31 36 38 39 44 57 65 66 68 66 70 70 70 70 70 69 69 69 69 69 68 69 69 69 69 69 69 69 68 68 68 66 66 66 66
34 31 19 16 20 26 28 32 30 25 26 26 26 27 31 36 37 38 41 47 63 66 68 66 68 69 69 69 69 69 69 69 69 69 68 69 69 69 69 69 69 69 67 67 67 66 66 65 65
30 22 16 16 19 23 26 27 23 24 24 23 28 26 31 38 34 35 38 44 47 58 66 68 67 66 68 69 69 69 69 69 70 69 69 68 68 69 69 69 69 69 69 69 68 67 67 65 65
30 23 18 16 15 22 29 28 28 27 24 28 27 21 25 33 30 33 35 40 44 46 47 57 66 67 64 63 68 69 70 69 69 69 69 69 68 68 68 68 68 69 69 68 68 67 66 66 66
33 18 15 18 17 24 28 26 28 28 24 20 22 24 24 24 23 27 29 35 39 43 43 44 49 64 66 65 64 66 67 68 68 68 68 69 66 63 65 66 66 68 68 68 67 66 66 66 66
24 17 16 23 26 25 27 25 23 19 15 15 14 14 16 18 19 21 22 25 29 35 40 41 42 48 63 65 66 64 62 62 61 60 61 64 62 60 60 62 66 67 68 67 67 66 66 66 60
25 20 24 27 30 28 24 19 21 16 11 9 9 12 15 18 20 21 21 20 21 26 32 37 41 42 56 64 67 66 64 64 63 60 60 60 59 62 61 61 65 66 67 67 66 66 65 61 56
23 27 24 27 27 23 20 20 17 15 14 13 15 16 18 20 21 22 23 22 22 23 27 32 36 41 43 61 64 67 66 66 65 64 63 60 60 61 60 61 62 65 66 66 66 66 64 61 58
17 20 21 23 24 21 18 17 17 16 15 17 19 21 23 24 25 26 28 28 27 25 27 27 31 38 41 46 62 65 66 65 64 63 61 60 61 61 62 61 62 64 65 66 66 66 64 60 57
21 22 19 21 19 20 20 18 21 15 19 21 24 26 28 29 30 30 29 30 30 29 29 28 27 30 37 41 52 63 65 65 64 62 62 63 64 63 64 64 64 64 66 66 65 64 64 62 58
20 16 17 19 20 21 24 22 21 20 20 23 24 28 29 28 27 26 26 27 27 26 27 29 29 27 29 36 42 55 63 65 63 62 60 62 62 62 63 64 64 64 65 65 65 65 65 64 63
16 13 9 17 22 24 25 11 19 19 21 24 27 29 27 27 27 29 29 30 30 30 29 27 28 29 27 26 37 48 61 64 64 63 62 62 61 61 62 62 62 63 63 63 63 63 64 64 64
10 7 6 18 23 24 25 18 20 24 26 27 28 28 26 27 30 34 35 35 33 33 32 31 30 31 31 29 31 41 59 62 63 62 60 60 63 62 61 61 61 61 61 61 62 63 63 62 63
10 5 10 10 21 24 24 23 24 27 28 29 28 27 28 32 36 38 41 42 43 36 34 33 33 32 32 32 35 44 59 63 62 59 58 59 61 61 61 62 62 61 60 61 62 62 63 62 61
18 16 16 15 24 27 25 25 26 28 30 27 29 30 32 37 38 39 41 42 43 43 36 35 35 34 34 35 36 46 57 60 63 60 59 59 59 59 61 60 60 61 60 60 60 60 61 61 62
23 21 20 24 27 29 28 28 28 29 28 29 31 33 36 38 39 40 41 42 42 45 45 40 36 35 34 37 37 49 55 58 60 62 62 60 60 60 60 59 60 60 61 60 60 61 60 60 62
25 26 25 28 30 29 28 26 27 26 26 29 31 34 38 40 40 41 42 43 44 45 46 46 45 36 36 37 43 52 57 59 59 60 61 61 61 61 60 60 60 60 61 60 61 60 60 59 59
28 27 28 30 29 27 28 22 23 24 25 27 33 34 39 40 40 41 41 43 45 46 48 50 48 45 40 42 43 52 56 57 58 59 59 60 59 59 60 60 60 60 60 61 60 61 61 59 58
29 30 30 30 29 28 27 27 22 25 25 28 34 36 38 39 40 40 41 42 43 45 47 50 51 49 46 46 48 53 54 56 56 57 58 58 58 59 59 60 60 60 60 60 60 60 60 60 59
31 33 32 30 28 26 28 25 21 25 29 33 35 37 38 39 40 40 41 41 42 43 46 47 50 51 53 50 52 53 53 52 52 54 56 55 54 54 53 54 57 59 59 60 59 60 59 59 60
33 31 27 25 26 24 26 26 27 27 34 34 35 37 37 38 39 39 40 40 41 41 44 45 46 47 49 50 50 50 50 51 50 50 50 51 50 50 49 51 52 53 53 54 55 57 59 59 59
29 28 25 20 22 23 28 24 28 33 34 36 36 36 38 38 39 39 39 39 40 40 41 41 43 44 46 47 47 47 47 46 46 45 45 45 45 45 46 47 48 48 48 50 51 54 54 53 57
30 27 31 28 25 23 24 30 31 32 32 34 35 37 37 37 38 39 39 40 39 40 40 38 36 36 36 39 42 43 43 41 40 39 40 40 40 39 41 42 42 43 44 46 47 49 48 49 51
33 33 26 29 20 18 19 22 25 30 34 34 34 35 37 38 39 39 39 39 39 39 39 39 36 32 31 29 28 30 32 33 34 34 33 34 35 35 35 35 36 37 39 42 44 45 45 46 47
32 29 29 25 22 19 12 17 35 33 35 34 34 36 38 38 39 39 39 39 38 38 38 37 36 34 31 28 28 26 26 29 28 26 26 27 28 28 29 28 29 29 31 34 36 36 38 40 41
30 27 25 20 16 21 19 17 33 34 35 35 35 36 38 39 39 39 38 37 37 36 36 34 34 33 30 29 27 26 26 24 22 21 21 21 22 21 21 22 22 23 24 28 29 31 31 33 34

GFSSGP_sfc_30mbdewp_114.txt.gz
Dewpoint
54 51 52 45 35 28 22 26 29 28 28 33 33 33 32 38 40 47 48 55 64 66 69 70 72 72 71 71 73 71 71 71 71 71 71 70 70 69 67 66 65 65 66 66 65 69 68 67 68
54 47 48 41 31 19 20 27 28 33 33 32 31 33 30 43 40 42 44 55 65 67 70 68 71 71 71 72 72 72 71 71 70 70 70 70 70 69 68 67 66 67 68 68 67 69 68 67 67
53 48 42 34 22 21 25 28 34 32 31 30 29 29 38 39 39 39 45 61 65 66 68 69 69 70 70 70 70 70 71 71 70 70 70 70 69 70 68 67 67 67 69 68 68 69 68 67 67
48 45 39 29 22 25 27 29 29 31 30 29 28 35 38 38 38 41 46 53 65 66 68 69 69 70 70 70 70 70 70 70 70 69 70 69 69 70 69 68 68 68 69 68 68 68 67 67 67
47 41 30 20 24 25 32 32 30 26 26 26 27 27 37 37 40 40 44 49 64 66 67 68 69 70 70 70 70 70 69 69 69 68 69 69 69 68 69 69 69 69 69 68 67 68 67 66 67
39 36 25 21 23 27 30 31 29 25 26 26 26 27 37 37 37 38 42 47 51 60 66 68 68 69 69 69 69 70 69 69 69 69 69 69 69 69 69 69 69 70 69 67 68 67 66 66 66
38 27 23 19 25 25 26 27 24 25 24 26 28 25 37 36 34 35 38 43 48 50 50 57 67 67 68 69 69 69 69 69 69 70 69 69 68 69 68 69 68 68 69 67 68 67 67 66 66
37 26 20 17 20 26 28 27 28 26 26 26 26 23 26 24 23 30 34 38 44 46 47 47 49 64 66 66 67 68 69 69 69 69 69 69 68 68 68 68 68 68 68 68 68 67 66 67 66
32 25 18 19 18 27 28 26 28 27 24 21 19 20 20 18 22 24 27 33 37 40 45 44 46 46 60 65 66 67 68 69 69 69 69 68 68 67 67 67 66 68 68 68 68 67 66 66 66
28 22 24 26 28 26 27 23 21 19 16 15 17 17 17 18 21 22 24 24 27 30 37 41 44 45 45 63 65 66 66 65 65 66 66 67 67 65 63 65 66 67 68 68 68 67 66 66 65
25 25 24 28 30 26 23 19 20 18 14 11 12 14 16 19 20 22 23 23 23 27 30 35 39 43 45 47 64 67 66 66 65 62 61 62 62 62 61 63 65 67 67 68 67 66 66 65 63
23 26 24 27 26 23 20 19 17 17 16 15 15 18 19 21 24 26 27 27 27 28 29 31 34 37 44 45 61 64 67 66 66 65 64 63 61 62 62 62 65 66 67 67 67 66 65 64 61
18 20 20 23 23 20 18 16 18 17 18 17 19 23 25 27 29 31 32 32 32 32 32 33 34 34 37 44 46 63 65 66 66 66 64 62 63 61 61 61 62 65 66 66 67 66 66 64 61
21 20 19 20 18 18 21 20 20 17 18 20 23 26 28 30 30 29 28 29 29 29 29 30 33 34 36 37 42 49 64 65 65 65 64 63 64 63 63 63 64 65 65 66 66 66 66 64 63
19 17 18 19 20 21 25 21 20 21 20 21 23 25 29 29 28 29 32 33 31 31 32 32 30 29 32 31 34 41 51 64 65 64 63 62 63 63 63 63 63 64 65 66 66 66 65 64 63
16 12 14 19 21 25 25 9 22 20 19 23 26 28 29 28 28 36 39 39 41 40 34 34 35 33 32 32 31 35 42 60 63 64 63 61 61 61 62 63 63 64 64 65 64 65 64 64 63
11 10 9 20 23 24 24 20 22 24 24 26 28 29 27 30 37 39 40 41 42 43 42 36 36 36 35 35 35 32 34 56 62 63 63 63 62 61 61 62 62 62 62 62 62 63 63 63 63
16 7 9 10 24 24 24 24 25 26 26 29 30 29 31 37 39 41 41 43 44 44 44 45 39 37 37 37 37 37 40 52 61 63 62 61 61 62 62 61 61 61 60 59 61 61 60 61 62
19 16 16 17 26 26 25 26 28 28 30 29 29 31 36 38 40 41 43 44 44 45 45 46 47 44 38 37 37 36 37 53 60 61 62 60 61 61 61 61 60 57 57 56 58 60 60 61 62
24 22 24 26 27 29 28 29 30 30 29 29 30 36 38 40 40 41 42 42 44 45 46 47 47 48 47 38 39 39 43 55 56 58 61 61 60 61 61 61 60 60 60 60 60 59 60 60 61
25 26 27 27 30 31 29 28 28 28 27 28 31 38 39 39 39 40 41 42 43 44 45 46 48 50 51 44 40 42 46 54 55 57 58 60 61 61 61 60 60 60 60 61 60 60 60 59 59
28 28 29 30 29 26 29 18 25 26 26 27 34 36 38 39 40 39 41 41 42 43 45 47 48 52 52 48 42 43 45 49 53 54 57 60 60 60 62 61 60 60 60 59 60 60 60 59 58
30 31 31 31 28 28 27 26 26 24 24 32 34 36 38 38 39 39 41 42 42 42 44 46 48 49 50 52 48 48 50 50 51 52 55 58 57 57 58 58 60 60 60 59 59 59 59 60 59
30 32 33 30 28 25 28 26 22 26 29 33 35 36 38 38 39 40 41 41 41 42 43 45 45 46 48 50 50 50 50 51 49 50 51 52 51 52 53 55 55 55 55 55 57 58 59 59 59
33 33 28 26 26 26 27 26 24 28 34 34 35 36 37 38 39 40 40 40 40 40 41 41 41 42 46 46 46 46 46 46 47 47 46 46 47 46 47 49 49 49 50 51 51 54 54 53 55
29 28 24 13 22 23 28 23 26 33 34 36 36 36 37 37 38 39 39 40 40 40 40 38 36 35 38 43 44 45 44 43 42 42 42 42 43 42 43 42 43 44 46 47 49 50 49 49 50
30 27 30 26 25 22 24 29 31 32 32 34 34 35 35 37 38 39 39 39 39 39 39 38 36 31 31 29 33 34 38 39 37 36 37 37 36 35 36 36 37 38 41 43 45 46 45 47 47
33 32 27 28 20 17 18 25 25 31 31 35 33 34 36 37 39 39 39 39 39 38 38 38 36 35 31 29 27 27 29 30 30 31 29 29 29 30 30 30 32 31 34 37 39 39 41 40 42
32 31 30 26 22 20 16 16 36 32 33 34 34 35 36 38 39 39 39 39 38 38 36 35 35 32 30 28 28 26 25 25 24 23 23 24 24 23 24 25 26 27 28 32 34 33 34 34 35
30 30 28 23 18 21 20 20 31 33 35 35 35 36 37 37 39 40 39 38 37 35 35 32 32 30 29 27 25 25 25 24 23 23 23 21 20 20 18 18 19 20 22 24 26 27 28 30 32

GFSSGP_sfc_30mbdewp_117.txt.gz
Dewpoint
56 54 51 48 31 30 24 27 28 27 30 32 33 32 41 42 45 45 48 54 65 67 69 70 72 71 71 72 72 71 71 71 70 70 71 70 69 69 67 66 65 67 66 65 65 68 68 67 68
55 53 49 42 31 18 23 30 31 32 32 32 30 31 35 39 39 41 45 52 65 67 69 69 71 71 71 72 72 71 71 70 70 70 70 70 69 69 68 67 65 66 67 68 66 69 68 67 68
51 53 43 37 25 22 26 33 31 29 29 29 29 37 40 38 38 41 45 53 66 66 69 69 69 69 70 70 71 71 71 71 70 70 70 70 70 69 69 68 67 67 69 69 68 69 68 67 67
49 45 39 30 24 28 28 28 31 29 29 28 28 34 37 39 39 42 45 53 64 66 68 69 68 68 69 69 70 70 70 70 70 69 69 69 69 69 69 68 68 68 68 69 69 69 68 68 67
48 42 30 21 24 32 31 30 28 26 26 26 27 31 36 39 39 42 44 49 55 60 67 69 69 69 69 69 69 69 69 69 69 69 69 69 69 69 69 69 69 69 69 69 68 68 68 67 67
41 36 27 23 24 29 28 27 27 25 25 26 27 28 37 38 35 37 43 46 50 49 53 64 68 69 69 69 69 69 69 69 69 69 69 69 69 70 69 69 69 70 69 69 67 68 68 67 66
38 28 24 24 26 26 26 26 26 25 24 27 27 25 36 32 34 34 39 39 47 48 47 48 53 67 68 68 69 69 69 69 68 69 69 69 69 69 69 69 69 69 69 68 67 68 68 66 66
35 27 21 20 24 27 28 28 28 27 26 25 26 22 30 21 27 26 28 33 39 46 46 44 46 47 53 66 67 68 69 69 69 69 69 69 68 68 68 69 69 69 68 68 68 68 67 67 67
32 22 20 24 25 27 27 27 27 25 23 22 19 18 20 21 23 23 25 25 29 35 44 43 43 43 44 50 66 67 68 68 68 69 69 68 68 68 67 67 67 68 68 68 68 68 67 67 67
29 25 25 29 27 26 25 22 20 18 17 16 17 15 17 19 20 22 23 24 25 26 30 38 42 43 44 44 54 65 67 67 67 68 68 68 68 67 66 66 66 67 68 68 69 68 67 66 66
25 23 27 30 27 25 22 19 20 18 12 15 14 15 18 19 22 25 26 26 26 27 29 30 31 34 38 41 46 61 65 66 65 64 65 66 67 66 66 64 65 66 67 67 68 68 67 66 65
23 24 26 27 24 22 20 19 16 18 15 18 18 20 20 23 24 27 29 31 31 32 32 33 34 35 36 43 44 50 62 64 66 65 65 63 62 63 63 62 64 66 66 67 67 66 66 65 64
21 21 21 24 23 20 19 15 16 17 18 19 19 21 25 26 30 30 31 31 32 31 32 33 34 34 35 36 41 44 52 62 64 66 65 65 63 63 62 62 64 66 66 66 66 66 65 65 63
22 20 21 20 19 18 20 19 22 18 19 19 21 24 27 30 30 29 36 37 39 39 40 35 34 34 33 34 37 39 45 56 63 64 65 65 64 63 63 62 63 64 66 66 66 66 66 65 64
19 16 18 19 19 21 25 18 19 19 20 20 22 23 27 30 32 38 40 40 41 42 42 40 36 36 35 35 34 34 37 46 60 63 64 64 63 63 63 63 63 64 65 66 66 66 66 65 65
16 13 11 19 20 24 20 -4 20 23 21 19 22 26 29 37 40 41 41 42 43 44 44 44 44 42 38 36 36 35 35 37 49 61 63 63 62 62 63 63 63 64 64 65 65 65 65 65 64
12 9 12 18 22 23 21 10 22 25 24 24 28 29 34 39 40 42 43 44 44 44 45 45 46 47 45 40 37 37 37 36 43 56 62 62 62 61 61 62 63 62 62 63 63 63 63 62 63
15 10 12 14 22 24 23 22 24 26 27 28 30 33 37 39 40 41 43 43 44 44 46 46 47 48 48 48 42 39 39 40 42 53 60 62 62 62 61 61 61 62 61 61 61 61 62 61 61
21 18 16 23 25 28 25 26 27 30 30 29 30 36 38 39 40 42 42 42 43 44 45 45 46 47 49 49 48 40 37 38 43 55 59 60 61 61 61 61 61 61 60 59 59 59 58 58 59
23 21 25 26 29 30 28 28 30 31 31 29 34 38 38 39 40 40 41 42 42 43 43 45 46 48 50 52 52 46 41 43 51 55 56 56 58 59 61 61 60 60 57 57 57 58 59 59 61
26 24 26 26 31 31 29 27 29 29 29 31 38 39 39 39 39 39 40 42 42 42 43 44 46 48 49 50 52 48 45 47 50 52 53 54 56 57 58 60 60 59 58 57 59 59 59 57 59
25 29 30 31 29 18 29 13 27 27 26 28 35 37 38 38 39 39 40 41 41 41 42 44 45 46 48 50 50 50 45 45 50 51 53 55 55 55 55 58 60 60 60 58 59 60 59 59 57
30 31 31 31 29 27 26 25 24 26 25 31 35 36 38 38 39 40 40 41 41 41 42 42 43 44 47 48 47 49 49 50 51 50 51 52 51 50 50 52 58 60 60 60 59 59 59 59 59
31 33 33 30 28 23 25 26 21 24 25 33 35 36 37 38 39 39 40 40 41 41 41 40 40 39 44 46 46 46 46 47 46 46 46 48 47 47 46 48 51 52 54 54 55 57 55 55 58
32 32 23 22 24 21 27 25 24 29 33 33 34 35 36 37 38 39 39 39 40 40 40 39 36 33 34 39 43 43 44 43 42 41 42 42 41 41 42 44 46 48 49 51 52 51 50 51 51
32 28 20 1 18 22 27 21 19 31 35 36 35 36 36 36 38 39 40 39 39 40 40 38 36 32 31 32 34 37 40 39 38 38 37 37 39 38 40 41 41 43 44 45 48 46 47 48 48
31 28 30 25 23 22 20 25 30 33 34 34 34 35 35 36 37 38 39 39 39 38 39 38 35 33 31 29 27 28 29 32 33 34 33 33 33 31 33 34 34 36 37 39 39 42 40 43 45
33 34 25 26 13 11 16 20 20 31 31 34 33 34 35 36 38 38 39 39 39 38 38 37 35 31 30 28 27 26 27 27 26 26 25 27 26 27 26 27 28 29 31 35 35 36 36 36 38
31 31 31 27 24 17 15 10 29 31 32 30 33 34 35 36 38 38 39 39 39 38 37 34 33 30 29 27 25 25 25 25 25 23 22 21 21 21 21 21 22 22 23 29 29 29 30 32 34
32 29 28 21 17 21 20 19 29 34 32 34 34 35 36 37 37 39 40 40 39 37 36 32 30 30 26 28 26 24 24 23 22 20 18 17 17 18 18 19 19 19 20 24 25 26 28 27 27